<?xml version="1.0" encoding="UTF-8" standalone="no" ?>
<gpx xmlns="http://www.topografix.com/GPX/1/1" xmlns:xsi="http://www.w3.org/2001/XMLSchema-instance" xsi:schemaLocation="http://www.topografix.com/GPX/1/1 http://www.topografix.com/GPX/1/1/gpx.xsd" version="1.1" creator="VisuGPX - https://www.visugpx.com">
  <metadata>
    <name>La Saulce Cyclisme</name>
    <desc><![CDATA[la saulce que des sentiers vincent, jean pierre, jean michel ,maurice, thierry, christian, michel]]></desc>
  </metadata>
  <trk>
    <name><![CDATA[La Saulce Cyclisme]]></name>
    <trkseg>
      <trkpt lat="44.42509" lon="5.99653">
        <ele>591.79998779297</ele>
        <time>2021-10-21T06:17:09.000Z</time>
      </trkpt>
      <trkpt lat="44.42486" lon="5.9967">
        <ele>593</ele>
        <time>2021-10-21T06:17:09.008Z</time>
      </trkpt>
      <trkpt lat="44.42485" lon="5.99676">
        <ele>592.79998779297</ele>
        <time>2021-10-21T06:17:09.017Z</time>
      </trkpt>
      <trkpt lat="44.42492" lon="5.99698">
        <ele>592.79998779297</ele>
        <time>2021-10-21T06:17:09.032Z</time>
      </trkpt>
      <trkpt lat="44.42501" lon="5.99716">
        <ele>592.79998779297</ele>
        <time>2021-10-21T06:17:09.052Z</time>
      </trkpt>
      <trkpt lat="44.42504" lon="5.99716">
        <ele>593.20001220703</ele>
        <time>2021-10-21T06:17:09.073Z</time>
      </trkpt>
      <trkpt lat="44.42519" lon="5.99711">
        <ele>593.20001220703</ele>
        <time>2021-10-21T06:17:09.099Z</time>
      </trkpt>
      <trkpt lat="44.42525" lon="5.99714">
        <ele>594</ele>
        <time>2021-10-21T06:17:09.127Z</time>
      </trkpt>
      <trkpt lat="44.42531" lon="5.99726">
        <ele>595</ele>
        <time>2021-10-21T06:17:09.158Z</time>
      </trkpt>
      <trkpt lat="44.42543" lon="5.99778">
        <ele>595</ele>
        <time>2021-10-21T06:17:09.201Z</time>
      </trkpt>
      <trkpt lat="44.42548" lon="5.99812">
        <ele>596.40002441406</ele>
        <time>2021-10-21T06:17:09.252Z</time>
      </trkpt>
      <trkpt lat="44.42548" lon="5.99843">
        <ele>595.40002441406</ele>
        <time>2021-10-21T06:17:09.310Z</time>
      </trkpt>
      <trkpt lat="44.4255" lon="5.9986">
        <ele>594.59997558594</ele>
        <time>2021-10-21T06:17:09.372Z</time>
      </trkpt>
      <trkpt lat="44.42552" lon="5.99862">
        <ele>594.59997558594</ele>
        <time>2021-10-21T06:17:09.434Z</time>
      </trkpt>
      <trkpt lat="44.42549" lon="5.99832">
        <ele>594.59997558594</ele>
        <time>2021-10-21T06:17:09.503Z</time>
      </trkpt>
      <trkpt lat="44.42555" lon="5.99827">
        <ele>594.59997558594</ele>
        <time>2021-10-21T06:17:09.574Z</time>
      </trkpt>
      <trkpt lat="44.42565" lon="5.99828">
        <ele>594.59997558594</ele>
        <time>2021-10-21T06:17:09.648Z</time>
      </trkpt>
      <trkpt lat="44.42575" lon="5.99821">
        <ele>597.79998779297</ele>
        <time>2021-10-21T06:17:09.725Z</time>
      </trkpt>
      <trkpt lat="44.42581" lon="5.99819">
        <ele>597.79998779297</ele>
        <time>2021-10-21T06:17:09.804Z</time>
      </trkpt>
      <trkpt lat="44.42586" lon="5.99823">
        <ele>597.79998779297</ele>
        <time>2021-10-21T06:17:09.885Z</time>
      </trkpt>
      <trkpt lat="44.42594" lon="5.9986">
        <ele>597.79998779297</ele>
        <time>2021-10-21T06:17:09.975Z</time>
      </trkpt>
      <trkpt lat="44.426" lon="5.99918">
        <ele>597.79998779297</ele>
        <time>2021-10-21T06:17:10.078Z</time>
      </trkpt>
      <trkpt lat="44.42602" lon="5.99965">
        <ele>605.40002441406</ele>
        <time>2021-10-21T06:17:10.192Z</time>
      </trkpt>
      <trkpt lat="44.4259" lon="6.00033">
        <ele>605.20001220703</ele>
        <time>2021-10-21T06:17:10.321Z</time>
      </trkpt>
      <trkpt lat="44.42591" lon="6.00042">
        <ele>605.40002441406</ele>
        <time>2021-10-21T06:17:10.452Z</time>
      </trkpt>
      <trkpt lat="44.42589" lon="6.00055">
        <ele>605.40002441406</ele>
        <time>2021-10-21T06:17:10.586Z</time>
      </trkpt>
      <trkpt lat="44.4258" lon="6.00075">
        <ele>605.40002441406</ele>
        <time>2021-10-21T06:17:10.725Z</time>
      </trkpt>
      <trkpt lat="44.42575" lon="6.00097">
        <ele>605.40002441406</ele>
        <time>2021-10-21T06:17:10.869Z</time>
      </trkpt>
      <trkpt lat="44.42567" lon="6.00232">
        <ele>605.40002441406</ele>
        <time>2021-10-21T06:17:11.044Z</time>
      </trkpt>
      <trkpt lat="44.42568" lon="6.00243">
        <ele>604.40002441406</ele>
        <time>2021-10-21T06:17:11.221Z</time>
      </trkpt>
      <trkpt lat="44.42576" lon="6.00275">
        <ele>606</ele>
        <time>2021-10-21T06:17:11.406Z</time>
      </trkpt>
      <trkpt lat="44.42578" lon="6.00281">
        <ele>606</ele>
        <time>2021-10-21T06:17:11.592Z</time>
      </trkpt>
      <trkpt lat="44.42586" lon="6.00294">
        <ele>606.20001220703</ele>
        <time>2021-10-21T06:17:11.782Z</time>
      </trkpt>
      <trkpt lat="44.42589" lon="6.00315">
        <ele>606.20001220703</ele>
        <time>2021-10-21T06:17:11.977Z</time>
      </trkpt>
      <trkpt lat="44.42607" lon="6.00335">
        <ele>606.79998779297</ele>
        <time>2021-10-21T06:17:12.179Z</time>
      </trkpt>
      <trkpt lat="44.42634" lon="6.00378">
        <ele>605.59997558594</ele>
        <time>2021-10-21T06:17:12.394Z</time>
      </trkpt>
      <trkpt lat="44.42637" lon="6.00384">
        <ele>605.59997558594</ele>
        <time>2021-10-21T06:17:12.611Z</time>
      </trkpt>
      <trkpt lat="44.42639" lon="6.00397">
        <ele>605.59997558594</ele>
        <time>2021-10-21T06:17:12.831Z</time>
      </trkpt>
      <trkpt lat="44.42634" lon="6.00415">
        <ele>605.59997558594</ele>
        <time>2021-10-21T06:17:13.055Z</time>
      </trkpt>
      <trkpt lat="44.42612" lon="6.00468">
        <ele>605.79998779297</ele>
        <time>2021-10-21T06:17:13.293Z</time>
      </trkpt>
      <trkpt lat="44.42607" lon="6.00494">
        <ele>605.79998779297</ele>
        <time>2021-10-21T06:17:13.537Z</time>
      </trkpt>
      <trkpt lat="44.42613" lon="6.00576">
        <ele>605.59997558594</ele>
        <time>2021-10-21T06:17:13.799Z</time>
      </trkpt>
      <trkpt lat="44.42609" lon="6.0061">
        <ele>605.79998779297</ele>
        <time>2021-10-21T06:17:14.069Z</time>
      </trkpt>
      <trkpt lat="44.42609" lon="6.00625">
        <ele>605.79998779297</ele>
        <time>2021-10-21T06:17:14.342Z</time>
      </trkpt>
      <trkpt lat="44.4261" lon="6.00632">
        <ele>605.59997558594</ele>
        <time>2021-10-21T06:17:14.617Z</time>
      </trkpt>
      <trkpt lat="44.42619" lon="6.00649">
        <ele>605.59997558594</ele>
        <time>2021-10-21T06:17:14.897Z</time>
      </trkpt>
      <trkpt lat="44.42623" lon="6.00655">
        <ele>605.59997558594</ele>
        <time>2021-10-21T06:17:15.178Z</time>
      </trkpt>
      <trkpt lat="44.42621" lon="6.00671">
        <ele>605.59997558594</ele>
        <time>2021-10-21T06:17:15.463Z</time>
      </trkpt>
      <trkpt lat="44.42606" lon="6.00686">
        <ele>607</ele>
        <time>2021-10-21T06:17:15.754Z</time>
      </trkpt>
      <trkpt lat="44.42596" lon="6.00703">
        <ele>607</ele>
        <time>2021-10-21T06:17:16.050Z</time>
      </trkpt>
      <trkpt lat="44.42579" lon="6.00719">
        <ele>601.20001220703</ele>
        <time>2021-10-21T06:17:16.352Z</time>
      </trkpt>
      <trkpt lat="44.42577" lon="6.00724">
        <ele>601.20001220703</ele>
        <time>2021-10-21T06:17:16.656Z</time>
      </trkpt>
      <trkpt lat="44.42578" lon="6.00729">
        <ele>599.20001220703</ele>
        <time>2021-10-21T06:17:16.961Z</time>
      </trkpt>
      <trkpt lat="44.42593" lon="6.00794">
        <ele>599.20001220703</ele>
        <time>2021-10-21T06:17:17.281Z</time>
      </trkpt>
      <trkpt lat="44.42597" lon="6.00826">
        <ele>599.20001220703</ele>
        <time>2021-10-21T06:17:17.608Z</time>
      </trkpt>
      <trkpt lat="44.42606" lon="6.0087">
        <ele>599.20001220703</ele>
        <time>2021-10-21T06:17:17.946Z</time>
      </trkpt>
      <trkpt lat="44.42616" lon="6.00892">
        <ele>599.20001220703</ele>
        <time>2021-10-21T06:17:18.289Z</time>
      </trkpt>
      <trkpt lat="44.42658" lon="6.00956">
        <ele>590.59997558594</ele>
        <time>2021-10-21T06:17:18.652Z</time>
      </trkpt>
      <trkpt lat="44.42667" lon="6.00967">
        <ele>590.59997558594</ele>
        <time>2021-10-21T06:17:19.019Z</time>
      </trkpt>
      <trkpt lat="44.42682" lon="6.00983">
        <ele>588.59997558594</ele>
        <time>2021-10-21T06:17:19.392Z</time>
      </trkpt>
      <trkpt lat="44.42693" lon="6.01011">
        <ele>588.59997558594</ele>
        <time>2021-10-21T06:17:19.772Z</time>
      </trkpt>
      <trkpt lat="44.42704" lon="6.01056">
        <ele>585.40002441406</ele>
        <time>2021-10-21T06:17:20.162Z</time>
      </trkpt>
      <trkpt lat="44.42718" lon="6.0109">
        <ele>585.40002441406</ele>
        <time>2021-10-21T06:17:20.561Z</time>
      </trkpt>
      <trkpt lat="44.42728" lon="6.0112">
        <ele>582</ele>
        <time>2021-10-21T06:17:20.967Z</time>
      </trkpt>
      <trkpt lat="44.42738" lon="6.01162">
        <ele>580</ele>
        <time>2021-10-21T06:17:21.383Z</time>
      </trkpt>
      <trkpt lat="44.42739" lon="6.01174">
        <ele>579.20001220703</ele>
        <time>2021-10-21T06:17:21.802Z</time>
      </trkpt>
      <trkpt lat="44.42743" lon="6.01194">
        <ele>578.79998779297</ele>
        <time>2021-10-21T06:17:22.226Z</time>
      </trkpt>
      <trkpt lat="44.42769" lon="6.01264">
        <ele>578.79998779297</ele>
        <time>2021-10-21T06:17:22.668Z</time>
      </trkpt>
      <trkpt lat="44.42783" lon="6.01307">
        <ele>578.79998779297</ele>
        <time>2021-10-21T06:17:23.120Z</time>
      </trkpt>
      <trkpt lat="44.42804" lon="6.01361">
        <ele>583.40002441406</ele>
        <time>2021-10-21T06:17:23.586Z</time>
      </trkpt>
      <trkpt lat="44.42833" lon="6.01423">
        <ele>583.40002441406</ele>
        <time>2021-10-21T06:17:24.068Z</time>
      </trkpt>
      <trkpt lat="44.42864" lon="6.01467">
        <ele>583.59997558594</ele>
        <time>2021-10-21T06:17:24.564Z</time>
      </trkpt>
      <trkpt lat="44.42905" lon="6.01516">
        <ele>584.59997558594</ele>
        <time>2021-10-21T06:17:25.077Z</time>
      </trkpt>
      <trkpt lat="44.42949" lon="6.01575">
        <ele>585.79998779297</ele>
        <time>2021-10-21T06:17:25.609Z</time>
      </trkpt>
      <trkpt lat="44.43078" lon="6.01733">
        <ele>585.79998779297</ele>
        <time>2021-10-21T06:17:26.195Z</time>
      </trkpt>
      <trkpt lat="44.43117" lon="6.01788">
        <ele>585</ele>
        <time>2021-10-21T06:17:26.798Z</time>
      </trkpt>
      <trkpt lat="44.43149" lon="6.01838">
        <ele>584.59997558594</ele>
        <time>2021-10-21T06:17:27.416Z</time>
      </trkpt>
      <trkpt lat="44.4318" lon="6.01901">
        <ele>584.59997558594</ele>
        <time>2021-10-21T06:17:28.051Z</time>
      </trkpt>
      <trkpt lat="44.43231" lon="6.0204">
        <ele>584.59997558594</ele>
        <time>2021-10-21T06:17:28.721Z</time>
      </trkpt>
      <trkpt lat="44.43255" lon="6.02097">
        <ele>584.79998779297</ele>
        <time>2021-10-21T06:17:29.406Z</time>
      </trkpt>
      <trkpt lat="44.43283" lon="6.02183">
        <ele>586</ele>
        <time>2021-10-21T06:17:30.112Z</time>
      </trkpt>
      <trkpt lat="44.4328" lon="6.02205">
        <ele>586.20001220703</ele>
        <time>2021-10-21T06:17:30.823Z</time>
      </trkpt>
      <trkpt lat="44.43283" lon="6.02219">
        <ele>586.20001220703</ele>
        <time>2021-10-21T06:17:31.537Z</time>
      </trkpt>
      <trkpt lat="44.43296" lon="6.02243">
        <ele>586.59997558594</ele>
        <time>2021-10-21T06:17:32.258Z</time>
      </trkpt>
      <trkpt lat="44.43341" lon="6.02302">
        <ele>586.59997558594</ele>
        <time>2021-10-21T06:17:32.999Z</time>
      </trkpt>
      <trkpt lat="44.43365" lon="6.0233">
        <ele>586.59997558594</ele>
        <time>2021-10-21T06:17:33.749Z</time>
      </trkpt>
      <trkpt lat="44.43385" lon="6.02347">
        <ele>586.59997558594</ele>
        <time>2021-10-21T06:17:34.507Z</time>
      </trkpt>
      <trkpt lat="44.43419" lon="6.02368">
        <ele>586.59997558594</ele>
        <time>2021-10-21T06:17:35.276Z</time>
      </trkpt>
      <trkpt lat="44.43438" lon="6.02379">
        <ele>586.59997558594</ele>
        <time>2021-10-21T06:17:36.051Z</time>
      </trkpt>
      <trkpt lat="44.43473" lon="6.02392">
        <ele>586.59997558594</ele>
        <time>2021-10-21T06:17:36.838Z</time>
      </trkpt>
      <trkpt lat="44.43488" lon="6.02402">
        <ele>586.79998779297</ele>
        <time>2021-10-21T06:17:37.630Z</time>
      </trkpt>
      <trkpt lat="44.43518" lon="6.02418">
        <ele>586.79998779297</ele>
        <time>2021-10-21T06:17:38.432Z</time>
      </trkpt>
      <trkpt lat="44.4355" lon="6.02421">
        <ele>586.40002441406</ele>
        <time>2021-10-21T06:17:39.244Z</time>
      </trkpt>
      <trkpt lat="44.43616" lon="6.024">
        <ele>586.40002441406</ele>
        <time>2021-10-21T06:17:40.077Z</time>
      </trkpt>
      <trkpt lat="44.43645" lon="6.02393">
        <ele>585.79998779297</ele>
        <time>2021-10-21T06:17:40.920Z</time>
      </trkpt>
      <trkpt lat="44.43671" lon="6.02389">
        <ele>585.79998779297</ele>
        <time>2021-10-21T06:17:41.771Z</time>
      </trkpt>
      <trkpt lat="44.43702" lon="6.02397">
        <ele>584.59997558594</ele>
        <time>2021-10-21T06:17:42.632Z</time>
      </trkpt>
      <trkpt lat="44.43708" lon="6.02399">
        <ele>584.59997558594</ele>
        <time>2021-10-21T06:17:43.495Z</time>
      </trkpt>
      <trkpt lat="44.4373" lon="6.02414">
        <ele>584.20001220703</ele>
        <time>2021-10-21T06:17:44.365Z</time>
      </trkpt>
      <trkpt lat="44.43825" lon="6.02495">
        <ele>584.20001220703</ele>
        <time>2021-10-21T06:17:45.270Z</time>
      </trkpt>
      <trkpt lat="44.4386" lon="6.02511">
        <ele>585.79998779297</ele>
        <time>2021-10-21T06:17:46.186Z</time>
      </trkpt>
      <trkpt lat="44.4387" lon="6.02514">
        <ele>585.79998779297</ele>
        <time>2021-10-21T06:17:47.106Z</time>
      </trkpt>
      <trkpt lat="44.43956" lon="6.02532">
        <ele>585.79998779297</ele>
        <time>2021-10-21T06:17:48.053Z</time>
      </trkpt>
      <trkpt lat="44.43987" lon="6.02537">
        <ele>587</ele>
        <time>2021-10-21T06:17:49.010Z</time>
      </trkpt>
      <trkpt lat="44.43997" lon="6.02538">
        <ele>587.20001220703</ele>
        <time>2021-10-21T06:17:49.970Z</time>
      </trkpt>
      <trkpt lat="44.4403" lon="6.02531">
        <ele>587.20001220703</ele>
        <time>2021-10-21T06:17:50.940Z</time>
      </trkpt>
      <trkpt lat="44.44205" lon="6.02531">
        <ele>587.20001220703</ele>
        <time>2021-10-21T06:17:51.965Z</time>
      </trkpt>
      <trkpt lat="44.44251" lon="6.02539">
        <ele>587.20001220703</ele>
        <time>2021-10-21T06:17:53.004Z</time>
      </trkpt>
      <trkpt lat="44.4426" lon="6.02544">
        <ele>591</ele>
        <time>2021-10-21T06:17:54.046Z</time>
      </trkpt>
      <trkpt lat="44.44271" lon="6.02557">
        <ele>591</ele>
        <time>2021-10-21T06:17:55.093Z</time>
      </trkpt>
      <trkpt lat="44.44272" lon="6.02562">
        <ele>591.59997558594</ele>
        <time>2021-10-21T06:17:56.141Z</time>
      </trkpt>
      <trkpt lat="44.4427" lon="6.02589">
        <ele>591.59997558594</ele>
        <time>2021-10-21T06:17:57.195Z</time>
      </trkpt>
      <trkpt lat="44.44265" lon="6.02611">
        <ele>591.59997558594</ele>
        <time>2021-10-21T06:17:58.254Z</time>
      </trkpt>
      <trkpt lat="44.44265" lon="6.02654">
        <ele>591.59997558594</ele>
        <time>2021-10-21T06:17:59.323Z</time>
      </trkpt>
      <trkpt lat="44.44254" lon="6.02694">
        <ele>591.59997558594</ele>
        <time>2021-10-21T06:18:00.401Z</time>
      </trkpt>
      <trkpt lat="44.44231" lon="6.02747">
        <ele>591.59997558594</ele>
        <time>2021-10-21T06:18:01.493Z</time>
      </trkpt>
      <trkpt lat="44.44236" lon="6.0278">
        <ele>591.40002441406</ele>
        <time>2021-10-21T06:18:02.593Z</time>
      </trkpt>
      <trkpt lat="44.44252" lon="6.02813">
        <ele>591.40002441406</ele>
        <time>2021-10-21T06:18:03.702Z</time>
      </trkpt>
      <trkpt lat="44.44268" lon="6.02842">
        <ele>591.40002441406</ele>
        <time>2021-10-21T06:18:04.819Z</time>
      </trkpt>
      <trkpt lat="44.4428" lon="6.02856">
        <ele>591.40002441406</ele>
        <time>2021-10-21T06:18:05.941Z</time>
      </trkpt>
      <trkpt lat="44.44291" lon="6.02862">
        <ele>591.20001220703</ele>
        <time>2021-10-21T06:18:07.067Z</time>
      </trkpt>
      <trkpt lat="44.44289" lon="6.0285">
        <ele>593.40002441406</ele>
        <time>2021-10-21T06:18:08.195Z</time>
      </trkpt>
      <trkpt lat="44.44263" lon="6.02819">
        <ele>593.40002441406</ele>
        <time>2021-10-21T06:18:09.334Z</time>
      </trkpt>
      <trkpt lat="44.44246" lon="6.02802">
        <ele>593.79998779297</ele>
        <time>2021-10-21T06:18:10.480Z</time>
      </trkpt>
      <trkpt lat="44.4424" lon="6.02782">
        <ele>593.79998779297</ele>
        <time>2021-10-21T06:18:11.630Z</time>
      </trkpt>
      <trkpt lat="44.44236" lon="6.02754">
        <ele>593.59997558594</ele>
        <time>2021-10-21T06:18:12.787Z</time>
      </trkpt>
      <trkpt lat="44.44245" lon="6.0273">
        <ele>593.59997558594</ele>
        <time>2021-10-21T06:18:13.950Z</time>
      </trkpt>
      <trkpt lat="44.44259" lon="6.027">
        <ele>593.59997558594</ele>
        <time>2021-10-21T06:18:15.121Z</time>
      </trkpt>
      <trkpt lat="44.44271" lon="6.02667">
        <ele>593.59997558594</ele>
        <time>2021-10-21T06:18:16.300Z</time>
      </trkpt>
      <trkpt lat="44.44298" lon="6.02628">
        <ele>593.59997558594</ele>
        <time>2021-10-21T06:18:17.491Z</time>
      </trkpt>
      <trkpt lat="44.4431" lon="6.02602">
        <ele>595</ele>
        <time>2021-10-21T06:18:18.689Z</time>
      </trkpt>
      <trkpt lat="44.44326" lon="6.02573">
        <ele>595</ele>
        <time>2021-10-21T06:18:19.895Z</time>
      </trkpt>
      <trkpt lat="44.44337" lon="6.02546">
        <ele>595</ele>
        <time>2021-10-21T06:18:21.108Z</time>
      </trkpt>
      <trkpt lat="44.44345" lon="6.02539">
        <ele>594.79998779297</ele>
        <time>2021-10-21T06:18:22.324Z</time>
      </trkpt>
      <trkpt lat="44.44359" lon="6.02523">
        <ele>594.79998779297</ele>
        <time>2021-10-21T06:18:23.546Z</time>
      </trkpt>
      <trkpt lat="44.44373" lon="6.02515">
        <ele>595.40002441406</ele>
        <time>2021-10-21T06:18:24.773Z</time>
      </trkpt>
      <trkpt lat="44.44427" lon="6.02496">
        <ele>595.40002441406</ele>
        <time>2021-10-21T06:18:26.017Z</time>
      </trkpt>
      <trkpt lat="44.4446" lon="6.0248">
        <ele>595.40002441406</ele>
        <time>2021-10-21T06:18:27.272Z</time>
      </trkpt>
      <trkpt lat="44.44483" lon="6.02459">
        <ele>597.59997558594</ele>
        <time>2021-10-21T06:18:28.536Z</time>
      </trkpt>
      <trkpt lat="44.44532" lon="6.02392">
        <ele>597.59997558594</ele>
        <time>2021-10-21T06:18:29.821Z</time>
      </trkpt>
      <trkpt lat="44.44554" lon="6.02369">
        <ele>597.59997558594</ele>
        <time>2021-10-21T06:18:31.115Z</time>
      </trkpt>
      <trkpt lat="44.44584" lon="6.02345">
        <ele>597.59997558594</ele>
        <time>2021-10-21T06:18:32.419Z</time>
      </trkpt>
      <trkpt lat="44.44625" lon="6.02327">
        <ele>597.59997558594</ele>
        <time>2021-10-21T06:18:33.737Z</time>
      </trkpt>
      <trkpt lat="44.44646" lon="6.02316">
        <ele>597.59997558594</ele>
        <time>2021-10-21T06:18:35.062Z</time>
      </trkpt>
      <trkpt lat="44.44666" lon="6.02302">
        <ele>601.79998779297</ele>
        <time>2021-10-21T06:18:36.394Z</time>
      </trkpt>
      <trkpt lat="44.44689" lon="6.02283">
        <ele>602.79998779297</ele>
        <time>2021-10-21T06:18:37.734Z</time>
      </trkpt>
      <trkpt lat="44.44779" lon="6.02187">
        <ele>602.79998779297</ele>
        <time>2021-10-21T06:18:39.110Z</time>
      </trkpt>
      <trkpt lat="44.44833" lon="6.02125">
        <ele>607.79998779297</ele>
        <time>2021-10-21T06:18:40.508Z</time>
      </trkpt>
      <trkpt lat="44.44845" lon="6.02117">
        <ele>607.79998779297</ele>
        <time>2021-10-21T06:18:41.910Z</time>
      </trkpt>
      <trkpt lat="44.44868" lon="6.02112">
        <ele>609</ele>
        <time>2021-10-21T06:18:43.319Z</time>
      </trkpt>
      <trkpt lat="44.44899" lon="6.0211">
        <ele>609</ele>
        <time>2021-10-21T06:18:44.738Z</time>
      </trkpt>
      <trkpt lat="44.44908" lon="6.02105">
        <ele>609</ele>
        <time>2021-10-21T06:18:46.160Z</time>
      </trkpt>
      <trkpt lat="44.44929" lon="6.02083">
        <ele>611.20001220703</ele>
        <time>2021-10-21T06:18:47.590Z</time>
      </trkpt>
      <trkpt lat="44.44939" lon="6.02055">
        <ele>611.20001220703</ele>
        <time>2021-10-21T06:18:49.027Z</time>
      </trkpt>
      <trkpt lat="44.4495" lon="6.02033">
        <ele>612.79998779297</ele>
        <time>2021-10-21T06:18:50.470Z</time>
      </trkpt>
      <trkpt lat="44.44968" lon="6.02021">
        <ele>612.79998779297</ele>
        <time>2021-10-21T06:18:51.919Z</time>
      </trkpt>
      <trkpt lat="44.44996" lon="6.02006">
        <ele>612.79998779297</ele>
        <time>2021-10-21T06:18:53.377Z</time>
      </trkpt>
      <trkpt lat="44.45017" lon="6.01992">
        <ele>615.59997558594</ele>
        <time>2021-10-21T06:18:54.843Z</time>
      </trkpt>
      <trkpt lat="44.4504" lon="6.01972">
        <ele>615.59997558594</ele>
        <time>2021-10-21T06:18:56.317Z</time>
      </trkpt>
      <trkpt lat="44.45063" lon="6.01946">
        <ele>617.79998779297</ele>
        <time>2021-10-21T06:18:57.800Z</time>
      </trkpt>
      <trkpt lat="44.45078" lon="6.01923">
        <ele>617.79998779297</ele>
        <time>2021-10-21T06:18:59.290Z</time>
      </trkpt>
      <trkpt lat="44.45084" lon="6.01912">
        <ele>619.40002441406</ele>
        <time>2021-10-21T06:19:00.783Z</time>
      </trkpt>
      <trkpt lat="44.45099" lon="6.01863">
        <ele>621.40002441406</ele>
        <time>2021-10-21T06:19:02.288Z</time>
      </trkpt>
      <trkpt lat="44.45102" lon="6.01846">
        <ele>621.40002441406</ele>
        <time>2021-10-21T06:19:03.797Z</time>
      </trkpt>
      <trkpt lat="44.45097" lon="6.01821">
        <ele>621.40002441406</ele>
        <time>2021-10-21T06:19:05.312Z</time>
      </trkpt>
      <trkpt lat="44.45093" lon="6.01743">
        <ele>626.20001220703</ele>
        <time>2021-10-21T06:19:06.845Z</time>
      </trkpt>
      <trkpt lat="44.45111" lon="6.01643">
        <ele>631.20001220703</ele>
        <time>2021-10-21T06:19:08.401Z</time>
      </trkpt>
      <trkpt lat="44.45124" lon="6.01621">
        <ele>631.20001220703</ele>
        <time>2021-10-21T06:19:09.963Z</time>
      </trkpt>
      <trkpt lat="44.45126" lon="6.01614">
        <ele>633.40002441406</ele>
        <time>2021-10-21T06:19:11.527Z</time>
      </trkpt>
      <trkpt lat="44.45126" lon="6.01602">
        <ele>633.40002441406</ele>
        <time>2021-10-21T06:19:13.093Z</time>
      </trkpt>
      <trkpt lat="44.45119" lon="6.01578">
        <ele>633.40002441406</ele>
        <time>2021-10-21T06:19:14.665Z</time>
      </trkpt>
      <trkpt lat="44.45117" lon="6.01558">
        <ele>637</ele>
        <time>2021-10-21T06:19:16.242Z</time>
      </trkpt>
      <trkpt lat="44.45119" lon="6.01534">
        <ele>637</ele>
        <time>2021-10-21T06:19:17.824Z</time>
      </trkpt>
      <trkpt lat="44.45117" lon="6.01514">
        <ele>642.20001220703</ele>
        <time>2021-10-21T06:19:19.411Z</time>
      </trkpt>
      <trkpt lat="44.45107" lon="6.0149">
        <ele>644.40002441406</ele>
        <time>2021-10-21T06:19:21.004Z</time>
      </trkpt>
      <trkpt lat="44.45103" lon="6.01469">
        <ele>645.59997558594</ele>
        <time>2021-10-21T06:19:22.602Z</time>
      </trkpt>
      <trkpt lat="44.451" lon="6.01423">
        <ele>650.20001220703</ele>
        <time>2021-10-21T06:19:24.210Z</time>
      </trkpt>
      <trkpt lat="44.45101" lon="6.01397">
        <ele>650.20001220703</ele>
        <time>2021-10-21T06:19:25.824Z</time>
      </trkpt>
      <trkpt lat="44.45099" lon="6.01383">
        <ele>650.20001220703</ele>
        <time>2021-10-21T06:19:27.441Z</time>
      </trkpt>
      <trkpt lat="44.45093" lon="6.01356">
        <ele>650.20001220703</ele>
        <time>2021-10-21T06:19:29.064Z</time>
      </trkpt>
      <trkpt lat="44.45088" lon="6.0135">
        <ele>650.20001220703</ele>
        <time>2021-10-21T06:19:30.690Z</time>
      </trkpt>
      <trkpt lat="44.45084" lon="6.01351">
        <ele>655</ele>
        <time>2021-10-21T06:19:32.317Z</time>
      </trkpt>
      <trkpt lat="44.45069" lon="6.01384">
        <ele>655</ele>
        <time>2021-10-21T06:19:33.952Z</time>
      </trkpt>
      <trkpt lat="44.45055" lon="6.01399">
        <ele>657.79998779297</ele>
        <time>2021-10-21T06:19:35.593Z</time>
      </trkpt>
      <trkpt lat="44.45043" lon="6.014">
        <ele>658.79998779297</ele>
        <time>2021-10-21T06:19:37.238Z</time>
      </trkpt>
      <trkpt lat="44.45038" lon="6.01398">
        <ele>658.79998779297</ele>
        <time>2021-10-21T06:19:38.884Z</time>
      </trkpt>
      <trkpt lat="44.45037" lon="6.01393">
        <ele>659.79998779297</ele>
        <time>2021-10-21T06:19:40.531Z</time>
      </trkpt>
      <trkpt lat="44.45047" lon="6.01374">
        <ele>661.59997558594</ele>
        <time>2021-10-21T06:19:42.184Z</time>
      </trkpt>
      <trkpt lat="44.45053" lon="6.01356">
        <ele>662.79998779297</ele>
        <time>2021-10-21T06:19:43.841Z</time>
      </trkpt>
      <trkpt lat="44.45053" lon="6.01353">
        <ele>662.79998779297</ele>
        <time>2021-10-21T06:19:45.499Z</time>
      </trkpt>
      <trkpt lat="44.4505" lon="6.01348">
        <ele>663.40002441406</ele>
        <time>2021-10-21T06:19:47.158Z</time>
      </trkpt>
      <trkpt lat="44.45047" lon="6.01348">
        <ele>663.40002441406</ele>
        <time>2021-10-21T06:19:48.818Z</time>
      </trkpt>
      <trkpt lat="44.45041" lon="6.0135">
        <ele>663.40002441406</ele>
        <time>2021-10-21T06:19:50.480Z</time>
      </trkpt>
      <trkpt lat="44.45035" lon="6.0135">
        <ele>665.20001220703</ele>
        <time>2021-10-21T06:19:52.144Z</time>
      </trkpt>
      <trkpt lat="44.45018" lon="6.01346">
        <ele>665.20001220703</ele>
        <time>2021-10-21T06:19:53.813Z</time>
      </trkpt>
      <trkpt lat="44.44996" lon="6.01343">
        <ele>665.20001220703</ele>
        <time>2021-10-21T06:19:55.489Z</time>
      </trkpt>
      <trkpt lat="44.44977" lon="6.01346">
        <ele>670.79998779297</ele>
        <time>2021-10-21T06:19:57.171Z</time>
      </trkpt>
      <trkpt lat="44.44974" lon="6.01343">
        <ele>670.79998779297</ele>
        <time>2021-10-21T06:19:58.855Z</time>
      </trkpt>
      <trkpt lat="44.44987" lon="6.01334">
        <ele>670.79998779297</ele>
        <time>2021-10-21T06:20:00.543Z</time>
      </trkpt>
      <trkpt lat="44.44993" lon="6.01326">
        <ele>673.40002441406</ele>
        <time>2021-10-21T06:20:02.234Z</time>
      </trkpt>
      <trkpt lat="44.45011" lon="6.013">
        <ele>676</ele>
        <time>2021-10-21T06:20:03.933Z</time>
      </trkpt>
      <trkpt lat="44.45017" lon="6.01285">
        <ele>677.20001220703</ele>
        <time>2021-10-21T06:20:05.635Z</time>
      </trkpt>
      <trkpt lat="44.45008" lon="6.01249">
        <ele>677.20001220703</ele>
        <time>2021-10-21T06:20:07.346Z</time>
      </trkpt>
      <trkpt lat="44.45009" lon="6.01217">
        <ele>677.20001220703</ele>
        <time>2021-10-21T06:20:09.064Z</time>
      </trkpt>
      <trkpt lat="44.45008" lon="6.01214">
        <ele>681.20001220703</ele>
        <time>2021-10-21T06:20:10.783Z</time>
      </trkpt>
      <trkpt lat="44.45005" lon="6.01214">
        <ele>681.20001220703</ele>
        <time>2021-10-21T06:20:12.503Z</time>
      </trkpt>
      <trkpt lat="44.45002" lon="6.01237">
        <ele>681.20001220703</ele>
        <time>2021-10-21T06:20:14.228Z</time>
      </trkpt>
      <trkpt lat="44.44998" lon="6.01241">
        <ele>684</ele>
        <time>2021-10-21T06:20:15.955Z</time>
      </trkpt>
      <trkpt lat="44.44991" lon="6.01243">
        <ele>684.59997558594</ele>
        <time>2021-10-21T06:20:17.684Z</time>
      </trkpt>
      <trkpt lat="44.44977" lon="6.01241">
        <ele>686</ele>
        <time>2021-10-21T06:20:19.418Z</time>
      </trkpt>
      <trkpt lat="44.44957" lon="6.01227">
        <ele>686</ele>
        <time>2021-10-21T06:20:21.159Z</time>
      </trkpt>
      <trkpt lat="44.44956" lon="6.01225">
        <ele>688.40002441406</ele>
        <time>2021-10-21T06:20:22.900Z</time>
      </trkpt>
      <trkpt lat="44.44961" lon="6.01219">
        <ele>689.59997558594</ele>
        <time>2021-10-21T06:20:24.643Z</time>
      </trkpt>
      <trkpt lat="44.44966" lon="6.01191">
        <ele>689.59997558594</ele>
        <time>2021-10-21T06:20:26.393Z</time>
      </trkpt>
      <trkpt lat="44.44966" lon="6.01175">
        <ele>692.79998779297</ele>
        <time>2021-10-21T06:20:28.146Z</time>
      </trkpt>
      <trkpt lat="44.44962" lon="6.01157">
        <ele>692.79998779297</ele>
        <time>2021-10-21T06:20:29.903Z</time>
      </trkpt>
      <trkpt lat="44.44967" lon="6.01151">
        <ele>693.59997558594</ele>
        <time>2021-10-21T06:20:31.663Z</time>
      </trkpt>
      <trkpt lat="44.44978" lon="6.01149">
        <ele>693.59997558594</ele>
        <time>2021-10-21T06:20:33.426Z</time>
      </trkpt>
      <trkpt lat="44.4498" lon="6.01147">
        <ele>694.40002441406</ele>
        <time>2021-10-21T06:20:35.190Z</time>
      </trkpt>
      <trkpt lat="44.44977" lon="6.0114">
        <ele>694.40002441406</ele>
        <time>2021-10-21T06:20:36.956Z</time>
      </trkpt>
      <trkpt lat="44.4495" lon="6.01129">
        <ele>698.59997558594</ele>
        <time>2021-10-21T06:20:38.730Z</time>
      </trkpt>
      <trkpt lat="44.44928" lon="6.0114">
        <ele>700.79998779297</ele>
        <time>2021-10-21T06:20:40.512Z</time>
      </trkpt>
      <trkpt lat="44.44922" lon="6.01145">
        <ele>701.59997558594</ele>
        <time>2021-10-21T06:20:42.296Z</time>
      </trkpt>
      <trkpt lat="44.44918" lon="6.01154">
        <ele>701.59997558594</ele>
        <time>2021-10-21T06:20:44.082Z</time>
      </trkpt>
      <trkpt lat="44.44913" lon="6.0117">
        <ele>702.79998779297</ele>
        <time>2021-10-21T06:20:45.872Z</time>
      </trkpt>
      <trkpt lat="44.44914" lon="6.01195">
        <ele>702.79998779297</ele>
        <time>2021-10-21T06:20:47.668Z</time>
      </trkpt>
      <trkpt lat="44.4491" lon="6.01214">
        <ele>705.20001220703</ele>
        <time>2021-10-21T06:20:49.468Z</time>
      </trkpt>
      <trkpt lat="44.44906" lon="6.01218">
        <ele>705.59997558594</ele>
        <time>2021-10-21T06:20:51.270Z</time>
      </trkpt>
      <trkpt lat="44.44904" lon="6.01214">
        <ele>705.59997558594</ele>
        <time>2021-10-21T06:20:53.073Z</time>
      </trkpt>
      <trkpt lat="44.44906" lon="6.01202">
        <ele>707.40002441406</ele>
        <time>2021-10-21T06:20:54.879Z</time>
      </trkpt>
      <trkpt lat="44.44905" lon="6.01199">
        <ele>707.40002441406</ele>
        <time>2021-10-21T06:20:56.685Z</time>
      </trkpt>
      <trkpt lat="44.44891" lon="6.01175">
        <ele>710</ele>
        <time>2021-10-21T06:20:58.498Z</time>
      </trkpt>
      <trkpt lat="44.44887" lon="6.01173">
        <ele>710.59997558594</ele>
        <time>2021-10-21T06:21:00.313Z</time>
      </trkpt>
      <trkpt lat="44.44885" lon="6.01187">
        <ele>712.59997558594</ele>
        <time>2021-10-21T06:21:02.131Z</time>
      </trkpt>
      <trkpt lat="44.44887" lon="6.01199">
        <ele>714.20001220703</ele>
        <time>2021-10-21T06:21:03.951Z</time>
      </trkpt>
      <trkpt lat="44.44887" lon="6.01206">
        <ele>714.20001220703</ele>
        <time>2021-10-21T06:21:05.773Z</time>
      </trkpt>
      <trkpt lat="44.44885" lon="6.01208">
        <ele>715.59997558594</ele>
        <time>2021-10-21T06:21:07.596Z</time>
      </trkpt>
      <trkpt lat="44.44872" lon="6.01203">
        <ele>715.59997558594</ele>
        <time>2021-10-21T06:21:09.423Z</time>
      </trkpt>
      <trkpt lat="44.44849" lon="6.01205">
        <ele>715.59997558594</ele>
        <time>2021-10-21T06:21:11.257Z</time>
      </trkpt>
      <trkpt lat="44.44818" lon="6.01204">
        <ele>722.79998779297</ele>
        <time>2021-10-21T06:21:13.101Z</time>
      </trkpt>
      <trkpt lat="44.4481" lon="6.01205">
        <ele>722.79998779297</ele>
        <time>2021-10-21T06:21:14.947Z</time>
      </trkpt>
      <trkpt lat="44.44769" lon="6.01226">
        <ele>722.79998779297</ele>
        <time>2021-10-21T06:21:16.807Z</time>
      </trkpt>
      <trkpt lat="44.44764" lon="6.01224">
        <ele>722.79998779297</ele>
        <time>2021-10-21T06:21:18.669Z</time>
      </trkpt>
      <trkpt lat="44.44765" lon="6.01221">
        <ele>728.40002441406</ele>
        <time>2021-10-21T06:21:20.531Z</time>
      </trkpt>
      <trkpt lat="44.44775" lon="6.01219">
        <ele>729.79998779297</ele>
        <time>2021-10-21T06:21:22.397Z</time>
      </trkpt>
      <trkpt lat="44.44781" lon="6.01216">
        <ele>729.79998779297</ele>
        <time>2021-10-21T06:21:24.265Z</time>
      </trkpt>
      <trkpt lat="44.44793" lon="6.01202">
        <ele>731.20001220703</ele>
        <time>2021-10-21T06:21:26.138Z</time>
      </trkpt>
      <trkpt lat="44.44814" lon="6.01193">
        <ele>731.20001220703</ele>
        <time>2021-10-21T06:21:28.017Z</time>
      </trkpt>
      <trkpt lat="44.44823" lon="6.01188">
        <ele>731.20001220703</ele>
        <time>2021-10-21T06:21:29.900Z</time>
      </trkpt>
      <trkpt lat="44.44829" lon="6.01186">
        <ele>734</ele>
        <time>2021-10-21T06:21:31.784Z</time>
      </trkpt>
      <trkpt lat="44.44832" lon="6.01181">
        <ele>734</ele>
        <time>2021-10-21T06:21:33.670Z</time>
      </trkpt>
      <trkpt lat="44.44832" lon="6.01178">
        <ele>734.79998779297</ele>
        <time>2021-10-21T06:21:35.557Z</time>
      </trkpt>
      <trkpt lat="44.44825" lon="6.01176">
        <ele>734.79998779297</ele>
        <time>2021-10-21T06:21:37.446Z</time>
      </trkpt>
      <trkpt lat="44.44812" lon="6.01178">
        <ele>738</ele>
        <time>2021-10-21T06:21:39.339Z</time>
      </trkpt>
      <trkpt lat="44.44789" lon="6.01179">
        <ele>740.20001220703</ele>
        <time>2021-10-21T06:21:41.239Z</time>
      </trkpt>
      <trkpt lat="44.44774" lon="6.01183">
        <ele>741.20001220703</ele>
        <time>2021-10-21T06:21:43.144Z</time>
      </trkpt>
      <trkpt lat="44.44757" lon="6.0118">
        <ele>741.20001220703</ele>
        <time>2021-10-21T06:21:45.054Z</time>
      </trkpt>
      <trkpt lat="44.44738" lon="6.01183">
        <ele>744.20001220703</ele>
        <time>2021-10-21T06:21:46.970Z</time>
      </trkpt>
      <trkpt lat="44.44697" lon="6.01184">
        <ele>748</ele>
        <time>2021-10-21T06:21:48.899Z</time>
      </trkpt>
      <trkpt lat="44.447" lon="6.01178">
        <ele>748</ele>
        <time>2021-10-21T06:21:50.830Z</time>
      </trkpt>
      <trkpt lat="44.44714" lon="6.01174">
        <ele>750.59997558594</ele>
        <time>2021-10-21T06:21:52.765Z</time>
      </trkpt>
      <trkpt lat="44.44718" lon="6.0117">
        <ele>750.59997558594</ele>
        <time>2021-10-21T06:21:54.702Z</time>
      </trkpt>
      <trkpt lat="44.44726" lon="6.01158">
        <ele>750.59997558594</ele>
        <time>2021-10-21T06:21:56.643Z</time>
      </trkpt>
      <trkpt lat="44.44743" lon="6.01137">
        <ele>750.59997558594</ele>
        <time>2021-10-21T06:21:58.591Z</time>
      </trkpt>
      <trkpt lat="44.44771" lon="6.01088">
        <ele>750.59997558594</ele>
        <time>2021-10-21T06:22:00.553Z</time>
      </trkpt>
      <trkpt lat="44.44792" lon="6.01069">
        <ele>759.79998779297</ele>
        <time>2021-10-21T06:22:02.522Z</time>
      </trkpt>
      <trkpt lat="44.44795" lon="6.01057">
        <ele>759.79998779297</ele>
        <time>2021-10-21T06:22:04.494Z</time>
      </trkpt>
      <trkpt lat="44.44793" lon="6.0104">
        <ele>759.79998779297</ele>
        <time>2021-10-21T06:22:06.470Z</time>
      </trkpt>
      <trkpt lat="44.44795" lon="6.01036">
        <ele>762</ele>
        <time>2021-10-21T06:22:08.447Z</time>
      </trkpt>
      <trkpt lat="44.44805" lon="6.01029">
        <ele>762</ele>
        <time>2021-10-21T06:22:10.428Z</time>
      </trkpt>
      <trkpt lat="44.44812" lon="6.0101">
        <ele>763.40002441406</ele>
        <time>2021-10-21T06:22:12.413Z</time>
      </trkpt>
      <trkpt lat="44.44816" lon="6.00977">
        <ele>763.40002441406</ele>
        <time>2021-10-21T06:22:14.406Z</time>
      </trkpt>
      <trkpt lat="44.44822" lon="6.00948">
        <ele>763.40002441406</ele>
        <time>2021-10-21T06:22:16.406Z</time>
      </trkpt>
      <trkpt lat="44.44818" lon="6.00927">
        <ele>769.40002441406</ele>
        <time>2021-10-21T06:22:18.411Z</time>
      </trkpt>
      <trkpt lat="44.44816" lon="6.00925">
        <ele>769.40002441406</ele>
        <time>2021-10-21T06:22:20.416Z</time>
      </trkpt>
      <trkpt lat="44.44812" lon="6.00928">
        <ele>771.20001220703</ele>
        <time>2021-10-21T06:22:22.423Z</time>
      </trkpt>
      <trkpt lat="44.44807" lon="6.00943">
        <ele>771.20001220703</ele>
        <time>2021-10-21T06:22:24.434Z</time>
      </trkpt>
      <trkpt lat="44.44797" lon="6.0095">
        <ele>774.40002441406</ele>
        <time>2021-10-21T06:22:26.448Z</time>
      </trkpt>
      <trkpt lat="44.44789" lon="6.00959">
        <ele>774.40002441406</ele>
        <time>2021-10-21T06:22:28.465Z</time>
      </trkpt>
      <trkpt lat="44.44773" lon="6.00974">
        <ele>777.40002441406</ele>
        <time>2021-10-21T06:22:30.489Z</time>
      </trkpt>
      <trkpt lat="44.4477" lon="6.00975">
        <ele>777.40002441406</ele>
        <time>2021-10-21T06:22:32.513Z</time>
      </trkpt>
      <trkpt lat="44.44748" lon="6.00974">
        <ele>777.40002441406</ele>
        <time>2021-10-21T06:22:34.544Z</time>
      </trkpt>
      <trkpt lat="44.44738" lon="6.00999">
        <ele>781</ele>
        <time>2021-10-21T06:22:36.582Z</time>
      </trkpt>
      <trkpt lat="44.44733" lon="6.01003">
        <ele>781</ele>
        <time>2021-10-21T06:22:38.621Z</time>
      </trkpt>
      <trkpt lat="44.44716" lon="6.01003">
        <ele>781</ele>
        <time>2021-10-21T06:22:40.666Z</time>
      </trkpt>
      <trkpt lat="44.44694" lon="6.01011">
        <ele>784.59997558594</ele>
        <time>2021-10-21T06:22:42.718Z</time>
      </trkpt>
      <trkpt lat="44.44685" lon="6.01011">
        <ele>784.59997558594</ele>
        <time>2021-10-21T06:22:44.773Z</time>
      </trkpt>
      <trkpt lat="44.44664" lon="6.0102">
        <ele>784.59997558594</ele>
        <time>2021-10-21T06:22:46.835Z</time>
      </trkpt>
      <trkpt lat="44.44644" lon="6.01022">
        <ele>789.40002441406</ele>
        <time>2021-10-21T06:22:48.903Z</time>
      </trkpt>
      <trkpt lat="44.44638" lon="6.01027">
        <ele>789.40002441406</ele>
        <time>2021-10-21T06:22:50.973Z</time>
      </trkpt>
      <trkpt lat="44.4463" lon="6.01036">
        <ele>789.40002441406</ele>
        <time>2021-10-21T06:22:53.046Z</time>
      </trkpt>
      <trkpt lat="44.44614" lon="6.01062">
        <ele>793.40002441406</ele>
        <time>2021-10-21T06:22:55.127Z</time>
      </trkpt>
      <trkpt lat="44.446" lon="6.01079">
        <ele>793.40002441406</ele>
        <time>2021-10-21T06:22:57.214Z</time>
      </trkpt>
      <trkpt lat="44.44579" lon="6.01096">
        <ele>793.40002441406</ele>
        <time>2021-10-21T06:22:59.308Z</time>
      </trkpt>
      <trkpt lat="44.44542" lon="6.01145">
        <ele>793.40002441406</ele>
        <time>2021-10-21T06:23:01.418Z</time>
      </trkpt>
      <trkpt lat="44.44535" lon="6.01149">
        <ele>801.79998779297</ele>
        <time>2021-10-21T06:23:03.530Z</time>
      </trkpt>
      <trkpt lat="44.44518" lon="6.01153">
        <ele>801.79998779297</ele>
        <time>2021-10-21T06:23:05.648Z</time>
      </trkpt>
      <trkpt lat="44.44504" lon="6.0115">
        <ele>801.79998779297</ele>
        <time>2021-10-21T06:23:07.770Z</time>
      </trkpt>
      <trkpt lat="44.44498" lon="6.01147">
        <ele>804.40002441406</ele>
        <time>2021-10-21T06:23:09.894Z</time>
      </trkpt>
      <trkpt lat="44.44494" lon="6.01143">
        <ele>804.40002441406</ele>
        <time>2021-10-21T06:23:12.020Z</time>
      </trkpt>
      <trkpt lat="44.44489" lon="6.01132">
        <ele>804.40002441406</ele>
        <time>2021-10-21T06:23:14.149Z</time>
      </trkpt>
      <trkpt lat="44.44483" lon="6.011">
        <ele>804.40002441406</ele>
        <time>2021-10-21T06:23:16.285Z</time>
      </trkpt>
      <trkpt lat="44.44476" lon="6.01084">
        <ele>810</ele>
        <time>2021-10-21T06:23:18.425Z</time>
      </trkpt>
      <trkpt lat="44.44459" lon="6.01062">
        <ele>810</ele>
        <time>2021-10-21T06:23:20.572Z</time>
      </trkpt>
      <trkpt lat="44.44436" lon="6.01036">
        <ele>810</ele>
        <time>2021-10-21T06:23:22.729Z</time>
      </trkpt>
      <trkpt lat="44.44429" lon="6.01026">
        <ele>815.79998779297</ele>
        <time>2021-10-21T06:23:24.889Z</time>
      </trkpt>
      <trkpt lat="44.4442" lon="6.01004">
        <ele>816.79998779297</ele>
        <time>2021-10-21T06:23:27.055Z</time>
      </trkpt>
      <trkpt lat="44.44413" lon="6.00985">
        <ele>816.79998779297</ele>
        <time>2021-10-21T06:23:29.225Z</time>
      </trkpt>
      <trkpt lat="44.44413" lon="6.00977">
        <ele>817.79998779297</ele>
        <time>2021-10-21T06:23:31.397Z</time>
      </trkpt>
      <trkpt lat="44.44416" lon="6.00963">
        <ele>817.79998779297</ele>
        <time>2021-10-21T06:23:33.572Z</time>
      </trkpt>
      <trkpt lat="44.44427" lon="6.00942">
        <ele>817.79998779297</ele>
        <time>2021-10-21T06:23:35.753Z</time>
      </trkpt>
      <trkpt lat="44.44437" lon="6.0093">
        <ele>817.79998779297</ele>
        <time>2021-10-21T06:23:37.938Z</time>
      </trkpt>
      <trkpt lat="44.44457" lon="6.0091">
        <ele>817.79998779297</ele>
        <time>2021-10-21T06:23:40.131Z</time>
      </trkpt>
      <trkpt lat="44.44469" lon="6.00894">
        <ele>825.79998779297</ele>
        <time>2021-10-21T06:23:42.329Z</time>
      </trkpt>
      <trkpt lat="44.44482" lon="6.00868">
        <ele>825.79998779297</ele>
        <time>2021-10-21T06:23:44.534Z</time>
      </trkpt>
      <trkpt lat="44.4449" lon="6.00847">
        <ele>826.40002441406</ele>
        <time>2021-10-21T06:23:46.745Z</time>
      </trkpt>
      <trkpt lat="44.44501" lon="6.00801">
        <ele>826.40002441406</ele>
        <time>2021-10-21T06:23:48.967Z</time>
      </trkpt>
      <trkpt lat="44.44513" lon="6.00785">
        <ele>826.40002441406</ele>
        <time>2021-10-21T06:23:51.194Z</time>
      </trkpt>
      <trkpt lat="44.44535" lon="6.00768">
        <ele>826.40002441406</ele>
        <time>2021-10-21T06:23:53.429Z</time>
      </trkpt>
      <trkpt lat="44.44571" lon="6.00748">
        <ele>839.20001220703</ele>
        <time>2021-10-21T06:23:55.676Z</time>
      </trkpt>
      <trkpt lat="44.44576" lon="6.00743">
        <ele>839.20001220703</ele>
        <time>2021-10-21T06:23:57.925Z</time>
      </trkpt>
      <trkpt lat="44.44579" lon="6.00727">
        <ele>842.79998779297</ele>
        <time>2021-10-21T06:24:00.177Z</time>
      </trkpt>
      <trkpt lat="44.44584" lon="6.00717">
        <ele>844.59997558594</ele>
        <time>2021-10-21T06:24:02.432Z</time>
      </trkpt>
      <trkpt lat="44.44596" lon="6.00711">
        <ele>844.59997558594</ele>
        <time>2021-10-21T06:24:04.691Z</time>
      </trkpt>
      <trkpt lat="44.4461" lon="6.00706">
        <ele>851.59997558594</ele>
        <time>2021-10-21T06:24:06.954Z</time>
      </trkpt>
      <trkpt lat="44.4463" lon="6.00701">
        <ele>851.59997558594</ele>
        <time>2021-10-21T06:24:09.224Z</time>
      </trkpt>
      <trkpt lat="44.44644" lon="6.00691">
        <ele>851.59997558594</ele>
        <time>2021-10-21T06:24:11.499Z</time>
      </trkpt>
      <trkpt lat="44.44664" lon="6.00687">
        <ele>851.59997558594</ele>
        <time>2021-10-21T06:24:13.780Z</time>
      </trkpt>
      <trkpt lat="44.4467" lon="6.00684">
        <ele>852.20001220703</ele>
        <time>2021-10-21T06:24:16.063Z</time>
      </trkpt>
      <trkpt lat="44.44686" lon="6.00667">
        <ele>851.40002441406</ele>
        <time>2021-10-21T06:24:18.353Z</time>
      </trkpt>
      <trkpt lat="44.44727" lon="6.00596">
        <ele>851.40002441406</ele>
        <time>2021-10-21T06:24:20.663Z</time>
      </trkpt>
      <trkpt lat="44.44732" lon="6.00583">
        <ele>855.79998779297</ele>
        <time>2021-10-21T06:24:22.976Z</time>
      </trkpt>
      <trkpt lat="44.4474" lon="6.00538">
        <ele>857.59997558594</ele>
        <time>2021-10-21T06:24:25.300Z</time>
      </trkpt>
      <trkpt lat="44.44751" lon="6.00517">
        <ele>857.59997558594</ele>
        <time>2021-10-21T06:24:27.629Z</time>
      </trkpt>
      <trkpt lat="44.44768" lon="6.00494">
        <ele>857.59997558594</ele>
        <time>2021-10-21T06:24:29.966Z</time>
      </trkpt>
      <trkpt lat="44.44779" lon="6.00469">
        <ele>861.79998779297</ele>
        <time>2021-10-21T06:24:32.309Z</time>
      </trkpt>
      <trkpt lat="44.4479" lon="6.00424">
        <ele>863.20001220703</ele>
        <time>2021-10-21T06:24:34.663Z</time>
      </trkpt>
      <trkpt lat="44.44794" lon="6.00387">
        <ele>864</ele>
        <time>2021-10-21T06:24:37.025Z</time>
      </trkpt>
      <trkpt lat="44.44798" lon="6.0037">
        <ele>864.59997558594</ele>
        <time>2021-10-21T06:24:39.391Z</time>
      </trkpt>
      <trkpt lat="44.44815" lon="6.00326">
        <ele>866.79998779297</ele>
        <time>2021-10-21T06:24:41.769Z</time>
      </trkpt>
      <trkpt lat="44.44818" lon="6.00309">
        <ele>868</ele>
        <time>2021-10-21T06:24:44.151Z</time>
      </trkpt>
      <trkpt lat="44.44825" lon="6.00296">
        <ele>868</ele>
        <time>2021-10-21T06:24:46.536Z</time>
      </trkpt>
      <trkpt lat="44.44834" lon="6.00288">
        <ele>868</ele>
        <time>2021-10-21T06:24:48.924Z</time>
      </trkpt>
      <trkpt lat="44.44836" lon="6.00281">
        <ele>871.79998779297</ele>
        <time>2021-10-21T06:24:51.314Z</time>
      </trkpt>
      <trkpt lat="44.44838" lon="6.00244">
        <ele>877.20001220703</ele>
        <time>2021-10-21T06:24:53.712Z</time>
      </trkpt>
      <trkpt lat="44.44849" lon="6.00215">
        <ele>880.59997558594</ele>
        <time>2021-10-21T06:24:56.118Z</time>
      </trkpt>
      <trkpt lat="44.44852" lon="6.002">
        <ele>882</ele>
        <time>2021-10-21T06:24:58.527Z</time>
      </trkpt>
      <trkpt lat="44.44857" lon="6.00185">
        <ele>883.59997558594</ele>
        <time>2021-10-21T06:25:00.940Z</time>
      </trkpt>
      <trkpt lat="44.44859" lon="6.00163">
        <ele>883.59997558594</ele>
        <time>2021-10-21T06:25:03.358Z</time>
      </trkpt>
      <trkpt lat="44.44862" lon="6.0015">
        <ele>883.59997558594</ele>
        <time>2021-10-21T06:25:05.779Z</time>
      </trkpt>
      <trkpt lat="44.44865" lon="6.00098">
        <ele>894.79998779297</ele>
        <time>2021-10-21T06:25:08.212Z</time>
      </trkpt>
      <trkpt lat="44.44864" lon="6.0007">
        <ele>894.79998779297</ele>
        <time>2021-10-21T06:25:10.651Z</time>
      </trkpt>
      <trkpt lat="44.44862" lon="6.00055">
        <ele>900.40002441406</ele>
        <time>2021-10-21T06:25:13.094Z</time>
      </trkpt>
      <trkpt lat="44.44858" lon="6.00041">
        <ele>903</ele>
        <time>2021-10-21T06:25:15.540Z</time>
      </trkpt>
      <trkpt lat="44.44848" lon="6.00016">
        <ele>903</ele>
        <time>2021-10-21T06:25:17.992Z</time>
      </trkpt>
      <trkpt lat="44.4484" lon="6.00001">
        <ele>907.59997558594</ele>
        <time>2021-10-21T06:25:20.448Z</time>
      </trkpt>
      <trkpt lat="44.44838" lon="5.99981">
        <ele>907.59997558594</ele>
        <time>2021-10-21T06:25:22.909Z</time>
      </trkpt>
      <trkpt lat="44.44841" lon="5.99959">
        <ele>907.59997558594</ele>
        <time>2021-10-21T06:25:25.375Z</time>
      </trkpt>
      <trkpt lat="44.4484" lon="5.99944">
        <ele>907.59997558594</ele>
        <time>2021-10-21T06:25:27.844Z</time>
      </trkpt>
      <trkpt lat="44.44831" lon="5.99925">
        <ele>912.79998779297</ele>
        <time>2021-10-21T06:25:30.318Z</time>
      </trkpt>
      <trkpt lat="44.44825" lon="5.99901">
        <ele>912.79998779297</ele>
        <time>2021-10-21T06:25:32.798Z</time>
      </trkpt>
      <trkpt lat="44.44825" lon="5.9989">
        <ele>912.79998779297</ele>
        <time>2021-10-21T06:25:35.281Z</time>
      </trkpt>
      <trkpt lat="44.44818" lon="5.9987">
        <ele>912.79998779297</ele>
        <time>2021-10-21T06:25:37.769Z</time>
      </trkpt>
      <trkpt lat="44.44815" lon="5.99848">
        <ele>912.79998779297</ele>
        <time>2021-10-21T06:25:40.262Z</time>
      </trkpt>
      <trkpt lat="44.44809" lon="5.99831">
        <ele>923.59997558594</ele>
        <time>2021-10-21T06:25:42.759Z</time>
      </trkpt>
      <trkpt lat="44.44808" lon="5.99793">
        <ele>927.79998779297</ele>
        <time>2021-10-21T06:25:45.264Z</time>
      </trkpt>
      <trkpt lat="44.44801" lon="5.99765">
        <ele>927.79998779297</ele>
        <time>2021-10-21T06:25:47.776Z</time>
      </trkpt>
      <trkpt lat="44.44802" lon="5.99752">
        <ele>934</ele>
        <time>2021-10-21T06:25:50.291Z</time>
      </trkpt>
      <trkpt lat="44.44801" lon="5.99728">
        <ele>934</ele>
        <time>2021-10-21T06:25:52.811Z</time>
      </trkpt>
      <trkpt lat="44.44813" lon="5.99688">
        <ele>934</ele>
        <time>2021-10-21T06:25:55.341Z</time>
      </trkpt>
      <trkpt lat="44.44798" lon="5.99647">
        <ele>934</ele>
        <time>2021-10-21T06:25:57.881Z</time>
      </trkpt>
      <trkpt lat="44.44794" lon="5.99627">
        <ele>951.40002441406</ele>
        <time>2021-10-21T06:26:00.426Z</time>
      </trkpt>
      <trkpt lat="44.44798" lon="5.99575">
        <ele>951</ele>
        <time>2021-10-21T06:26:02.983Z</time>
      </trkpt>
      <trkpt lat="44.44817" lon="5.99542">
        <ele>951</ele>
        <time>2021-10-21T06:26:05.549Z</time>
      </trkpt>
      <trkpt lat="44.44829" lon="5.99504">
        <ele>953.20001220703</ele>
        <time>2021-10-21T06:26:08.124Z</time>
      </trkpt>
      <trkpt lat="44.44829" lon="5.99478">
        <ele>958</ele>
        <time>2021-10-21T06:26:10.705Z</time>
      </trkpt>
      <trkpt lat="44.44834" lon="5.99439">
        <ele>958</ele>
        <time>2021-10-21T06:26:13.295Z</time>
      </trkpt>
      <trkpt lat="44.44831" lon="5.99427">
        <ele>964.59997558594</ele>
        <time>2021-10-21T06:26:15.888Z</time>
      </trkpt>
      <trkpt lat="44.44802" lon="5.9944">
        <ele>964.59997558594</ele>
        <time>2021-10-21T06:26:18.491Z</time>
      </trkpt>
      <trkpt lat="44.44788" lon="5.9945">
        <ele>976.20001220703</ele>
        <time>2021-10-21T06:26:21.098Z</time>
      </trkpt>
      <trkpt lat="44.44785" lon="5.99451">
        <ele>976.20001220703</ele>
        <time>2021-10-21T06:26:23.706Z</time>
      </trkpt>
      <trkpt lat="44.44783" lon="5.99448">
        <ele>978.20001220703</ele>
        <time>2021-10-21T06:26:26.315Z</time>
      </trkpt>
      <trkpt lat="44.44784" lon="5.99442">
        <ele>979.59997558594</ele>
        <time>2021-10-21T06:26:28.926Z</time>
      </trkpt>
      <trkpt lat="44.4478" lon="5.99424">
        <ele>979.59997558594</ele>
        <time>2021-10-21T06:26:31.541Z</time>
      </trkpt>
      <trkpt lat="44.4478" lon="5.99399">
        <ele>985.79998779297</ele>
        <time>2021-10-21T06:26:34.161Z</time>
      </trkpt>
      <trkpt lat="44.44776" lon="5.99359">
        <ele>985.79998779297</ele>
        <time>2021-10-21T06:26:36.791Z</time>
      </trkpt>
      <trkpt lat="44.44767" lon="5.9931">
        <ele>994.40002441406</ele>
        <time>2021-10-21T06:26:39.432Z</time>
      </trkpt>
      <trkpt lat="44.44759" lon="5.99279">
        <ele>994.40002441406</ele>
        <time>2021-10-21T06:26:42.080Z</time>
      </trkpt>
      <trkpt lat="44.44757" lon="5.99264">
        <ele>998</ele>
        <time>2021-10-21T06:26:44.732Z</time>
      </trkpt>
      <trkpt lat="44.44758" lon="5.99242">
        <ele>998</ele>
        <time>2021-10-21T06:26:47.389Z</time>
      </trkpt>
      <trkpt lat="44.44771" lon="5.99215">
        <ele>998</ele>
        <time>2021-10-21T06:26:50.053Z</time>
      </trkpt>
      <trkpt lat="44.44766" lon="5.99212">
        <ele>998</ele>
        <time>2021-10-21T06:26:52.718Z</time>
      </trkpt>
      <trkpt lat="44.44759" lon="5.9921">
        <ele>1000.5999755859</ele>
        <time>2021-10-21T06:26:55.386Z</time>
      </trkpt>
      <trkpt lat="44.44753" lon="5.99205">
        <ele>1000.5999755859</ele>
        <time>2021-10-21T06:26:58.056Z</time>
      </trkpt>
      <trkpt lat="44.44746" lon="5.99195">
        <ele>1000.799987793</ele>
        <time>2021-10-21T06:27:00.729Z</time>
      </trkpt>
      <trkpt lat="44.44743" lon="5.99186">
        <ele>1000.799987793</ele>
        <time>2021-10-21T06:27:03.404Z</time>
      </trkpt>
      <trkpt lat="44.44741" lon="5.99173">
        <ele>1001.200012207</ele>
        <time>2021-10-21T06:27:06.082Z</time>
      </trkpt>
      <trkpt lat="44.44746" lon="5.99128">
        <ele>1003.5999755859</ele>
        <time>2021-10-21T06:27:08.770Z</time>
      </trkpt>
      <trkpt lat="44.44748" lon="5.99126">
        <ele>1003.5999755859</ele>
        <time>2021-10-21T06:27:11.459Z</time>
      </trkpt>
      <trkpt lat="44.44759" lon="5.99127">
        <ele>1003.5999755859</ele>
        <time>2021-10-21T06:27:14.152Z</time>
      </trkpt>
      <trkpt lat="44.44779" lon="5.99133">
        <ele>1003.200012207</ele>
        <time>2021-10-21T06:27:16.851Z</time>
      </trkpt>
      <trkpt lat="44.44805" lon="5.99134">
        <ele>1003.200012207</ele>
        <time>2021-10-21T06:27:19.558Z</time>
      </trkpt>
      <trkpt lat="44.44828" lon="5.99125">
        <ele>1002</ele>
        <time>2021-10-21T06:27:22.273Z</time>
      </trkpt>
      <trkpt lat="44.44849" lon="5.99113">
        <ele>1002</ele>
        <time>2021-10-21T06:27:24.995Z</time>
      </trkpt>
      <trkpt lat="44.44872" lon="5.99105">
        <ele>1003.200012207</ele>
        <time>2021-10-21T06:27:27.724Z</time>
      </trkpt>
      <trkpt lat="44.4489" lon="5.99102">
        <ele>1003.200012207</ele>
        <time>2021-10-21T06:27:30.459Z</time>
      </trkpt>
      <trkpt lat="44.44915" lon="5.99104">
        <ele>1003.200012207</ele>
        <time>2021-10-21T06:27:33.202Z</time>
      </trkpt>
      <trkpt lat="44.44933" lon="5.991">
        <ele>1004.4000244141</ele>
        <time>2021-10-21T06:27:35.951Z</time>
      </trkpt>
      <trkpt lat="44.44951" lon="5.99088">
        <ele>1004.4000244141</ele>
        <time>2021-10-21T06:27:38.706Z</time>
      </trkpt>
      <trkpt lat="44.44962" lon="5.99069">
        <ele>1004</ele>
        <time>2021-10-21T06:27:41.466Z</time>
      </trkpt>
      <trkpt lat="44.44993" lon="5.9903">
        <ele>1004</ele>
        <time>2021-10-21T06:27:44.239Z</time>
      </trkpt>
      <trkpt lat="44.45009" lon="5.99019">
        <ele>1004</ele>
        <time>2021-10-21T06:27:47.018Z</time>
      </trkpt>
      <trkpt lat="44.45034" lon="5.99012">
        <ele>1004.200012207</ele>
        <time>2021-10-21T06:27:49.805Z</time>
      </trkpt>
      <trkpt lat="44.45053" lon="5.9901">
        <ele>1004.200012207</ele>
        <time>2021-10-21T06:27:52.598Z</time>
      </trkpt>
      <trkpt lat="44.45065" lon="5.99006">
        <ele>1003.200012207</ele>
        <time>2021-10-21T06:27:55.395Z</time>
      </trkpt>
      <trkpt lat="44.45104" lon="5.9896">
        <ele>1012.4000244141</ele>
        <time>2021-10-21T06:27:58.208Z</time>
      </trkpt>
      <trkpt lat="44.45115" lon="5.98943">
        <ele>1015.799987793</ele>
        <time>2021-10-21T06:28:01.026Z</time>
      </trkpt>
      <trkpt lat="44.45125" lon="5.98931">
        <ele>1015.799987793</ele>
        <time>2021-10-21T06:28:03.848Z</time>
      </trkpt>
      <trkpt lat="44.45131" lon="5.98921">
        <ele>1015.799987793</ele>
        <time>2021-10-21T06:28:06.673Z</time>
      </trkpt>
      <trkpt lat="44.45132" lon="5.98908">
        <ele>1015.799987793</ele>
        <time>2021-10-21T06:28:09.501Z</time>
      </trkpt>
      <trkpt lat="44.45135" lon="5.98894">
        <ele>1025.5999755859</ele>
        <time>2021-10-21T06:28:12.332Z</time>
      </trkpt>
      <trkpt lat="44.45132" lon="5.98875">
        <ele>1028</ele>
        <time>2021-10-21T06:28:15.167Z</time>
      </trkpt>
      <trkpt lat="44.45134" lon="5.98865">
        <ele>1029</ele>
        <time>2021-10-21T06:28:18.005Z</time>
      </trkpt>
      <trkpt lat="44.45136" lon="5.98846">
        <ele>1029</ele>
        <time>2021-10-21T06:28:20.847Z</time>
      </trkpt>
      <trkpt lat="44.45132" lon="5.98825">
        <ele>1029</ele>
        <time>2021-10-21T06:28:23.694Z</time>
      </trkpt>
      <trkpt lat="44.45126" lon="5.98803">
        <ele>1033.4000244141</ele>
        <time>2021-10-21T06:28:26.546Z</time>
      </trkpt>
      <trkpt lat="44.45122" lon="5.98759">
        <ele>1033.4000244141</ele>
        <time>2021-10-21T06:28:29.408Z</time>
      </trkpt>
      <trkpt lat="44.45116" lon="5.98729">
        <ele>1038.8000488281</ele>
        <time>2021-10-21T06:28:32.277Z</time>
      </trkpt>
      <trkpt lat="44.45102" lon="5.98682">
        <ele>1041.5999755859</ele>
        <time>2021-10-21T06:28:35.158Z</time>
      </trkpt>
      <trkpt lat="44.45099" lon="5.98665">
        <ele>1041.5999755859</ele>
        <time>2021-10-21T06:28:38.042Z</time>
      </trkpt>
      <trkpt lat="44.45108" lon="5.98612">
        <ele>1045.8000488281</ele>
        <time>2021-10-21T06:28:40.939Z</time>
      </trkpt>
      <trkpt lat="44.45111" lon="5.98583">
        <ele>1048</ele>
        <time>2021-10-21T06:28:43.842Z</time>
      </trkpt>
      <trkpt lat="44.45112" lon="5.98523">
        <ele>1050</ele>
        <time>2021-10-21T06:28:46.759Z</time>
      </trkpt>
      <trkpt lat="44.45117" lon="5.98501">
        <ele>1050</ele>
        <time>2021-10-21T06:28:49.681Z</time>
      </trkpt>
      <trkpt lat="44.45154" lon="5.98444">
        <ele>1050</ele>
        <time>2021-10-21T06:28:52.620Z</time>
      </trkpt>
      <trkpt lat="44.45165" lon="5.98422">
        <ele>1050</ele>
        <time>2021-10-21T06:28:55.565Z</time>
      </trkpt>
      <trkpt lat="44.45179" lon="5.98369">
        <ele>1049.1999511719</ele>
        <time>2021-10-21T06:28:58.523Z</time>
      </trkpt>
      <trkpt lat="44.45198" lon="5.98316">
        <ele>1049.1999511719</ele>
        <time>2021-10-21T06:29:01.494Z</time>
      </trkpt>
      <trkpt lat="44.452" lon="5.98295">
        <ele>1044.4000244141</ele>
        <time>2021-10-21T06:29:04.470Z</time>
      </trkpt>
      <trkpt lat="44.45194" lon="5.98258">
        <ele>1044.4000244141</ele>
        <time>2021-10-21T06:29:07.454Z</time>
      </trkpt>
      <trkpt lat="44.45193" lon="5.98229">
        <ele>1044.4000244141</ele>
        <time>2021-10-21T06:29:10.445Z</time>
      </trkpt>
      <trkpt lat="44.45194" lon="5.98203">
        <ele>1044.4000244141</ele>
        <time>2021-10-21T06:29:13.442Z</time>
      </trkpt>
      <trkpt lat="44.45198" lon="5.98183">
        <ele>1044.4000244141</ele>
        <time>2021-10-21T06:29:16.443Z</time>
      </trkpt>
      <trkpt lat="44.45215" lon="5.98145">
        <ele>1044.4000244141</ele>
        <time>2021-10-21T06:29:19.454Z</time>
      </trkpt>
      <trkpt lat="44.4522" lon="5.98114">
        <ele>1040.1999511719</ele>
        <time>2021-10-21T06:29:22.473Z</time>
      </trkpt>
      <trkpt lat="44.45222" lon="5.98075">
        <ele>1040.1999511719</ele>
        <time>2021-10-21T06:29:25.500Z</time>
      </trkpt>
      <trkpt lat="44.45233" lon="5.98024">
        <ele>1040.1999511719</ele>
        <time>2021-10-21T06:29:28.539Z</time>
      </trkpt>
      <trkpt lat="44.45238" lon="5.98015">
        <ele>1037.4000244141</ele>
        <time>2021-10-21T06:29:31.581Z</time>
      </trkpt>
      <trkpt lat="44.45242" lon="5.98012">
        <ele>1037.4000244141</ele>
        <time>2021-10-21T06:29:34.624Z</time>
      </trkpt>
      <trkpt lat="44.45334" lon="5.97959">
        <ele>1032.1999511719</ele>
        <time>2021-10-21T06:29:37.698Z</time>
      </trkpt>
      <trkpt lat="44.45343" lon="5.97951">
        <ele>1032.1999511719</ele>
        <time>2021-10-21T06:29:40.776Z</time>
      </trkpt>
      <trkpt lat="44.45363" lon="5.97928">
        <ele>1032.1999511719</ele>
        <time>2021-10-21T06:29:43.862Z</time>
      </trkpt>
      <trkpt lat="44.45374" lon="5.97918">
        <ele>1031.4000244141</ele>
        <time>2021-10-21T06:29:46.952Z</time>
      </trkpt>
      <trkpt lat="44.45382" lon="5.97915">
        <ele>1031.4000244141</ele>
        <time>2021-10-21T06:29:50.044Z</time>
      </trkpt>
      <trkpt lat="44.45408" lon="5.97911">
        <ele>1033.1999511719</ele>
        <time>2021-10-21T06:29:53.144Z</time>
      </trkpt>
      <trkpt lat="44.4543" lon="5.979">
        <ele>1034.1999511719</ele>
        <time>2021-10-21T06:29:56.252Z</time>
      </trkpt>
      <trkpt lat="44.45448" lon="5.97887">
        <ele>1034.1999511719</ele>
        <time>2021-10-21T06:29:59.366Z</time>
      </trkpt>
      <trkpt lat="44.45459" lon="5.97882">
        <ele>1035.4000244141</ele>
        <time>2021-10-21T06:30:02.484Z</time>
      </trkpt>
      <trkpt lat="44.45487" lon="5.97885">
        <ele>1035.4000244141</ele>
        <time>2021-10-21T06:30:05.611Z</time>
      </trkpt>
      <trkpt lat="44.45497" lon="5.97883">
        <ele>1034.1999511719</ele>
        <time>2021-10-21T06:30:08.740Z</time>
      </trkpt>
      <trkpt lat="44.45502" lon="5.97881">
        <ele>1034.1999511719</ele>
        <time>2021-10-21T06:30:11.871Z</time>
      </trkpt>
      <trkpt lat="44.45532" lon="5.97862">
        <ele>1034.1999511719</ele>
        <time>2021-10-21T06:30:15.012Z</time>
      </trkpt>
      <trkpt lat="44.45548" lon="5.97845">
        <ele>1034.1999511719</ele>
        <time>2021-10-21T06:30:18.160Z</time>
      </trkpt>
      <trkpt lat="44.45571" lon="5.97825">
        <ele>1025.8000488281</ele>
        <time>2021-10-21T06:30:21.316Z</time>
      </trkpt>
      <trkpt lat="44.45582" lon="5.9782">
        <ele>1025.8000488281</ele>
        <time>2021-10-21T06:30:24.476Z</time>
      </trkpt>
      <trkpt lat="44.45591" lon="5.97819">
        <ele>1025.8000488281</ele>
        <time>2021-10-21T06:30:27.639Z</time>
      </trkpt>
      <trkpt lat="44.45631" lon="5.97805">
        <ele>1025.8000488281</ele>
        <time>2021-10-21T06:30:30.815Z</time>
      </trkpt>
      <trkpt lat="44.45683" lon="5.97779">
        <ele>1018.200012207</ele>
        <time>2021-10-21T06:30:34.008Z</time>
      </trkpt>
      <trkpt lat="44.45692" lon="5.97774">
        <ele>1018.200012207</ele>
        <time>2021-10-21T06:30:37.204Z</time>
      </trkpt>
      <trkpt lat="44.45719" lon="5.9775">
        <ele>1018.200012207</ele>
        <time>2021-10-21T06:30:40.410Z</time>
      </trkpt>
      <trkpt lat="44.45742" lon="5.97707">
        <ele>1018.200012207</ele>
        <time>2021-10-21T06:30:43.628Z</time>
      </trkpt>
      <trkpt lat="44.45754" lon="5.9768">
        <ele>1022.799987793</ele>
        <time>2021-10-21T06:30:46.853Z</time>
      </trkpt>
      <trkpt lat="44.4576" lon="5.97651">
        <ele>1022.799987793</ele>
        <time>2021-10-21T06:30:50.085Z</time>
      </trkpt>
      <trkpt lat="44.45779" lon="5.97629">
        <ele>1025.4000244141</ele>
        <time>2021-10-21T06:30:53.324Z</time>
      </trkpt>
      <trkpt lat="44.45789" lon="5.97607">
        <ele>1026.8000488281</ele>
        <time>2021-10-21T06:30:56.569Z</time>
      </trkpt>
      <trkpt lat="44.45789" lon="5.97599">
        <ele>1026.8000488281</ele>
        <time>2021-10-21T06:30:59.816Z</time>
      </trkpt>
      <trkpt lat="44.45786" lon="5.97592">
        <ele>1028</ele>
        <time>2021-10-21T06:31:03.065Z</time>
      </trkpt>
      <trkpt lat="44.45772" lon="5.97572">
        <ele>1028</ele>
        <time>2021-10-21T06:31:06.320Z</time>
      </trkpt>
      <trkpt lat="44.45764" lon="5.97543">
        <ele>1026.8000488281</ele>
        <time>2021-10-21T06:31:09.582Z</time>
      </trkpt>
      <trkpt lat="44.45761" lon="5.97513">
        <ele>1026.8000488281</ele>
        <time>2021-10-21T06:31:12.851Z</time>
      </trkpt>
      <trkpt lat="44.45762" lon="5.97435">
        <ele>1026.4000244141</ele>
        <time>2021-10-21T06:31:16.137Z</time>
      </trkpt>
      <trkpt lat="44.4576" lon="5.97404">
        <ele>1026.4000244141</ele>
        <time>2021-10-21T06:31:19.430Z</time>
      </trkpt>
      <trkpt lat="44.45761" lon="5.97398">
        <ele>1024.5999755859</ele>
        <time>2021-10-21T06:31:22.725Z</time>
      </trkpt>
      <trkpt lat="44.45768" lon="5.9738">
        <ele>1024.5999755859</ele>
        <time>2021-10-21T06:31:26.024Z</time>
      </trkpt>
      <trkpt lat="44.45778" lon="5.97364">
        <ele>1025</ele>
        <time>2021-10-21T06:31:29.328Z</time>
      </trkpt>
      <trkpt lat="44.45801" lon="5.97335">
        <ele>1025</ele>
        <time>2021-10-21T06:31:32.642Z</time>
      </trkpt>
      <trkpt lat="44.45811" lon="5.97326">
        <ele>1028</ele>
        <time>2021-10-21T06:31:35.960Z</time>
      </trkpt>
      <trkpt lat="44.45833" lon="5.97291">
        <ele>1028.4000244141</ele>
        <time>2021-10-21T06:31:39.288Z</time>
      </trkpt>
      <trkpt lat="44.45864" lon="5.97254">
        <ele>1027.1999511719</ele>
        <time>2021-10-21T06:31:42.629Z</time>
      </trkpt>
      <trkpt lat="44.4589" lon="5.97214">
        <ele>1027.1999511719</ele>
        <time>2021-10-21T06:31:45.982Z</time>
      </trkpt>
      <trkpt lat="44.45926" lon="5.97155">
        <ele>1027.4000244141</ele>
        <time>2021-10-21T06:31:49.352Z</time>
      </trkpt>
      <trkpt lat="44.4594" lon="5.97137">
        <ele>1028.8000488281</ele>
        <time>2021-10-21T06:31:52.728Z</time>
      </trkpt>
      <trkpt lat="44.45956" lon="5.97097">
        <ele>1028.8000488281</ele>
        <time>2021-10-21T06:31:56.114Z</time>
      </trkpt>
      <trkpt lat="44.45988" lon="5.97048">
        <ele>1028.8000488281</ele>
        <time>2021-10-21T06:31:59.515Z</time>
      </trkpt>
      <trkpt lat="44.45994" lon="5.97035">
        <ele>1028.8000488281</ele>
        <time>2021-10-21T06:32:02.920Z</time>
      </trkpt>
      <trkpt lat="44.46009" lon="5.97014">
        <ele>1028.8000488281</ele>
        <time>2021-10-21T06:32:06.331Z</time>
      </trkpt>
      <trkpt lat="44.46018" lon="5.97007">
        <ele>1033.5999755859</ele>
        <time>2021-10-21T06:32:09.746Z</time>
      </trkpt>
      <trkpt lat="44.46032" lon="5.97003">
        <ele>1033.5999755859</ele>
        <time>2021-10-21T06:32:13.165Z</time>
      </trkpt>
      <trkpt lat="44.46049" lon="5.96989">
        <ele>1035.8000488281</ele>
        <time>2021-10-21T06:32:16.590Z</time>
      </trkpt>
      <trkpt lat="44.46083" lon="5.96937">
        <ele>1037.5999755859</ele>
        <time>2021-10-21T06:32:20.031Z</time>
      </trkpt>
      <trkpt lat="44.46125" lon="5.96856">
        <ele>1042.1999511719</ele>
        <time>2021-10-21T06:32:23.494Z</time>
      </trkpt>
      <trkpt lat="44.46131" lon="5.96852">
        <ele>1042.1999511719</ele>
        <time>2021-10-21T06:32:26.959Z</time>
      </trkpt>
      <trkpt lat="44.46141" lon="5.96851">
        <ele>1040</ele>
        <time>2021-10-21T06:32:30.428Z</time>
      </trkpt>
      <trkpt lat="44.46148" lon="5.96848">
        <ele>1040</ele>
        <time>2021-10-21T06:32:33.899Z</time>
      </trkpt>
      <trkpt lat="44.46164" lon="5.96829">
        <ele>1040</ele>
        <time>2021-10-21T06:32:37.376Z</time>
      </trkpt>
      <trkpt lat="44.46175" lon="5.96797">
        <ele>1040</ele>
        <time>2021-10-21T06:32:40.861Z</time>
      </trkpt>
      <trkpt lat="44.4618" lon="5.96785">
        <ele>1027.1999511719</ele>
        <time>2021-10-21T06:32:44.350Z</time>
      </trkpt>
      <trkpt lat="44.46212" lon="5.96763">
        <ele>1022</ele>
        <time>2021-10-21T06:32:47.850Z</time>
      </trkpt>
      <trkpt lat="44.46236" lon="5.96741">
        <ele>1017</ele>
        <time>2021-10-21T06:32:51.358Z</time>
      </trkpt>
      <trkpt lat="44.46271" lon="5.96726">
        <ele>1017</ele>
        <time>2021-10-21T06:32:54.878Z</time>
      </trkpt>
      <trkpt lat="44.46297" lon="5.96724">
        <ele>1008.200012207</ele>
        <time>2021-10-21T06:32:58.406Z</time>
      </trkpt>
      <trkpt lat="44.46334" lon="5.96729">
        <ele>1003.200012207</ele>
        <time>2021-10-21T06:33:01.946Z</time>
      </trkpt>
      <trkpt lat="44.46351" lon="5.9673">
        <ele>1000.5999755859</ele>
        <time>2021-10-21T06:33:05.491Z</time>
      </trkpt>
      <trkpt lat="44.46408" lon="5.96726">
        <ele>1000.5999755859</ele>
        <time>2021-10-21T06:33:09.054Z</time>
      </trkpt>
      <trkpt lat="44.4645" lon="5.96736">
        <ele>989.79998779297</ele>
        <time>2021-10-21T06:33:12.630Z</time>
      </trkpt>
      <trkpt lat="44.46452" lon="5.96735">
        <ele>989.79998779297</ele>
        <time>2021-10-21T06:33:16.207Z</time>
      </trkpt>
      <trkpt lat="44.46469" lon="5.96716">
        <ele>989.20001220703</ele>
        <time>2021-10-21T06:33:19.791Z</time>
      </trkpt>
      <trkpt lat="44.4648" lon="5.96698">
        <ele>989.20001220703</ele>
        <time>2021-10-21T06:33:23.380Z</time>
      </trkpt>
      <trkpt lat="44.46496" lon="5.96675">
        <ele>989.40002441406</ele>
        <time>2021-10-21T06:33:26.976Z</time>
      </trkpt>
      <trkpt lat="44.46519" lon="5.96661">
        <ele>989.59997558594</ele>
        <time>2021-10-21T06:33:30.580Z</time>
      </trkpt>
      <trkpt lat="44.46527" lon="5.96621">
        <ele>989.59997558594</ele>
        <time>2021-10-21T06:33:34.193Z</time>
      </trkpt>
      <trkpt lat="44.46538" lon="5.96599">
        <ele>993.20001220703</ele>
        <time>2021-10-21T06:33:37.812Z</time>
      </trkpt>
      <trkpt lat="44.46543" lon="5.96586">
        <ele>994.59997558594</ele>
        <time>2021-10-21T06:33:41.435Z</time>
      </trkpt>
      <trkpt lat="44.46554" lon="5.96533">
        <ele>994.59997558594</ele>
        <time>2021-10-21T06:33:45.070Z</time>
      </trkpt>
      <trkpt lat="44.46574" lon="5.96471">
        <ele>1006.799987793</ele>
        <time>2021-10-21T06:33:48.720Z</time>
      </trkpt>
      <trkpt lat="44.46584" lon="5.96457">
        <ele>1006.799987793</ele>
        <time>2021-10-21T06:33:52.375Z</time>
      </trkpt>
      <trkpt lat="44.46632" lon="5.96404">
        <ele>1006.799987793</ele>
        <time>2021-10-21T06:33:56.049Z</time>
      </trkpt>
      <trkpt lat="44.46649" lon="5.9638">
        <ele>1006.799987793</ele>
        <time>2021-10-21T06:33:59.730Z</time>
      </trkpt>
      <trkpt lat="44.46661" lon="5.96353">
        <ele>1006.799987793</ele>
        <time>2021-10-21T06:34:03.419Z</time>
      </trkpt>
      <trkpt lat="44.46671" lon="5.96326">
        <ele>1006.799987793</ele>
        <time>2021-10-21T06:34:07.114Z</time>
      </trkpt>
      <trkpt lat="44.46678" lon="5.96288">
        <ele>1006.799987793</ele>
        <time>2021-10-21T06:34:10.818Z</time>
      </trkpt>
      <trkpt lat="44.46701" lon="5.96257">
        <ele>1006.799987793</ele>
        <time>2021-10-21T06:34:14.532Z</time>
      </trkpt>
      <trkpt lat="44.46707" lon="5.96237">
        <ele>1036.4000244141</ele>
        <time>2021-10-21T06:34:18.251Z</time>
      </trkpt>
      <trkpt lat="44.4671" lon="5.96222">
        <ele>1038.4000244141</ele>
        <time>2021-10-21T06:34:21.973Z</time>
      </trkpt>
      <trkpt lat="44.46713" lon="5.96218">
        <ele>1038.4000244141</ele>
        <time>2021-10-21T06:34:25.697Z</time>
      </trkpt>
      <trkpt lat="44.46716" lon="5.96218">
        <ele>1039.4000244141</ele>
        <time>2021-10-21T06:34:29.421Z</time>
      </trkpt>
      <trkpt lat="44.46722" lon="5.96221">
        <ele>1039.4000244141</ele>
        <time>2021-10-21T06:34:33.148Z</time>
      </trkpt>
      <trkpt lat="44.46753" lon="5.96244">
        <ele>1047.8000488281</ele>
        <time>2021-10-21T06:34:36.886Z</time>
      </trkpt>
      <trkpt lat="44.46769" lon="5.96249">
        <ele>1050.1999511719</ele>
        <time>2021-10-21T06:34:40.629Z</time>
      </trkpt>
      <trkpt lat="44.46785" lon="5.96249">
        <ele>1053</ele>
        <time>2021-10-21T06:34:44.377Z</time>
      </trkpt>
      <trkpt lat="44.46831" lon="5.96237">
        <ele>1061</ele>
        <time>2021-10-21T06:34:48.139Z</time>
      </trkpt>
      <trkpt lat="44.46845" lon="5.96237">
        <ele>1061</ele>
        <time>2021-10-21T06:34:51.905Z</time>
      </trkpt>
      <trkpt lat="44.46857" lon="5.96239">
        <ele>1064.5999755859</ele>
        <time>2021-10-21T06:34:55.675Z</time>
      </trkpt>
      <trkpt lat="44.46905" lon="5.96254">
        <ele>1070.5999755859</ele>
        <time>2021-10-21T06:34:59.461Z</time>
      </trkpt>
      <trkpt lat="44.46941" lon="5.96269">
        <ele>1070.5999755859</ele>
        <time>2021-10-21T06:35:03.258Z</time>
      </trkpt>
      <trkpt lat="44.46954" lon="5.96273">
        <ele>1070.5999755859</ele>
        <time>2021-10-21T06:35:07.059Z</time>
      </trkpt>
      <trkpt lat="44.46984" lon="5.96264">
        <ele>1070.5999755859</ele>
        <time>2021-10-21T06:35:10.870Z</time>
      </trkpt>
      <trkpt lat="44.47026" lon="5.96256">
        <ele>1094.1999511719</ele>
        <time>2021-10-21T06:35:14.694Z</time>
      </trkpt>
      <trkpt lat="44.47039" lon="5.9625">
        <ele>1094.1999511719</ele>
        <time>2021-10-21T06:35:18.523Z</time>
      </trkpt>
      <trkpt lat="44.47058" lon="5.96233">
        <ele>1094.1999511719</ele>
        <time>2021-10-21T06:35:22.359Z</time>
      </trkpt>
      <trkpt lat="44.47104" lon="5.96168">
        <ele>1094.1999511719</ele>
        <time>2021-10-21T06:35:26.215Z</time>
      </trkpt>
      <trkpt lat="44.47152" lon="5.96132">
        <ele>1094.1999511719</ele>
        <time>2021-10-21T06:35:30.088Z</time>
      </trkpt>
      <trkpt lat="44.47171" lon="5.96122">
        <ele>1119</ele>
        <time>2021-10-21T06:35:33.968Z</time>
      </trkpt>
      <trkpt lat="44.47175" lon="5.96113">
        <ele>1119</ele>
        <time>2021-10-21T06:35:37.850Z</time>
      </trkpt>
      <trkpt lat="44.47174" lon="5.96107">
        <ele>1119</ele>
        <time>2021-10-21T06:35:41.733Z</time>
      </trkpt>
      <trkpt lat="44.47168" lon="5.961">
        <ele>1122.5999755859</ele>
        <time>2021-10-21T06:35:45.619Z</time>
      </trkpt>
      <trkpt lat="44.47121" lon="5.96074">
        <ele>1122.5999755859</ele>
        <time>2021-10-21T06:35:49.521Z</time>
      </trkpt>
      <trkpt lat="44.47112" lon="5.96071">
        <ele>1122.5999755859</ele>
        <time>2021-10-21T06:35:53.425Z</time>
      </trkpt>
      <trkpt lat="44.4709" lon="5.9607">
        <ele>1122.5999755859</ele>
        <time>2021-10-21T06:35:57.337Z</time>
      </trkpt>
      <trkpt lat="44.47082" lon="5.9607">
        <ele>1134.8000488281</ele>
        <time>2021-10-21T06:36:01.251Z</time>
      </trkpt>
      <trkpt lat="44.47062" lon="5.96077">
        <ele>1134.8000488281</ele>
        <time>2021-10-21T06:36:05.171Z</time>
      </trkpt>
      <trkpt lat="44.47046" lon="5.96079">
        <ele>1134.8000488281</ele>
        <time>2021-10-21T06:36:09.096Z</time>
      </trkpt>
      <trkpt lat="44.47032" lon="5.96076">
        <ele>1141.1999511719</ele>
        <time>2021-10-21T06:36:13.026Z</time>
      </trkpt>
      <trkpt lat="44.47031" lon="5.96072">
        <ele>1142</ele>
        <time>2021-10-21T06:36:16.957Z</time>
      </trkpt>
      <trkpt lat="44.47047" lon="5.96056">
        <ele>1143.5999755859</ele>
        <time>2021-10-21T06:36:20.894Z</time>
      </trkpt>
      <trkpt lat="44.47053" lon="5.96046">
        <ele>1144.8000488281</ele>
        <time>2021-10-21T06:36:24.834Z</time>
      </trkpt>
      <trkpt lat="44.47057" lon="5.96037">
        <ele>1144.8000488281</ele>
        <time>2021-10-21T06:36:28.776Z</time>
      </trkpt>
      <trkpt lat="44.47062" lon="5.96016">
        <ele>1144.8000488281</ele>
        <time>2021-10-21T06:36:32.723Z</time>
      </trkpt>
      <trkpt lat="44.47069" lon="5.96001">
        <ele>1150.4000244141</ele>
        <time>2021-10-21T06:36:36.674Z</time>
      </trkpt>
      <trkpt lat="44.47079" lon="5.95995">
        <ele>1150.4000244141</ele>
        <time>2021-10-21T06:36:40.629Z</time>
      </trkpt>
      <trkpt lat="44.47083" lon="5.95993">
        <ele>1153</ele>
        <time>2021-10-21T06:36:44.585Z</time>
      </trkpt>
      <trkpt lat="44.47136" lon="5.95993">
        <ele>1153</ele>
        <time>2021-10-21T06:36:48.557Z</time>
      </trkpt>
      <trkpt lat="44.47166" lon="5.95995">
        <ele>1153</ele>
        <time>2021-10-21T06:36:52.539Z</time>
      </trkpt>
      <trkpt lat="44.47204" lon="5.96011">
        <ele>1155</ele>
        <time>2021-10-21T06:36:56.533Z</time>
      </trkpt>
      <trkpt lat="44.47253" lon="5.9601">
        <ele>1154.8000488281</ele>
        <time>2021-10-21T06:37:00.543Z</time>
      </trkpt>
      <trkpt lat="44.47277" lon="5.96015">
        <ele>1152.4000244141</ele>
        <time>2021-10-21T06:37:04.560Z</time>
      </trkpt>
      <trkpt lat="44.47295" lon="5.96023">
        <ele>1151.4000244141</ele>
        <time>2021-10-21T06:37:08.583Z</time>
      </trkpt>
      <trkpt lat="44.47317" lon="5.96038">
        <ele>1150</ele>
        <time>2021-10-21T06:37:12.614Z</time>
      </trkpt>
      <trkpt lat="44.47359" lon="5.9605">
        <ele>1149</ele>
        <time>2021-10-21T06:37:16.658Z</time>
      </trkpt>
      <trkpt lat="44.47383" lon="5.96052">
        <ele>1148.4000244141</ele>
        <time>2021-10-21T06:37:20.709Z</time>
      </trkpt>
      <trkpt lat="44.47411" lon="5.96048">
        <ele>1148.4000244141</ele>
        <time>2021-10-21T06:37:24.769Z</time>
      </trkpt>
      <trkpt lat="44.47441" lon="5.96039">
        <ele>1148.4000244141</ele>
        <time>2021-10-21T06:37:28.839Z</time>
      </trkpt>
      <trkpt lat="44.47454" lon="5.96033">
        <ele>1148.4000244141</ele>
        <time>2021-10-21T06:37:32.913Z</time>
      </trkpt>
      <trkpt lat="44.47489" lon="5.96006">
        <ele>1148.4000244141</ele>
        <time>2021-10-21T06:37:37.000Z</time>
      </trkpt>
      <trkpt lat="44.47502" lon="5.95987">
        <ele>1143.8000488281</ele>
        <time>2021-10-21T06:37:41.093Z</time>
      </trkpt>
      <trkpt lat="44.47511" lon="5.9598">
        <ele>1143.8000488281</ele>
        <time>2021-10-21T06:37:45.189Z</time>
      </trkpt>
      <trkpt lat="44.47519" lon="5.95981">
        <ele>1143.8000488281</ele>
        <time>2021-10-21T06:37:49.287Z</time>
      </trkpt>
      <trkpt lat="44.47536" lon="5.96005">
        <ele>1139.8000488281</ele>
        <time>2021-10-21T06:37:53.393Z</time>
      </trkpt>
      <trkpt lat="44.47546" lon="5.96009">
        <ele>1138.5999755859</ele>
        <time>2021-10-21T06:37:57.502Z</time>
      </trkpt>
      <trkpt lat="44.47562" lon="5.96013">
        <ele>1137.1999511719</ele>
        <time>2021-10-21T06:38:01.616Z</time>
      </trkpt>
      <trkpt lat="44.47577" lon="5.96012">
        <ele>1135.5999755859</ele>
        <time>2021-10-21T06:38:05.735Z</time>
      </trkpt>
      <trkpt lat="44.47588" lon="5.96011">
        <ele>1135.5999755859</ele>
        <time>2021-10-21T06:38:09.857Z</time>
      </trkpt>
      <trkpt lat="44.47601" lon="5.96007">
        <ele>1132.1999511719</ele>
        <time>2021-10-21T06:38:13.983Z</time>
      </trkpt>
      <trkpt lat="44.47614" lon="5.95997">
        <ele>1130.1999511719</ele>
        <time>2021-10-21T06:38:18.114Z</time>
      </trkpt>
      <trkpt lat="44.47632" lon="5.95981">
        <ele>1130.1999511719</ele>
        <time>2021-10-21T06:38:22.252Z</time>
      </trkpt>
      <trkpt lat="44.47665" lon="5.95934">
        <ele>1130.1999511719</ele>
        <time>2021-10-21T06:38:26.404Z</time>
      </trkpt>
      <trkpt lat="44.47683" lon="5.95911">
        <ele>1130.1999511719</ele>
        <time>2021-10-21T06:38:30.564Z</time>
      </trkpt>
      <trkpt lat="44.47696" lon="5.959">
        <ele>1130.1999511719</ele>
        <time>2021-10-21T06:38:34.729Z</time>
      </trkpt>
      <trkpt lat="44.47747" lon="5.95865">
        <ele>1139</ele>
        <time>2021-10-21T06:38:38.912Z</time>
      </trkpt>
      <trkpt lat="44.47749" lon="5.95865">
        <ele>1139</ele>
        <time>2021-10-21T06:38:43.095Z</time>
      </trkpt>
      <trkpt lat="44.47755" lon="5.95871">
        <ele>1139</ele>
        <time>2021-10-21T06:38:47.280Z</time>
      </trkpt>
      <trkpt lat="44.47759" lon="5.95885">
        <ele>1137</ele>
        <time>2021-10-21T06:38:51.469Z</time>
      </trkpt>
      <trkpt lat="44.47767" lon="5.95895">
        <ele>1137</ele>
        <time>2021-10-21T06:38:55.661Z</time>
      </trkpt>
      <trkpt lat="44.4777" lon="5.95902">
        <ele>1133</ele>
        <time>2021-10-21T06:38:59.855Z</time>
      </trkpt>
      <trkpt lat="44.47784" lon="5.95962">
        <ele>1133</ele>
        <time>2021-10-21T06:39:04.063Z</time>
      </trkpt>
      <trkpt lat="44.47785" lon="5.95997">
        <ele>1133</ele>
        <time>2021-10-21T06:39:08.279Z</time>
      </trkpt>
      <trkpt lat="44.47787" lon="5.96005">
        <ele>1133</ele>
        <time>2021-10-21T06:39:12.497Z</time>
      </trkpt>
      <trkpt lat="44.47789" lon="5.96005">
        <ele>1116.5999755859</ele>
        <time>2021-10-21T06:39:16.716Z</time>
      </trkpt>
      <trkpt lat="44.47795" lon="5.95997">
        <ele>1114</ele>
        <time>2021-10-21T06:39:20.937Z</time>
      </trkpt>
      <trkpt lat="44.47809" lon="5.95968">
        <ele>1114</ele>
        <time>2021-10-21T06:39:25.166Z</time>
      </trkpt>
      <trkpt lat="44.47809" lon="5.95925">
        <ele>1114</ele>
        <time>2021-10-21T06:39:29.405Z</time>
      </trkpt>
      <trkpt lat="44.47816" lon="5.95925">
        <ele>1112.1999511719</ele>
        <time>2021-10-21T06:39:33.646Z</time>
      </trkpt>
      <trkpt lat="44.47838" lon="5.95934">
        <ele>1112.4000244141</ele>
        <time>2021-10-21T06:39:37.894Z</time>
      </trkpt>
      <trkpt lat="44.4784" lon="5.95934">
        <ele>1112.4000244141</ele>
        <time>2021-10-21T06:39:42.143Z</time>
      </trkpt>
      <trkpt lat="44.47856" lon="5.95887">
        <ele>1119.1999511719</ele>
        <time>2021-10-21T06:39:46.403Z</time>
      </trkpt>
      <trkpt lat="44.47866" lon="5.95867">
        <ele>1119.1999511719</ele>
        <time>2021-10-21T06:39:50.669Z</time>
      </trkpt>
      <trkpt lat="44.47871" lon="5.9586">
        <ele>1121.5999755859</ele>
        <time>2021-10-21T06:39:54.937Z</time>
      </trkpt>
      <trkpt lat="44.47876" lon="5.95855">
        <ele>1121.5999755859</ele>
        <time>2021-10-21T06:39:59.207Z</time>
      </trkpt>
      <trkpt lat="44.47912" lon="5.95843">
        <ele>1123.5999755859</ele>
        <time>2021-10-21T06:40:03.489Z</time>
      </trkpt>
      <trkpt lat="44.47938" lon="5.95829">
        <ele>1127.1999511719</ele>
        <time>2021-10-21T06:40:07.780Z</time>
      </trkpt>
      <trkpt lat="44.47946" lon="5.95824">
        <ele>1128.4000244141</ele>
        <time>2021-10-21T06:40:12.073Z</time>
      </trkpt>
      <trkpt lat="44.4795" lon="5.95819">
        <ele>1128.4000244141</ele>
        <time>2021-10-21T06:40:16.368Z</time>
      </trkpt>
      <trkpt lat="44.4795" lon="5.95815">
        <ele>1129.5999755859</ele>
        <time>2021-10-21T06:40:20.664Z</time>
      </trkpt>
      <trkpt lat="44.47921" lon="5.95803">
        <ele>1136.4000244141</ele>
        <time>2021-10-21T06:40:24.969Z</time>
      </trkpt>
      <trkpt lat="44.47917" lon="5.95799">
        <ele>1136.4000244141</ele>
        <time>2021-10-21T06:40:29.276Z</time>
      </trkpt>
      <trkpt lat="44.47917" lon="5.95781">
        <ele>1136.4000244141</ele>
        <time>2021-10-21T06:40:33.587Z</time>
      </trkpt>
      <trkpt lat="44.47915" lon="5.95772">
        <ele>1140.4000244141</ele>
        <time>2021-10-21T06:40:37.900Z</time>
      </trkpt>
      <trkpt lat="44.47911" lon="5.95762">
        <ele>1142</ele>
        <time>2021-10-21T06:40:42.215Z</time>
      </trkpt>
      <trkpt lat="44.47893" lon="5.95727">
        <ele>1142</ele>
        <time>2021-10-21T06:40:46.540Z</time>
      </trkpt>
      <trkpt lat="44.47886" lon="5.957">
        <ele>1147.5999755859</ele>
        <time>2021-10-21T06:40:50.871Z</time>
      </trkpt>
      <trkpt lat="44.47885" lon="5.95682">
        <ele>1147.5999755859</ele>
        <time>2021-10-21T06:40:55.206Z</time>
      </trkpt>
      <trkpt lat="44.47895" lon="5.95659">
        <ele>1150.8000488281</ele>
        <time>2021-10-21T06:40:59.547Z</time>
      </trkpt>
      <trkpt lat="44.47895" lon="5.95649">
        <ele>1151.4000244141</ele>
        <time>2021-10-21T06:41:03.891Z</time>
      </trkpt>
      <trkpt lat="44.47899" lon="5.95643">
        <ele>1152.5999755859</ele>
        <time>2021-10-21T06:41:08.236Z</time>
      </trkpt>
      <trkpt lat="44.47902" lon="5.95627">
        <ele>1154.8000488281</ele>
        <time>2021-10-21T06:41:12.585Z</time>
      </trkpt>
      <trkpt lat="44.47925" lon="5.95589">
        <ele>1161</ele>
        <time>2021-10-21T06:41:16.945Z</time>
      </trkpt>
      <trkpt lat="44.47957" lon="5.95525">
        <ele>1161</ele>
        <time>2021-10-21T06:41:21.323Z</time>
      </trkpt>
      <trkpt lat="44.47963" lon="5.95502">
        <ele>1172.4000244141</ele>
        <time>2021-10-21T06:41:25.706Z</time>
      </trkpt>
      <trkpt lat="44.47985" lon="5.95448">
        <ele>1174.4000244141</ele>
        <time>2021-10-21T06:41:30.103Z</time>
      </trkpt>
      <trkpt lat="44.47999" lon="5.95418">
        <ele>1177.4000244141</ele>
        <time>2021-10-21T06:41:34.508Z</time>
      </trkpt>
      <trkpt lat="44.48003" lon="5.95359">
        <ele>1185.5999755859</ele>
        <time>2021-10-21T06:41:38.926Z</time>
      </trkpt>
      <trkpt lat="44.48012" lon="5.95318">
        <ele>1189</ele>
        <time>2021-10-21T06:41:43.354Z</time>
      </trkpt>
      <trkpt lat="44.48015" lon="5.95284">
        <ele>1189</ele>
        <time>2021-10-21T06:41:47.790Z</time>
      </trkpt>
      <trkpt lat="44.48025" lon="5.95255">
        <ele>1196.4000244141</ele>
        <time>2021-10-21T06:41:52.233Z</time>
      </trkpt>
      <trkpt lat="44.48027" lon="5.9523">
        <ele>1197.4000244141</ele>
        <time>2021-10-21T06:41:56.681Z</time>
      </trkpt>
      <trkpt lat="44.48026" lon="5.9521">
        <ele>1199.8000488281</ele>
        <time>2021-10-21T06:42:01.134Z</time>
      </trkpt>
      <trkpt lat="44.48027" lon="5.9518">
        <ele>1203.4000244141</ele>
        <time>2021-10-21T06:42:05.594Z</time>
      </trkpt>
      <trkpt lat="44.48035" lon="5.95166">
        <ele>1204.4000244141</ele>
        <time>2021-10-21T06:42:10.058Z</time>
      </trkpt>
      <trkpt lat="44.48051" lon="5.9515">
        <ele>1206.4000244141</ele>
        <time>2021-10-21T06:42:14.528Z</time>
      </trkpt>
      <trkpt lat="44.48059" lon="5.95136">
        <ele>1206.4000244141</ele>
        <time>2021-10-21T06:42:19.002Z</time>
      </trkpt>
      <trkpt lat="44.48064" lon="5.95112">
        <ele>1206.4000244141</ele>
        <time>2021-10-21T06:42:23.482Z</time>
      </trkpt>
      <trkpt lat="44.48073" lon="5.95077">
        <ele>1206.4000244141</ele>
        <time>2021-10-21T06:42:27.970Z</time>
      </trkpt>
      <trkpt lat="44.48076" lon="5.95069">
        <ele>1216.8000488281</ele>
        <time>2021-10-21T06:42:32.460Z</time>
      </trkpt>
      <trkpt lat="44.48081" lon="5.95061">
        <ele>1216.8000488281</ele>
        <time>2021-10-21T06:42:36.952Z</time>
      </trkpt>
      <trkpt lat="44.48093" lon="5.95052">
        <ele>1216.8000488281</ele>
        <time>2021-10-21T06:42:41.449Z</time>
      </trkpt>
      <trkpt lat="44.48103" lon="5.95049">
        <ele>1221.4000244141</ele>
        <time>2021-10-21T06:42:45.949Z</time>
      </trkpt>
      <trkpt lat="44.48114" lon="5.95046">
        <ele>1221.4000244141</ele>
        <time>2021-10-21T06:42:50.452Z</time>
      </trkpt>
      <trkpt lat="44.48135" lon="5.95043">
        <ele>1222.1999511719</ele>
        <time>2021-10-21T06:42:54.962Z</time>
      </trkpt>
      <trkpt lat="44.48159" lon="5.95037">
        <ele>1222.1999511719</ele>
        <time>2021-10-21T06:42:59.480Z</time>
      </trkpt>
      <trkpt lat="44.48171" lon="5.95026">
        <ele>1222.1999511719</ele>
        <time>2021-10-21T06:43:04.002Z</time>
      </trkpt>
      <trkpt lat="44.48175" lon="5.95017">
        <ele>1224.1999511719</ele>
        <time>2021-10-21T06:43:08.526Z</time>
      </trkpt>
      <trkpt lat="44.48178" lon="5.94994">
        <ele>1224.5999755859</ele>
        <time>2021-10-21T06:43:13.056Z</time>
      </trkpt>
      <trkpt lat="44.48178" lon="5.94933">
        <ele>1224.4000244141</ele>
        <time>2021-10-21T06:43:17.599Z</time>
      </trkpt>
      <trkpt lat="44.48177" lon="5.9492">
        <ele>1224.4000244141</ele>
        <time>2021-10-21T06:43:22.145Z</time>
      </trkpt>
      <trkpt lat="44.48173" lon="5.94908">
        <ele>1226.5999755859</ele>
        <time>2021-10-21T06:43:26.694Z</time>
      </trkpt>
      <trkpt lat="44.48174" lon="5.94894">
        <ele>1226.5999755859</ele>
        <time>2021-10-21T06:43:31.246Z</time>
      </trkpt>
      <trkpt lat="44.48194" lon="5.94881">
        <ele>1228.5999755859</ele>
        <time>2021-10-21T06:43:35.805Z</time>
      </trkpt>
      <trkpt lat="44.48196" lon="5.94876">
        <ele>1228.5999755859</ele>
        <time>2021-10-21T06:43:40.365Z</time>
      </trkpt>
      <trkpt lat="44.48209" lon="5.94812">
        <ele>1231</ele>
        <time>2021-10-21T06:43:44.940Z</time>
      </trkpt>
      <trkpt lat="44.4821" lon="5.94809">
        <ele>1231</ele>
        <time>2021-10-21T06:43:49.516Z</time>
      </trkpt>
      <trkpt lat="44.48233" lon="5.94795">
        <ele>1231</ele>
        <time>2021-10-21T06:43:54.100Z</time>
      </trkpt>
      <trkpt lat="44.48261" lon="5.94771">
        <ele>1231</ele>
        <time>2021-10-21T06:43:58.694Z</time>
      </trkpt>
      <trkpt lat="44.48271" lon="5.94768">
        <ele>1231.5999755859</ele>
        <time>2021-10-21T06:44:03.291Z</time>
      </trkpt>
      <trkpt lat="44.4831" lon="5.94721">
        <ele>1231.5999755859</ele>
        <time>2021-10-21T06:44:07.904Z</time>
      </trkpt>
      <trkpt lat="44.48324" lon="5.947">
        <ele>1231.5999755859</ele>
        <time>2021-10-21T06:44:12.524Z</time>
      </trkpt>
      <trkpt lat="44.48341" lon="5.94681">
        <ele>1224.5999755859</ele>
        <time>2021-10-21T06:44:17.151Z</time>
      </trkpt>
      <trkpt lat="44.48358" lon="5.94669">
        <ele>1223.8000488281</ele>
        <time>2021-10-21T06:44:21.783Z</time>
      </trkpt>
      <trkpt lat="44.48361" lon="5.94669">
        <ele>1223.8000488281</ele>
        <time>2021-10-21T06:44:26.417Z</time>
      </trkpt>
      <trkpt lat="44.48365" lon="5.94679">
        <ele>1224.1999511719</ele>
        <time>2021-10-21T06:44:31.053Z</time>
      </trkpt>
      <trkpt lat="44.4836" lon="5.94709">
        <ele>1224.1999511719</ele>
        <time>2021-10-21T06:44:35.696Z</time>
      </trkpt>
      <trkpt lat="44.48364" lon="5.9471">
        <ele>1227.8000488281</ele>
        <time>2021-10-21T06:44:40.340Z</time>
      </trkpt>
      <trkpt lat="44.48374" lon="5.94702">
        <ele>1230.4000244141</ele>
        <time>2021-10-21T06:44:44.988Z</time>
      </trkpt>
      <trkpt lat="44.48382" lon="5.94698">
        <ele>1231.8000488281</ele>
        <time>2021-10-21T06:44:49.638Z</time>
      </trkpt>
      <trkpt lat="44.48414" lon="5.94699">
        <ele>1231.8000488281</ele>
        <time>2021-10-21T06:44:54.298Z</time>
      </trkpt>
      <trkpt lat="44.48421" lon="5.94696">
        <ele>1239.1999511719</ele>
        <time>2021-10-21T06:44:58.961Z</time>
      </trkpt>
      <trkpt lat="44.48438" lon="5.94657">
        <ele>1239.1999511719</ele>
        <time>2021-10-21T06:45:03.634Z</time>
      </trkpt>
      <trkpt lat="44.48444" lon="5.94648">
        <ele>1242.8000488281</ele>
        <time>2021-10-21T06:45:08.310Z</time>
      </trkpt>
      <trkpt lat="44.48456" lon="5.94636">
        <ele>1244</ele>
        <time>2021-10-21T06:45:12.990Z</time>
      </trkpt>
      <trkpt lat="44.48463" lon="5.94635">
        <ele>1245</ele>
        <time>2021-10-21T06:45:17.672Z</time>
      </trkpt>
      <trkpt lat="44.48467" lon="5.94627">
        <ele>1245</ele>
        <time>2021-10-21T06:45:22.357Z</time>
      </trkpt>
      <trkpt lat="44.48468" lon="5.94548">
        <ele>1245</ele>
        <time>2021-10-21T06:45:27.059Z</time>
      </trkpt>
      <trkpt lat="44.48473" lon="5.94517">
        <ele>1245</ele>
        <time>2021-10-21T06:45:31.768Z</time>
      </trkpt>
      <trkpt lat="44.48484" lon="5.94491">
        <ele>1251.1999511719</ele>
        <time>2021-10-21T06:45:36.484Z</time>
      </trkpt>
      <trkpt lat="44.485" lon="5.94467">
        <ele>1251.1999511719</ele>
        <time>2021-10-21T06:45:41.207Z</time>
      </trkpt>
      <trkpt lat="44.48507" lon="5.94452">
        <ele>1251.1999511719</ele>
        <time>2021-10-21T06:45:45.934Z</time>
      </trkpt>
      <trkpt lat="44.4852" lon="5.94412">
        <ele>1251.1999511719</ele>
        <time>2021-10-21T06:45:50.671Z</time>
      </trkpt>
      <trkpt lat="44.48542" lon="5.94326">
        <ele>1251.1999511719</ele>
        <time>2021-10-21T06:45:55.429Z</time>
      </trkpt>
      <trkpt lat="44.48547" lon="5.94308">
        <ele>1251.1999511719</ele>
        <time>2021-10-21T06:46:00.191Z</time>
      </trkpt>
      <trkpt lat="44.48566" lon="5.94258">
        <ele>1251.1999511719</ele>
        <time>2021-10-21T06:46:04.966Z</time>
      </trkpt>
      <trkpt lat="44.48592" lon="5.94201">
        <ele>1251.1999511719</ele>
        <time>2021-10-21T06:46:09.756Z</time>
      </trkpt>
      <trkpt lat="44.48626" lon="5.9412">
        <ele>1280.1999511719</ele>
        <time>2021-10-21T06:46:14.567Z</time>
      </trkpt>
      <trkpt lat="44.48637" lon="5.94088">
        <ele>1280.1999511719</ele>
        <time>2021-10-21T06:46:19.386Z</time>
      </trkpt>
      <trkpt lat="44.48638" lon="5.9408">
        <ele>1282.5999755859</ele>
        <time>2021-10-21T06:46:24.206Z</time>
      </trkpt>
      <trkpt lat="44.48637" lon="5.94065">
        <ele>1282.5999755859</ele>
        <time>2021-10-21T06:46:29.030Z</time>
      </trkpt>
      <trkpt lat="44.48623" lon="5.94048">
        <ele>1282.5999755859</ele>
        <time>2021-10-21T06:46:33.859Z</time>
      </trkpt>
      <trkpt lat="44.48579" lon="5.94024">
        <ele>1288</ele>
        <time>2021-10-21T06:46:38.703Z</time>
      </trkpt>
      <trkpt lat="44.48561" lon="5.94004">
        <ele>1290.4000244141</ele>
        <time>2021-10-21T06:46:43.554Z</time>
      </trkpt>
      <trkpt lat="44.48537" lon="5.93964">
        <ele>1290.4000244141</ele>
        <time>2021-10-21T06:46:48.417Z</time>
      </trkpt>
      <trkpt lat="44.48522" lon="5.93925">
        <ele>1294.8000488281</ele>
        <time>2021-10-21T06:46:53.290Z</time>
      </trkpt>
      <trkpt lat="44.48516" lon="5.93905">
        <ele>1296</ele>
        <time>2021-10-21T06:46:58.168Z</time>
      </trkpt>
      <trkpt lat="44.48506" lon="5.93889">
        <ele>1297</ele>
        <time>2021-10-21T06:47:03.051Z</time>
      </trkpt>
      <trkpt lat="44.48495" lon="5.93842">
        <ele>1300.1999511719</ele>
        <time>2021-10-21T06:47:07.945Z</time>
      </trkpt>
      <trkpt lat="44.48494" lon="5.93814">
        <ele>1301.5999755859</ele>
        <time>2021-10-21T06:47:12.845Z</time>
      </trkpt>
      <trkpt lat="44.48495" lon="5.93799">
        <ele>1301.5999755859</ele>
        <time>2021-10-21T06:47:17.748Z</time>
      </trkpt>
      <trkpt lat="44.48497" lon="5.93784">
        <ele>1303.8000488281</ele>
        <time>2021-10-21T06:47:22.655Z</time>
      </trkpt>
      <trkpt lat="44.48501" lon="5.9377">
        <ele>1303.8000488281</ele>
        <time>2021-10-21T06:47:27.565Z</time>
      </trkpt>
      <trkpt lat="44.48514" lon="5.93738">
        <ele>1303.8000488281</ele>
        <time>2021-10-21T06:47:32.483Z</time>
      </trkpt>
      <trkpt lat="44.48515" lon="5.93733">
        <ele>1307.5999755859</ele>
        <time>2021-10-21T06:47:37.403Z</time>
      </trkpt>
      <trkpt lat="44.48512" lon="5.93725">
        <ele>1308.4000244141</ele>
        <time>2021-10-21T06:47:42.325Z</time>
      </trkpt>
      <trkpt lat="44.48503" lon="5.9372">
        <ele>1309</ele>
        <time>2021-10-21T06:47:47.250Z</time>
      </trkpt>
      <trkpt lat="44.48494" lon="5.9371">
        <ele>1309</ele>
        <time>2021-10-21T06:47:52.178Z</time>
      </trkpt>
      <trkpt lat="44.48484" lon="5.93704">
        <ele>1309</ele>
        <time>2021-10-21T06:47:57.110Z</time>
      </trkpt>
      <trkpt lat="44.48471" lon="5.93706">
        <ele>1314</ele>
        <time>2021-10-21T06:48:02.046Z</time>
      </trkpt>
      <trkpt lat="44.48445" lon="5.93722">
        <ele>1317.8000488281</ele>
        <time>2021-10-21T06:48:06.991Z</time>
      </trkpt>
      <trkpt lat="44.48432" lon="5.93733">
        <ele>1319.8000488281</ele>
        <time>2021-10-21T06:48:11.940Z</time>
      </trkpt>
      <trkpt lat="44.48391" lon="5.93761">
        <ele>1326.4000244141</ele>
        <time>2021-10-21T06:48:16.904Z</time>
      </trkpt>
      <trkpt lat="44.48368" lon="5.93774">
        <ele>1326.4000244141</ele>
        <time>2021-10-21T06:48:21.875Z</time>
      </trkpt>
      <trkpt lat="44.48335" lon="5.93801">
        <ele>1326.4000244141</ele>
        <time>2021-10-21T06:48:26.858Z</time>
      </trkpt>
      <trkpt lat="44.48295" lon="5.9382">
        <ele>1340.5999755859</ele>
        <time>2021-10-21T06:48:31.855Z</time>
      </trkpt>
      <trkpt lat="44.48285" lon="5.93827">
        <ele>1342</ele>
        <time>2021-10-21T06:48:36.855Z</time>
      </trkpt>
      <trkpt lat="44.48257" lon="5.93859">
        <ele>1345.5999755859</ele>
        <time>2021-10-21T06:48:41.866Z</time>
      </trkpt>
      <trkpt lat="44.48242" lon="5.93872">
        <ele>1347.4000244141</ele>
        <time>2021-10-21T06:48:46.883Z</time>
      </trkpt>
      <trkpt lat="44.48234" lon="5.93876">
        <ele>1348.5999755859</ele>
        <time>2021-10-21T06:48:51.903Z</time>
      </trkpt>
      <trkpt lat="44.48227" lon="5.93893">
        <ele>1349.4000244141</ele>
        <time>2021-10-21T06:48:56.927Z</time>
      </trkpt>
      <trkpt lat="44.48216" lon="5.93911">
        <ele>1349.4000244141</ele>
        <time>2021-10-21T06:49:01.956Z</time>
      </trkpt>
      <trkpt lat="44.48194" lon="5.93935">
        <ele>1354.4000244141</ele>
        <time>2021-10-21T06:49:06.994Z</time>
      </trkpt>
      <trkpt lat="44.48155" lon="5.93988">
        <ele>1354.4000244141</ele>
        <time>2021-10-21T06:49:12.049Z</time>
      </trkpt>
      <trkpt lat="44.48141" lon="5.94001">
        <ele>1362</ele>
        <time>2021-10-21T06:49:17.109Z</time>
      </trkpt>
      <trkpt lat="44.48129" lon="5.94015">
        <ele>1362</ele>
        <time>2021-10-21T06:49:22.174Z</time>
      </trkpt>
      <trkpt lat="44.48082" lon="5.94089">
        <ele>1362</ele>
        <time>2021-10-21T06:49:27.261Z</time>
      </trkpt>
      <trkpt lat="44.48065" lon="5.94118">
        <ele>1375.5999755859</ele>
        <time>2021-10-21T06:49:32.357Z</time>
      </trkpt>
      <trkpt lat="44.48052" lon="5.9413">
        <ele>1377.1999511719</ele>
        <time>2021-10-21T06:49:37.457Z</time>
      </trkpt>
      <trkpt lat="44.47995" lon="5.94157">
        <ele>1383.8000488281</ele>
        <time>2021-10-21T06:49:42.576Z</time>
      </trkpt>
      <trkpt lat="44.47948" lon="5.94183">
        <ele>1389.5999755859</ele>
        <time>2021-10-21T06:49:47.711Z</time>
      </trkpt>
      <trkpt lat="44.47928" lon="5.94201">
        <ele>1392.4000244141</ele>
        <time>2021-10-21T06:49:52.854Z</time>
      </trkpt>
      <trkpt lat="44.47908" lon="5.94233">
        <ele>1392.4000244141</ele>
        <time>2021-10-21T06:49:58.006Z</time>
      </trkpt>
      <trkpt lat="44.47887" lon="5.94264">
        <ele>1392.4000244141</ele>
        <time>2021-10-21T06:50:03.168Z</time>
      </trkpt>
      <trkpt lat="44.47881" lon="5.94284">
        <ele>1392.4000244141</ele>
        <time>2021-10-21T06:50:08.335Z</time>
      </trkpt>
      <trkpt lat="44.47877" lon="5.9433">
        <ele>1392.4000244141</ele>
        <time>2021-10-21T06:50:13.512Z</time>
      </trkpt>
      <trkpt lat="44.47865" lon="5.94356">
        <ele>1407</ele>
        <time>2021-10-21T06:50:18.696Z</time>
      </trkpt>
      <trkpt lat="44.47856" lon="5.9437">
        <ele>1408.1999511719</ele>
        <time>2021-10-21T06:50:23.884Z</time>
      </trkpt>
      <trkpt lat="44.47843" lon="5.94379">
        <ele>1409.5999755859</ele>
        <time>2021-10-21T06:50:29.076Z</time>
      </trkpt>
      <trkpt lat="44.47801" lon="5.94393">
        <ele>1414.1999511719</ele>
        <time>2021-10-21T06:50:34.282Z</time>
      </trkpt>
      <trkpt lat="44.47787" lon="5.94392">
        <ele>1415.5999755859</ele>
        <time>2021-10-21T06:50:39.492Z</time>
      </trkpt>
      <trkpt lat="44.47734" lon="5.94383">
        <ele>1415.5999755859</ele>
        <time>2021-10-21T06:50:44.719Z</time>
      </trkpt>
      <trkpt lat="44.47719" lon="5.94387">
        <ele>1415.5999755859</ele>
        <time>2021-10-21T06:50:49.951Z</time>
      </trkpt>
      <trkpt lat="44.47694" lon="5.94401">
        <ele>1415.5999755859</ele>
        <time>2021-10-21T06:50:55.191Z</time>
      </trkpt>
      <trkpt lat="44.47648" lon="5.94437">
        <ele>1415.5999755859</ele>
        <time>2021-10-21T06:51:00.448Z</time>
      </trkpt>
      <trkpt lat="44.47623" lon="5.94459">
        <ele>1434.1999511719</ele>
        <time>2021-10-21T06:51:05.714Z</time>
      </trkpt>
      <trkpt lat="44.47611" lon="5.94466">
        <ele>1435.5999755859</ele>
        <time>2021-10-21T06:51:10.984Z</time>
      </trkpt>
      <trkpt lat="44.47591" lon="5.94476">
        <ele>1435.5999755859</ele>
        <time>2021-10-21T06:51:16.261Z</time>
      </trkpt>
      <trkpt lat="44.47555" lon="5.94499">
        <ele>1442.1999511719</ele>
        <time>2021-10-21T06:51:21.550Z</time>
      </trkpt>
      <trkpt lat="44.47505" lon="5.94547">
        <ele>1448.5999755859</ele>
        <time>2021-10-21T06:51:26.858Z</time>
      </trkpt>
      <trkpt lat="44.47476" lon="5.94583">
        <ele>1452.8000488281</ele>
        <time>2021-10-21T06:51:32.178Z</time>
      </trkpt>
      <trkpt lat="44.47454" lon="5.94601">
        <ele>1452.8000488281</ele>
        <time>2021-10-21T06:51:37.506Z</time>
      </trkpt>
      <trkpt lat="44.47437" lon="5.94618">
        <ele>1457.5999755859</ele>
        <time>2021-10-21T06:51:42.841Z</time>
      </trkpt>
      <trkpt lat="44.47412" lon="5.94639">
        <ele>1457.5999755859</ele>
        <time>2021-10-21T06:51:48.185Z</time>
      </trkpt>
      <trkpt lat="44.47403" lon="5.94649">
        <ele>1457.5999755859</ele>
        <time>2021-10-21T06:51:53.532Z</time>
      </trkpt>
      <trkpt lat="44.47394" lon="5.94656">
        <ele>1457.5999755859</ele>
        <time>2021-10-21T06:51:58.883Z</time>
      </trkpt>
      <trkpt lat="44.47378" lon="5.94659">
        <ele>1457.5999755859</ele>
        <time>2021-10-21T06:52:04.239Z</time>
      </trkpt>
      <trkpt lat="44.47388" lon="5.94637">
        <ele>1463.8000488281</ele>
        <time>2021-10-21T06:52:09.601Z</time>
      </trkpt>
      <trkpt lat="44.47396" lon="5.94624">
        <ele>1463.8000488281</ele>
        <time>2021-10-21T06:52:14.966Z</time>
      </trkpt>
      <trkpt lat="44.47406" lon="5.94614">
        <ele>1465.5999755859</ele>
        <time>2021-10-21T06:52:20.335Z</time>
      </trkpt>
      <trkpt lat="44.47413" lon="5.94602">
        <ele>1466.8000488281</ele>
        <time>2021-10-21T06:52:25.708Z</time>
      </trkpt>
      <trkpt lat="44.47438" lon="5.94545">
        <ele>1473</ele>
        <time>2021-10-21T06:52:31.096Z</time>
      </trkpt>
      <trkpt lat="44.47458" lon="5.94495">
        <ele>1473</ele>
        <time>2021-10-21T06:52:36.496Z</time>
      </trkpt>
      <trkpt lat="44.47472" lon="5.9445">
        <ele>1473</ele>
        <time>2021-10-21T06:52:41.907Z</time>
      </trkpt>
      <trkpt lat="44.4748" lon="5.94415">
        <ele>1486</ele>
        <time>2021-10-21T06:52:47.327Z</time>
      </trkpt>
      <trkpt lat="44.4749" lon="5.94392">
        <ele>1487.8000488281</ele>
        <time>2021-10-21T06:52:52.753Z</time>
      </trkpt>
      <trkpt lat="44.47502" lon="5.94367">
        <ele>1490.4000244141</ele>
        <time>2021-10-21T06:52:58.185Z</time>
      </trkpt>
      <trkpt lat="44.47516" lon="5.9435">
        <ele>1490.4000244141</ele>
        <time>2021-10-21T06:53:03.623Z</time>
      </trkpt>
      <trkpt lat="44.47555" lon="5.94314">
        <ele>1496.1999511719</ele>
        <time>2021-10-21T06:53:09.076Z</time>
      </trkpt>
      <trkpt lat="44.47566" lon="5.94299">
        <ele>1498</ele>
        <time>2021-10-21T06:53:14.534Z</time>
      </trkpt>
      <trkpt lat="44.47598" lon="5.9424">
        <ele>1503.8000488281</ele>
        <time>2021-10-21T06:53:20.008Z</time>
      </trkpt>
      <trkpt lat="44.47611" lon="5.942">
        <ele>1503.8000488281</ele>
        <time>2021-10-21T06:53:25.492Z</time>
      </trkpt>
      <trkpt lat="44.4762" lon="5.94164">
        <ele>1510.5999755859</ele>
        <time>2021-10-21T06:53:30.985Z</time>
      </trkpt>
      <trkpt lat="44.47625" lon="5.94151">
        <ele>1511.8000488281</ele>
        <time>2021-10-21T06:53:36.481Z</time>
      </trkpt>
      <trkpt lat="44.47631" lon="5.94142">
        <ele>1512.8000488281</ele>
        <time>2021-10-21T06:53:41.980Z</time>
      </trkpt>
      <trkpt lat="44.47671" lon="5.9409">
        <ele>1518.4000244141</ele>
        <time>2021-10-21T06:53:47.496Z</time>
      </trkpt>
      <trkpt lat="44.47687" lon="5.94061">
        <ele>1518.4000244141</ele>
        <time>2021-10-21T06:53:53.020Z</time>
      </trkpt>
      <trkpt lat="44.47691" lon="5.9405">
        <ele>1522.5999755859</ele>
        <time>2021-10-21T06:53:58.547Z</time>
      </trkpt>
      <trkpt lat="44.47694" lon="5.94039">
        <ele>1522.5999755859</ele>
        <time>2021-10-21T06:54:04.076Z</time>
      </trkpt>
      <trkpt lat="44.47696" lon="5.9398">
        <ele>1529.1999511719</ele>
        <time>2021-10-21T06:54:09.619Z</time>
      </trkpt>
      <trkpt lat="44.47703" lon="5.93954">
        <ele>1531.4000244141</ele>
        <time>2021-10-21T06:54:15.168Z</time>
      </trkpt>
      <trkpt lat="44.47705" lon="5.93911">
        <ele>1534.5999755859</ele>
        <time>2021-10-21T06:54:20.726Z</time>
      </trkpt>
      <trkpt lat="44.47709" lon="5.93882">
        <ele>1534.5999755859</ele>
        <time>2021-10-21T06:54:26.291Z</time>
      </trkpt>
      <trkpt lat="44.47715" lon="5.93869">
        <ele>1534.5999755859</ele>
        <time>2021-10-21T06:54:31.859Z</time>
      </trkpt>
      <trkpt lat="44.47734" lon="5.93848">
        <ele>1534.5999755859</ele>
        <time>2021-10-21T06:54:37.435Z</time>
      </trkpt>
      <trkpt lat="44.47749" lon="5.93807">
        <ele>1545.1999511719</ele>
        <time>2021-10-21T06:54:43.021Z</time>
      </trkpt>
      <trkpt lat="44.47752" lon="5.9379">
        <ele>1546.4000244141</ele>
        <time>2021-10-21T06:54:48.611Z</time>
      </trkpt>
      <trkpt lat="44.47747" lon="5.93759">
        <ele>1549</ele>
        <time>2021-10-21T06:54:54.208Z</time>
      </trkpt>
      <trkpt lat="44.4775" lon="5.93711">
        <ele>1549</ele>
        <time>2021-10-21T06:54:59.816Z</time>
      </trkpt>
      <trkpt lat="44.47761" lon="5.93677">
        <ele>1549</ele>
        <time>2021-10-21T06:55:05.432Z</time>
      </trkpt>
      <trkpt lat="44.47776" lon="5.93637">
        <ele>1549</ele>
        <time>2021-10-21T06:55:11.058Z</time>
      </trkpt>
      <trkpt lat="44.47778" lon="5.9361">
        <ele>1549</ele>
        <time>2021-10-21T06:55:16.691Z</time>
      </trkpt>
      <trkpt lat="44.47765" lon="5.93556">
        <ele>1559.1999511719</ele>
        <time>2021-10-21T06:55:22.336Z</time>
      </trkpt>
      <trkpt lat="44.47765" lon="5.93541">
        <ele>1560.4000244141</ele>
        <time>2021-10-21T06:55:27.985Z</time>
      </trkpt>
      <trkpt lat="44.47768" lon="5.93519">
        <ele>1562.4000244141</ele>
        <time>2021-10-21T06:55:33.639Z</time>
      </trkpt>
      <trkpt lat="44.4779" lon="5.93464">
        <ele>1567</ele>
        <time>2021-10-21T06:55:39.307Z</time>
      </trkpt>
      <trkpt lat="44.47789" lon="5.93452">
        <ele>1567</ele>
        <time>2021-10-21T06:55:44.977Z</time>
      </trkpt>
      <trkpt lat="44.47788" lon="5.93449">
        <ele>1568.4000244141</ele>
        <time>2021-10-21T06:55:50.648Z</time>
      </trkpt>
      <trkpt lat="44.47782" lon="5.93448">
        <ele>1568.4000244141</ele>
        <time>2021-10-21T06:55:56.321Z</time>
      </trkpt>
      <trkpt lat="44.47766" lon="5.93448">
        <ele>1568.4000244141</ele>
        <time>2021-10-21T06:56:01.999Z</time>
      </trkpt>
      <trkpt lat="44.47755" lon="5.93455">
        <ele>1568.4000244141</ele>
        <time>2021-10-21T06:56:07.681Z</time>
      </trkpt>
      <trkpt lat="44.47751" lon="5.93454">
        <ele>1572.4000244141</ele>
        <time>2021-10-21T06:56:13.364Z</time>
      </trkpt>
      <trkpt lat="44.47745" lon="5.93448">
        <ele>1572.4000244141</ele>
        <time>2021-10-21T06:56:19.049Z</time>
      </trkpt>
      <trkpt lat="44.47738" lon="5.93435">
        <ele>1572.4000244141</ele>
        <time>2021-10-21T06:56:24.738Z</time>
      </trkpt>
      <trkpt lat="44.47736" lon="5.93431">
        <ele>1576.4000244141</ele>
        <time>2021-10-21T06:56:30.428Z</time>
      </trkpt>
      <trkpt lat="44.4773" lon="5.93429">
        <ele>1576.4000244141</ele>
        <time>2021-10-21T06:56:36.120Z</time>
      </trkpt>
      <trkpt lat="44.47684" lon="5.93447">
        <ele>1576.4000244141</ele>
        <time>2021-10-21T06:56:41.827Z</time>
      </trkpt>
      <trkpt lat="44.47633" lon="5.93458">
        <ele>1568.1999511719</ele>
        <time>2021-10-21T06:56:47.550Z</time>
      </trkpt>
      <trkpt lat="44.47597" lon="5.9346">
        <ele>1565.5999755859</ele>
        <time>2021-10-21T06:56:53.284Z</time>
      </trkpt>
      <trkpt lat="44.47572" lon="5.93463">
        <ele>1565.5999755859</ele>
        <time>2021-10-21T06:56:59.026Z</time>
      </trkpt>
      <trkpt lat="44.47529" lon="5.93458">
        <ele>1564</ele>
        <time>2021-10-21T06:57:04.782Z</time>
      </trkpt>
      <trkpt lat="44.47519" lon="5.9345">
        <ele>1564</ele>
        <time>2021-10-21T06:57:10.541Z</time>
      </trkpt>
      <trkpt lat="44.47513" lon="5.9344">
        <ele>1558.5999755859</ele>
        <time>2021-10-21T06:57:16.303Z</time>
      </trkpt>
      <trkpt lat="44.47509" lon="5.93429">
        <ele>1558.5999755859</ele>
        <time>2021-10-21T06:57:22.068Z</time>
      </trkpt>
      <trkpt lat="44.47507" lon="5.93413">
        <ele>1558.5999755859</ele>
        <time>2021-10-21T06:57:27.837Z</time>
      </trkpt>
      <trkpt lat="44.47508" lon="5.93405">
        <ele>1555.1999511719</ele>
        <time>2021-10-21T06:57:33.607Z</time>
      </trkpt>
      <trkpt lat="44.47513" lon="5.9339">
        <ele>1553.4000244141</ele>
        <time>2021-10-21T06:57:39.381Z</time>
      </trkpt>
      <trkpt lat="44.4752" lon="5.93385">
        <ele>1551.4000244141</ele>
        <time>2021-10-21T06:57:45.158Z</time>
      </trkpt>
      <trkpt lat="44.47533" lon="5.93378">
        <ele>1551.4000244141</ele>
        <time>2021-10-21T06:57:50.939Z</time>
      </trkpt>
      <trkpt lat="44.47532" lon="5.93375">
        <ele>1546.5999755859</ele>
        <time>2021-10-21T06:57:56.721Z</time>
      </trkpt>
      <trkpt lat="44.47524" lon="5.93369">
        <ele>1546.5999755859</ele>
        <time>2021-10-21T06:58:02.506Z</time>
      </trkpt>
      <trkpt lat="44.47509" lon="5.93359">
        <ele>1546.5999755859</ele>
        <time>2021-10-21T06:58:08.296Z</time>
      </trkpt>
      <trkpt lat="44.47483" lon="5.93353">
        <ele>1532</ele>
        <time>2021-10-21T06:58:14.094Z</time>
      </trkpt>
      <trkpt lat="44.475" lon="5.93331">
        <ele>1532</ele>
        <time>2021-10-21T06:58:19.899Z</time>
      </trkpt>
      <trkpt lat="44.475" lon="5.93327">
        <ele>1532</ele>
        <time>2021-10-21T06:58:25.705Z</time>
      </trkpt>
      <trkpt lat="44.4748" lon="5.93314">
        <ele>1532</ele>
        <time>2021-10-21T06:58:31.518Z</time>
      </trkpt>
      <trkpt lat="44.47466" lon="5.9331">
        <ele>1515.4000244141</ele>
        <time>2021-10-21T06:58:37.336Z</time>
      </trkpt>
      <trkpt lat="44.47459" lon="5.93311">
        <ele>1515.4000244141</ele>
        <time>2021-10-21T06:58:43.156Z</time>
      </trkpt>
      <trkpt lat="44.47452" lon="5.93313">
        <ele>1512</ele>
        <time>2021-10-21T06:58:48.978Z</time>
      </trkpt>
      <trkpt lat="44.47431" lon="5.93327">
        <ele>1506.8000488281</ele>
        <time>2021-10-21T06:58:54.807Z</time>
      </trkpt>
      <trkpt lat="44.4741" lon="5.93344">
        <ele>1500</ele>
        <time>2021-10-21T06:59:00.644Z</time>
      </trkpt>
      <trkpt lat="44.47407" lon="5.93343">
        <ele>1500</ele>
        <time>2021-10-21T06:59:06.482Z</time>
      </trkpt>
      <trkpt lat="44.47403" lon="5.9331">
        <ele>1500</ele>
        <time>2021-10-21T06:59:12.327Z</time>
      </trkpt>
      <trkpt lat="44.47404" lon="5.93302">
        <ele>1490.1999511719</ele>
        <time>2021-10-21T06:59:18.174Z</time>
      </trkpt>
      <trkpt lat="44.47412" lon="5.93258">
        <ele>1490.1999511719</ele>
        <time>2021-10-21T06:59:24.031Z</time>
      </trkpt>
      <trkpt lat="44.47416" lon="5.93245">
        <ele>1478</ele>
        <time>2021-10-21T06:59:29.891Z</time>
      </trkpt>
      <trkpt lat="44.47415" lon="5.93242">
        <ele>1477</ele>
        <time>2021-10-21T06:59:35.752Z</time>
      </trkpt>
      <trkpt lat="44.47407" lon="5.93241">
        <ele>1475.8000488281</ele>
        <time>2021-10-21T06:59:41.616Z</time>
      </trkpt>
      <trkpt lat="44.4739" lon="5.9325">
        <ele>1475.8000488281</ele>
        <time>2021-10-21T06:59:47.485Z</time>
      </trkpt>
      <trkpt lat="44.47374" lon="5.93256">
        <ele>1466.8000488281</ele>
        <time>2021-10-21T06:59:53.360Z</time>
      </trkpt>
      <trkpt lat="44.47365" lon="5.93261">
        <ele>1466.8000488281</ele>
        <time>2021-10-21T06:59:59.238Z</time>
      </trkpt>
      <trkpt lat="44.47302" lon="5.93288">
        <ele>1453</ele>
        <time>2021-10-21T07:00:05.136Z</time>
      </trkpt>
      <trkpt lat="44.47296" lon="5.93299">
        <ele>1453</ele>
        <time>2021-10-21T07:00:11.037Z</time>
      </trkpt>
      <trkpt lat="44.47291" lon="5.93318">
        <ele>1452.1999511719</ele>
        <time>2021-10-21T07:00:16.943Z</time>
      </trkpt>
      <trkpt lat="44.473" lon="5.93352">
        <ele>1446</ele>
        <time>2021-10-21T07:00:22.857Z</time>
      </trkpt>
      <trkpt lat="44.47304" lon="5.93361">
        <ele>1444.8000488281</ele>
        <time>2021-10-21T07:00:28.773Z</time>
      </trkpt>
      <trkpt lat="44.47308" lon="5.93384">
        <ele>1444.8000488281</ele>
        <time>2021-10-21T07:00:34.695Z</time>
      </trkpt>
      <trkpt lat="44.47308" lon="5.93402">
        <ele>1444.8000488281</ele>
        <time>2021-10-21T07:00:40.621Z</time>
      </trkpt>
      <trkpt lat="44.47302" lon="5.93431">
        <ele>1438.8000488281</ele>
        <time>2021-10-21T07:00:46.554Z</time>
      </trkpt>
      <trkpt lat="44.47301" lon="5.93447">
        <ele>1438.8000488281</ele>
        <time>2021-10-21T07:00:52.490Z</time>
      </trkpt>
      <trkpt lat="44.47303" lon="5.93497">
        <ele>1438.8000488281</ele>
        <time>2021-10-21T07:00:58.437Z</time>
      </trkpt>
      <trkpt lat="44.47302" lon="5.93499">
        <ele>1425</ele>
        <time>2021-10-21T07:01:04.385Z</time>
      </trkpt>
      <trkpt lat="44.47283" lon="5.93489">
        <ele>1425</ele>
        <time>2021-10-21T07:01:10.339Z</time>
      </trkpt>
      <trkpt lat="44.47259" lon="5.93466">
        <ele>1407.5999755859</ele>
        <time>2021-10-21T07:01:16.302Z</time>
      </trkpt>
      <trkpt lat="44.47257" lon="5.93469">
        <ele>1407.5999755859</ele>
        <time>2021-10-21T07:01:22.266Z</time>
      </trkpt>
      <trkpt lat="44.4725" lon="5.935">
        <ele>1398.8000488281</ele>
        <time>2021-10-21T07:01:28.237Z</time>
      </trkpt>
      <trkpt lat="44.47252" lon="5.93511">
        <ele>1398.8000488281</ele>
        <time>2021-10-21T07:01:34.211Z</time>
      </trkpt>
      <trkpt lat="44.47252" lon="5.93529">
        <ele>1394.4000244141</ele>
        <time>2021-10-21T07:01:40.189Z</time>
      </trkpt>
      <trkpt lat="44.47249" lon="5.9353">
        <ele>1394.4000244141</ele>
        <time>2021-10-21T07:01:46.168Z</time>
      </trkpt>
      <trkpt lat="44.47246" lon="5.93527">
        <ele>1392.1999511719</ele>
        <time>2021-10-21T07:01:52.148Z</time>
      </trkpt>
      <trkpt lat="44.47231" lon="5.93509">
        <ele>1392.1999511719</ele>
        <time>2021-10-21T07:01:58.134Z</time>
      </trkpt>
      <trkpt lat="44.47221" lon="5.93512">
        <ele>1392.1999511719</ele>
        <time>2021-10-21T07:02:04.124Z</time>
      </trkpt>
      <trkpt lat="44.47209" lon="5.93519">
        <ele>1379.4000244141</ele>
        <time>2021-10-21T07:02:10.117Z</time>
      </trkpt>
      <trkpt lat="44.47197" lon="5.93553">
        <ele>1379.4000244141</ele>
        <time>2021-10-21T07:02:16.119Z</time>
      </trkpt>
      <trkpt lat="44.47193" lon="5.93557">
        <ele>1367.1999511719</ele>
        <time>2021-10-21T07:02:22.123Z</time>
      </trkpt>
      <trkpt lat="44.47178" lon="5.93557">
        <ele>1367.1999511719</ele>
        <time>2021-10-21T07:02:28.131Z</time>
      </trkpt>
      <trkpt lat="44.47185" lon="5.93576">
        <ele>1367.1999511719</ele>
        <time>2021-10-21T07:02:34.144Z</time>
      </trkpt>
      <trkpt lat="44.47183" lon="5.9358">
        <ele>1367.1999511719</ele>
        <time>2021-10-21T07:02:40.158Z</time>
      </trkpt>
      <trkpt lat="44.47174" lon="5.93584">
        <ele>1353</ele>
        <time>2021-10-21T07:02:46.175Z</time>
      </trkpt>
      <trkpt lat="44.47172" lon="5.93588">
        <ele>1353</ele>
        <time>2021-10-21T07:02:52.193Z</time>
      </trkpt>
      <trkpt lat="44.47176" lon="5.93591">
        <ele>1353</ele>
        <time>2021-10-21T07:02:58.212Z</time>
      </trkpt>
      <trkpt lat="44.47193" lon="5.936">
        <ele>1346.5999755859</ele>
        <time>2021-10-21T07:03:04.237Z</time>
      </trkpt>
      <trkpt lat="44.47201" lon="5.93613">
        <ele>1343.8000488281</ele>
        <time>2021-10-21T07:03:10.266Z</time>
      </trkpt>
      <trkpt lat="44.47199" lon="5.93635">
        <ele>1343.8000488281</ele>
        <time>2021-10-21T07:03:16.300Z</time>
      </trkpt>
      <trkpt lat="44.47196" lon="5.93643">
        <ele>1343.8000488281</ele>
        <time>2021-10-21T07:03:22.336Z</time>
      </trkpt>
      <trkpt lat="44.47193" lon="5.93647">
        <ele>1338.8000488281</ele>
        <time>2021-10-21T07:03:28.373Z</time>
      </trkpt>
      <trkpt lat="44.47183" lon="5.93648">
        <ele>1337.5999755859</ele>
        <time>2021-10-21T07:03:34.413Z</time>
      </trkpt>
      <trkpt lat="44.47151" lon="5.93674">
        <ele>1337</ele>
        <time>2021-10-21T07:03:40.465Z</time>
      </trkpt>
      <trkpt lat="44.47142" lon="5.93684">
        <ele>1336.1999511719</ele>
        <time>2021-10-21T07:03:46.520Z</time>
      </trkpt>
      <trkpt lat="44.47134" lon="5.93701">
        <ele>1336.1999511719</ele>
        <time>2021-10-21T07:03:52.580Z</time>
      </trkpt>
      <trkpt lat="44.47129" lon="5.937">
        <ele>1334.4000244141</ele>
        <time>2021-10-21T07:03:58.641Z</time>
      </trkpt>
      <trkpt lat="44.47121" lon="5.93697">
        <ele>1334</ele>
        <time>2021-10-21T07:04:04.705Z</time>
      </trkpt>
      <trkpt lat="44.471" lon="5.93704">
        <ele>1332.1999511719</ele>
        <time>2021-10-21T07:04:10.776Z</time>
      </trkpt>
      <trkpt lat="44.47087" lon="5.93706">
        <ele>1330.5999755859</ele>
        <time>2021-10-21T07:04:16.851Z</time>
      </trkpt>
      <trkpt lat="44.4708" lon="5.9371">
        <ele>1329.5999755859</ele>
        <time>2021-10-21T07:04:22.928Z</time>
      </trkpt>
      <trkpt lat="44.47077" lon="5.93716">
        <ele>1329.5999755859</ele>
        <time>2021-10-21T07:04:29.007Z</time>
      </trkpt>
      <trkpt lat="44.47068" lon="5.93718">
        <ele>1329.4000244141</ele>
        <time>2021-10-21T07:04:35.089Z</time>
      </trkpt>
      <trkpt lat="44.47064" lon="5.93722">
        <ele>1329.8000488281</ele>
        <time>2021-10-21T07:04:41.172Z</time>
      </trkpt>
      <trkpt lat="44.47056" lon="5.93716">
        <ele>1329.8000488281</ele>
        <time>2021-10-21T07:04:47.258Z</time>
      </trkpt>
      <trkpt lat="44.47054" lon="5.93711">
        <ele>1329.8000488281</ele>
        <time>2021-10-21T07:04:53.345Z</time>
      </trkpt>
      <trkpt lat="44.47031" lon="5.93701">
        <ele>1331</ele>
        <time>2021-10-21T07:04:59.440Z</time>
      </trkpt>
      <trkpt lat="44.47017" lon="5.93686">
        <ele>1330.4000244141</ele>
        <time>2021-10-21T07:05:05.540Z</time>
      </trkpt>
      <trkpt lat="44.47003" lon="5.93689">
        <ele>1330.4000244141</ele>
        <time>2021-10-21T07:05:11.645Z</time>
      </trkpt>
      <trkpt lat="44.46991" lon="5.93699">
        <ele>1330.4000244141</ele>
        <time>2021-10-21T07:05:17.754Z</time>
      </trkpt>
      <trkpt lat="44.46979" lon="5.93704">
        <ele>1330.4000244141</ele>
        <time>2021-10-21T07:05:23.867Z</time>
      </trkpt>
      <trkpt lat="44.46967" lon="5.93724">
        <ele>1337.1999511719</ele>
        <time>2021-10-21T07:05:29.986Z</time>
      </trkpt>
      <trkpt lat="44.4696" lon="5.93733">
        <ele>1337.1999511719</ele>
        <time>2021-10-21T07:05:36.108Z</time>
      </trkpt>
      <trkpt lat="44.4695" lon="5.9374">
        <ele>1336</ele>
        <time>2021-10-21T07:05:42.233Z</time>
      </trkpt>
      <trkpt lat="44.46947" lon="5.93746">
        <ele>1336</ele>
        <time>2021-10-21T07:05:48.360Z</time>
      </trkpt>
      <trkpt lat="44.4694" lon="5.93744">
        <ele>1336</ele>
        <time>2021-10-21T07:05:54.489Z</time>
      </trkpt>
      <trkpt lat="44.46931" lon="5.93746">
        <ele>1338</ele>
        <time>2021-10-21T07:06:00.621Z</time>
      </trkpt>
      <trkpt lat="44.46921" lon="5.93746">
        <ele>1338</ele>
        <time>2021-10-21T07:06:06.756Z</time>
      </trkpt>
      <trkpt lat="44.4691" lon="5.9375">
        <ele>1337.5999755859</ele>
        <time>2021-10-21T07:06:12.895Z</time>
      </trkpt>
      <trkpt lat="44.46898" lon="5.93757">
        <ele>1337.5999755859</ele>
        <time>2021-10-21T07:06:19.038Z</time>
      </trkpt>
      <trkpt lat="44.46891" lon="5.9377">
        <ele>1337.5999755859</ele>
        <time>2021-10-21T07:06:25.185Z</time>
      </trkpt>
      <trkpt lat="44.46882" lon="5.93802">
        <ele>1337.5999755859</ele>
        <time>2021-10-21T07:06:31.339Z</time>
      </trkpt>
      <trkpt lat="44.46878" lon="5.93808">
        <ele>1335</ele>
        <time>2021-10-21T07:06:37.495Z</time>
      </trkpt>
      <trkpt lat="44.46863" lon="5.93814">
        <ele>1335</ele>
        <time>2021-10-21T07:06:43.656Z</time>
      </trkpt>
      <trkpt lat="44.4685" lon="5.9381">
        <ele>1339.5999755859</ele>
        <time>2021-10-21T07:06:49.821Z</time>
      </trkpt>
      <trkpt lat="44.46839" lon="5.93799">
        <ele>1339.5999755859</ele>
        <time>2021-10-21T07:06:55.990Z</time>
      </trkpt>
      <trkpt lat="44.46816" lon="5.93798">
        <ele>1346</ele>
        <time>2021-10-21T07:07:02.166Z</time>
      </trkpt>
      <trkpt lat="44.46811" lon="5.93799">
        <ele>1346</ele>
        <time>2021-10-21T07:07:08.344Z</time>
      </trkpt>
      <trkpt lat="44.46784" lon="5.93782">
        <ele>1346</ele>
        <time>2021-10-21T07:07:14.531Z</time>
      </trkpt>
      <trkpt lat="44.46776" lon="5.93781">
        <ele>1346</ele>
        <time>2021-10-21T07:07:20.721Z</time>
      </trkpt>
      <trkpt lat="44.46759" lon="5.93791">
        <ele>1360.1999511719</ele>
        <time>2021-10-21T07:07:26.917Z</time>
      </trkpt>
      <trkpt lat="44.46758" lon="5.93794">
        <ele>1361.4000244141</ele>
        <time>2021-10-21T07:07:33.114Z</time>
      </trkpt>
      <trkpt lat="44.46761" lon="5.93805">
        <ele>1361.4000244141</ele>
        <time>2021-10-21T07:07:39.313Z</time>
      </trkpt>
      <trkpt lat="44.46769" lon="5.93808">
        <ele>1361.4000244141</ele>
        <time>2021-10-21T07:07:45.515Z</time>
      </trkpt>
      <trkpt lat="44.46779" lon="5.93817">
        <ele>1361.4000244141</ele>
        <time>2021-10-21T07:07:51.721Z</time>
      </trkpt>
      <trkpt lat="44.46789" lon="5.93834">
        <ele>1361.4000244141</ele>
        <time>2021-10-21T07:07:57.931Z</time>
      </trkpt>
      <trkpt lat="44.46791" lon="5.93842">
        <ele>1361.4000244141</ele>
        <time>2021-10-21T07:08:04.143Z</time>
      </trkpt>
      <trkpt lat="44.46788" lon="5.93867">
        <ele>1372.4000244141</ele>
        <time>2021-10-21T07:08:10.361Z</time>
      </trkpt>
      <trkpt lat="44.46783" lon="5.93886">
        <ele>1373</ele>
        <time>2021-10-21T07:08:16.583Z</time>
      </trkpt>
      <trkpt lat="44.46784" lon="5.93899">
        <ele>1373</ele>
        <time>2021-10-21T07:08:22.808Z</time>
      </trkpt>
      <trkpt lat="44.46789" lon="5.9392">
        <ele>1374.8000488281</ele>
        <time>2021-10-21T07:08:29.038Z</time>
      </trkpt>
      <trkpt lat="44.46786" lon="5.93954">
        <ele>1374.8000488281</ele>
        <time>2021-10-21T07:08:35.276Z</time>
      </trkpt>
      <trkpt lat="44.46779" lon="5.93979">
        <ele>1379.4000244141</ele>
        <time>2021-10-21T07:08:41.520Z</time>
      </trkpt>
      <trkpt lat="44.46773" lon="5.93986">
        <ele>1379.4000244141</ele>
        <time>2021-10-21T07:08:47.766Z</time>
      </trkpt>
      <trkpt lat="44.46764" lon="5.94007">
        <ele>1381.1999511719</ele>
        <time>2021-10-21T07:08:54.018Z</time>
      </trkpt>
      <trkpt lat="44.46736" lon="5.94056">
        <ele>1388.8000488281</ele>
        <time>2021-10-21T07:09:00.284Z</time>
      </trkpt>
      <trkpt lat="44.46728" lon="5.94081">
        <ele>1391.4000244141</ele>
        <time>2021-10-21T07:09:06.556Z</time>
      </trkpt>
      <trkpt lat="44.46725" lon="5.94101">
        <ele>1391.4000244141</ele>
        <time>2021-10-21T07:09:12.833Z</time>
      </trkpt>
      <trkpt lat="44.46725" lon="5.94109">
        <ele>1392.1999511719</ele>
        <time>2021-10-21T07:09:19.111Z</time>
      </trkpt>
      <trkpt lat="44.46709" lon="5.94141">
        <ele>1393.8000488281</ele>
        <time>2021-10-21T07:09:25.398Z</time>
      </trkpt>
      <trkpt lat="44.46698" lon="5.94149">
        <ele>1395.4000244141</ele>
        <time>2021-10-21T07:09:31.689Z</time>
      </trkpt>
      <trkpt lat="44.4669" lon="5.94169">
        <ele>1395.4000244141</ele>
        <time>2021-10-21T07:09:37.985Z</time>
      </trkpt>
      <trkpt lat="44.4669" lon="5.94185">
        <ele>1401.4000244141</ele>
        <time>2021-10-21T07:09:44.285Z</time>
      </trkpt>
      <trkpt lat="44.46687" lon="5.94201">
        <ele>1404.8000488281</ele>
        <time>2021-10-21T07:09:50.589Z</time>
      </trkpt>
      <trkpt lat="44.46685" lon="5.94234">
        <ele>1411.4000244141</ele>
        <time>2021-10-21T07:09:56.900Z</time>
      </trkpt>
      <trkpt lat="44.46678" lon="5.9424">
        <ele>1411.4000244141</ele>
        <time>2021-10-21T07:10:03.213Z</time>
      </trkpt>
      <trkpt lat="44.46671" lon="5.94242">
        <ele>1414.8000488281</ele>
        <time>2021-10-21T07:10:09.529Z</time>
      </trkpt>
      <trkpt lat="44.46665" lon="5.94242">
        <ele>1416</ele>
        <time>2021-10-21T07:10:15.847Z</time>
      </trkpt>
      <trkpt lat="44.46659" lon="5.94245">
        <ele>1416</ele>
        <time>2021-10-21T07:10:22.167Z</time>
      </trkpt>
      <trkpt lat="44.46641" lon="5.94262">
        <ele>1422.5999755859</ele>
        <time>2021-10-21T07:10:28.493Z</time>
      </trkpt>
      <trkpt lat="44.46637" lon="5.94268">
        <ele>1423.8000488281</ele>
        <time>2021-10-21T07:10:34.821Z</time>
      </trkpt>
      <trkpt lat="44.4663" lon="5.94281">
        <ele>1426.1999511719</ele>
        <time>2021-10-21T07:10:41.153Z</time>
      </trkpt>
      <trkpt lat="44.46619" lon="5.94318">
        <ele>1426.1999511719</ele>
        <time>2021-10-21T07:10:47.494Z</time>
      </trkpt>
      <trkpt lat="44.46615" lon="5.94326">
        <ele>1426.1999511719</ele>
        <time>2021-10-21T07:10:53.837Z</time>
      </trkpt>
      <trkpt lat="44.4661" lon="5.94342">
        <ele>1426.1999511719</ele>
        <time>2021-10-21T07:11:00.184Z</time>
      </trkpt>
      <trkpt lat="44.46605" lon="5.9435">
        <ele>1435.1999511719</ele>
        <time>2021-10-21T07:11:06.534Z</time>
      </trkpt>
      <trkpt lat="44.46598" lon="5.94375">
        <ele>1439</ele>
        <time>2021-10-21T07:11:12.890Z</time>
      </trkpt>
      <trkpt lat="44.46589" lon="5.94399">
        <ele>1439</ele>
        <time>2021-10-21T07:11:19.252Z</time>
      </trkpt>
      <trkpt lat="44.46577" lon="5.94419">
        <ele>1439</ele>
        <time>2021-10-21T07:11:25.619Z</time>
      </trkpt>
      <trkpt lat="44.4657" lon="5.9445">
        <ele>1450.8000488281</ele>
        <time>2021-10-21T07:11:31.994Z</time>
      </trkpt>
      <trkpt lat="44.46568" lon="5.94454">
        <ele>1452.1999511719</ele>
        <time>2021-10-21T07:11:38.370Z</time>
      </trkpt>
      <trkpt lat="44.46554" lon="5.94461">
        <ele>1452.1999511719</ele>
        <time>2021-10-21T07:11:44.750Z</time>
      </trkpt>
      <trkpt lat="44.46542" lon="5.94456">
        <ele>1454.5999755859</ele>
        <time>2021-10-21T07:11:51.134Z</time>
      </trkpt>
      <trkpt lat="44.46522" lon="5.9446">
        <ele>1454.5999755859</ele>
        <time>2021-10-21T07:11:57.525Z</time>
      </trkpt>
      <trkpt lat="44.4652" lon="5.94461">
        <ele>1456</ele>
        <time>2021-10-21T07:12:03.916Z</time>
      </trkpt>
      <trkpt lat="44.46514" lon="5.94459">
        <ele>1457</ele>
        <time>2021-10-21T07:12:10.309Z</time>
      </trkpt>
      <trkpt lat="44.46507" lon="5.94467">
        <ele>1458</ele>
        <time>2021-10-21T07:12:16.705Z</time>
      </trkpt>
      <trkpt lat="44.4648" lon="5.94465">
        <ele>1460.5999755859</ele>
        <time>2021-10-21T07:12:23.109Z</time>
      </trkpt>
      <trkpt lat="44.46464" lon="5.94467">
        <ele>1460.5999755859</ele>
        <time>2021-10-21T07:12:29.518Z</time>
      </trkpt>
      <trkpt lat="44.46462" lon="5.94469">
        <ele>1460.5999755859</ele>
        <time>2021-10-21T07:12:35.928Z</time>
      </trkpt>
      <trkpt lat="44.46466" lon="5.94486">
        <ele>1467.5999755859</ele>
        <time>2021-10-21T07:12:42.342Z</time>
      </trkpt>
      <trkpt lat="44.46471" lon="5.94492">
        <ele>1468.8000488281</ele>
        <time>2021-10-21T07:12:48.759Z</time>
      </trkpt>
      <trkpt lat="44.46497" lon="5.94508">
        <ele>1468.8000488281</ele>
        <time>2021-10-21T07:12:55.184Z</time>
      </trkpt>
      <trkpt lat="44.4651" lon="5.94515">
        <ele>1474.1999511719</ele>
        <time>2021-10-21T07:13:01.614Z</time>
      </trkpt>
      <trkpt lat="44.46528" lon="5.94521">
        <ele>1477</ele>
        <time>2021-10-21T07:13:08.049Z</time>
      </trkpt>
      <trkpt lat="44.46543" lon="5.94531">
        <ele>1482.1999511719</ele>
        <time>2021-10-21T07:13:14.490Z</time>
      </trkpt>
      <trkpt lat="44.46554" lon="5.94535">
        <ele>1482.1999511719</ele>
        <time>2021-10-21T07:13:20.934Z</time>
      </trkpt>
      <trkpt lat="44.46579" lon="5.94535">
        <ele>1482.1999511719</ele>
        <time>2021-10-21T07:13:27.386Z</time>
      </trkpt>
      <trkpt lat="44.466" lon="5.94532">
        <ele>1490.8000488281</ele>
        <time>2021-10-21T07:13:33.845Z</time>
      </trkpt>
      <trkpt lat="44.46644" lon="5.94512">
        <ele>1490.8000488281</ele>
        <time>2021-10-21T07:13:40.318Z</time>
      </trkpt>
      <trkpt lat="44.46659" lon="5.94508">
        <ele>1490.8000488281</ele>
        <time>2021-10-21T07:13:46.796Z</time>
      </trkpt>
      <trkpt lat="44.4668" lon="5.94505">
        <ele>1490.8000488281</ele>
        <time>2021-10-21T07:13:53.280Z</time>
      </trkpt>
      <trkpt lat="44.4669" lon="5.94508">
        <ele>1490.8000488281</ele>
        <time>2021-10-21T07:13:59.768Z</time>
      </trkpt>
      <trkpt lat="44.46707" lon="5.94503">
        <ele>1495.1999511719</ele>
        <time>2021-10-21T07:14:06.261Z</time>
      </trkpt>
      <trkpt lat="44.46695" lon="5.94526">
        <ele>1495.1999511719</ele>
        <time>2021-10-21T07:14:12.761Z</time>
      </trkpt>
      <trkpt lat="44.46693" lon="5.94529">
        <ele>1487.5999755859</ele>
        <time>2021-10-21T07:14:19.262Z</time>
      </trkpt>
      <trkpt lat="44.46693" lon="5.94533">
        <ele>1487.5999755859</ele>
        <time>2021-10-21T07:14:25.763Z</time>
      </trkpt>
      <trkpt lat="44.467" lon="5.94533">
        <ele>1483.8000488281</ele>
        <time>2021-10-21T07:14:32.267Z</time>
      </trkpt>
      <trkpt lat="44.46708" lon="5.9453">
        <ele>1483.8000488281</ele>
        <time>2021-10-21T07:14:38.773Z</time>
      </trkpt>
      <trkpt lat="44.46721" lon="5.94538">
        <ele>1475.1999511719</ele>
        <time>2021-10-21T07:14:45.284Z</time>
      </trkpt>
      <trkpt lat="44.46737" lon="5.94543">
        <ele>1475.1999511719</ele>
        <time>2021-10-21T07:14:51.800Z</time>
      </trkpt>
      <trkpt lat="44.46749" lon="5.94557">
        <ele>1463.5999755859</ele>
        <time>2021-10-21T07:14:58.321Z</time>
      </trkpt>
      <trkpt lat="44.46759" lon="5.94566">
        <ele>1460.1999511719</ele>
        <time>2021-10-21T07:15:04.845Z</time>
      </trkpt>
      <trkpt lat="44.46764" lon="5.9457">
        <ele>1460.1999511719</ele>
        <time>2021-10-21T07:15:11.371Z</time>
      </trkpt>
      <trkpt lat="44.46771" lon="5.94572">
        <ele>1460.1999511719</ele>
        <time>2021-10-21T07:15:17.899Z</time>
      </trkpt>
      <trkpt lat="44.46786" lon="5.94584">
        <ele>1460.1999511719</ele>
        <time>2021-10-21T07:15:24.433Z</time>
      </trkpt>
      <trkpt lat="44.4679" lon="5.94591">
        <ele>1460.1999511719</ele>
        <time>2021-10-21T07:15:30.969Z</time>
      </trkpt>
      <trkpt lat="44.46797" lon="5.94614">
        <ele>1460.1999511719</ele>
        <time>2021-10-21T07:15:37.510Z</time>
      </trkpt>
      <trkpt lat="44.46802" lon="5.94626">
        <ele>1460.1999511719</ele>
        <time>2021-10-21T07:15:44.055Z</time>
      </trkpt>
      <trkpt lat="44.46816" lon="5.94639">
        <ele>1460.1999511719</ele>
        <time>2021-10-21T07:15:50.605Z</time>
      </trkpt>
      <trkpt lat="44.46829" lon="5.94643">
        <ele>1460.1999511719</ele>
        <time>2021-10-21T07:15:57.159Z</time>
      </trkpt>
      <trkpt lat="44.46834" lon="5.94647">
        <ele>1460.1999511719</ele>
        <time>2021-10-21T07:16:03.715Z</time>
      </trkpt>
      <trkpt lat="44.46865" lon="5.94661">
        <ele>1429.8000488281</ele>
        <time>2021-10-21T07:16:10.281Z</time>
      </trkpt>
      <trkpt lat="44.46895" lon="5.94667">
        <ele>1429.8000488281</ele>
        <time>2021-10-21T07:16:16.856Z</time>
      </trkpt>
      <trkpt lat="44.46924" lon="5.94681">
        <ele>1419.8000488281</ele>
        <time>2021-10-21T07:16:23.441Z</time>
      </trkpt>
      <trkpt lat="44.46957" lon="5.94688">
        <ele>1419.8000488281</ele>
        <time>2021-10-21T07:16:30.036Z</time>
      </trkpt>
      <trkpt lat="44.46971" lon="5.94696">
        <ele>1419.8000488281</ele>
        <time>2021-10-21T07:16:36.636Z</time>
      </trkpt>
      <trkpt lat="44.46978" lon="5.94705">
        <ele>1419.8000488281</ele>
        <time>2021-10-21T07:16:43.239Z</time>
      </trkpt>
      <trkpt lat="44.46982" lon="5.94725">
        <ele>1402</ele>
        <time>2021-10-21T07:16:49.847Z</time>
      </trkpt>
      <trkpt lat="44.46987" lon="5.94737">
        <ele>1402</ele>
        <time>2021-10-21T07:16:56.458Z</time>
      </trkpt>
      <trkpt lat="44.46985" lon="5.94742">
        <ele>1396.5999755859</ele>
        <time>2021-10-21T07:17:03.070Z</time>
      </trkpt>
      <trkpt lat="44.46985" lon="5.94782">
        <ele>1389.1999511719</ele>
        <time>2021-10-21T07:17:09.691Z</time>
      </trkpt>
      <trkpt lat="44.46989" lon="5.94818">
        <ele>1389.1999511719</ele>
        <time>2021-10-21T07:17:16.320Z</time>
      </trkpt>
      <trkpt lat="44.46993" lon="5.94832">
        <ele>1389.1999511719</ele>
        <time>2021-10-21T07:17:22.952Z</time>
      </trkpt>
      <trkpt lat="44.46988" lon="5.94841">
        <ele>1371.5999755859</ele>
        <time>2021-10-21T07:17:29.587Z</time>
      </trkpt>
      <trkpt lat="44.46985" lon="5.94857">
        <ele>1371.5999755859</ele>
        <time>2021-10-21T07:17:36.226Z</time>
      </trkpt>
      <trkpt lat="44.46987" lon="5.94866">
        <ele>1371.5999755859</ele>
        <time>2021-10-21T07:17:42.867Z</time>
      </trkpt>
      <trkpt lat="44.47011" lon="5.94897">
        <ele>1371.5999755859</ele>
        <time>2021-10-21T07:17:49.518Z</time>
      </trkpt>
      <trkpt lat="44.4702" lon="5.949">
        <ele>1354</ele>
        <time>2021-10-21T07:17:56.172Z</time>
      </trkpt>
      <trkpt lat="44.47031" lon="5.94907">
        <ele>1350.4000244141</ele>
        <time>2021-10-21T07:18:02.829Z</time>
      </trkpt>
      <trkpt lat="44.47038" lon="5.94914">
        <ele>1347.5999755859</ele>
        <time>2021-10-21T07:18:09.489Z</time>
      </trkpt>
      <trkpt lat="44.47052" lon="5.9492">
        <ele>1347.5999755859</ele>
        <time>2021-10-21T07:18:16.154Z</time>
      </trkpt>
      <trkpt lat="44.47059" lon="5.94927">
        <ele>1339.1999511719</ele>
        <time>2021-10-21T07:18:22.821Z</time>
      </trkpt>
      <trkpt lat="44.47066" lon="5.94939">
        <ele>1339.1999511719</ele>
        <time>2021-10-21T07:18:29.492Z</time>
      </trkpt>
      <trkpt lat="44.47085" lon="5.94944">
        <ele>1339.1999511719</ele>
        <time>2021-10-21T07:18:36.169Z</time>
      </trkpt>
      <trkpt lat="44.471" lon="5.94951">
        <ele>1339.1999511719</ele>
        <time>2021-10-21T07:18:42.851Z</time>
      </trkpt>
      <trkpt lat="44.47108" lon="5.94962">
        <ele>1317</ele>
        <time>2021-10-21T07:18:49.536Z</time>
      </trkpt>
      <trkpt lat="44.47111" lon="5.94968">
        <ele>1315.4000244141</ele>
        <time>2021-10-21T07:18:56.223Z</time>
      </trkpt>
      <trkpt lat="44.47115" lon="5.94972">
        <ele>1313.4000244141</ele>
        <time>2021-10-21T07:19:02.912Z</time>
      </trkpt>
      <trkpt lat="44.47118" lon="5.94985">
        <ele>1308</ele>
        <time>2021-10-21T07:19:09.604Z</time>
      </trkpt>
      <trkpt lat="44.47126" lon="5.94989">
        <ele>1304.8000488281</ele>
        <time>2021-10-21T07:19:16.299Z</time>
      </trkpt>
      <trkpt lat="44.47137" lon="5.94988">
        <ele>1300.8000488281</ele>
        <time>2021-10-21T07:19:22.997Z</time>
      </trkpt>
      <trkpt lat="44.47143" lon="5.94995">
        <ele>1297.4000244141</ele>
        <time>2021-10-21T07:19:29.697Z</time>
      </trkpt>
      <trkpt lat="44.47149" lon="5.95022">
        <ele>1297.8000488281</ele>
        <time>2021-10-21T07:19:36.404Z</time>
      </trkpt>
      <trkpt lat="44.47154" lon="5.95031">
        <ele>1296</ele>
        <time>2021-10-21T07:19:43.113Z</time>
      </trkpt>
      <trkpt lat="44.47151" lon="5.95072">
        <ele>1292.1999511719</ele>
        <time>2021-10-21T07:19:49.831Z</time>
      </trkpt>
      <trkpt lat="44.47153" lon="5.95083">
        <ele>1292.1999511719</ele>
        <time>2021-10-21T07:19:56.552Z</time>
      </trkpt>
      <trkpt lat="44.47154" lon="5.95112">
        <ele>1292.1999511719</ele>
        <time>2021-10-21T07:20:03.279Z</time>
      </trkpt>
      <trkpt lat="44.47149" lon="5.95137">
        <ele>1278.1999511719</ele>
        <time>2021-10-21T07:20:10.012Z</time>
      </trkpt>
      <trkpt lat="44.47151" lon="5.95164">
        <ele>1272.8000488281</ele>
        <time>2021-10-21T07:20:16.751Z</time>
      </trkpt>
      <trkpt lat="44.47152" lon="5.95165">
        <ele>1272.8000488281</ele>
        <time>2021-10-21T07:20:23.491Z</time>
      </trkpt>
      <trkpt lat="44.47154" lon="5.95176">
        <ele>1271</ele>
        <time>2021-10-21T07:20:30.233Z</time>
      </trkpt>
      <trkpt lat="44.47149" lon="5.95187">
        <ele>1270.5999755859</ele>
        <time>2021-10-21T07:20:36.978Z</time>
      </trkpt>
      <trkpt lat="44.47135" lon="5.95203">
        <ele>1267</ele>
        <time>2021-10-21T07:20:43.729Z</time>
      </trkpt>
      <trkpt lat="44.47131" lon="5.95233">
        <ele>1262.1999511719</ele>
        <time>2021-10-21T07:20:50.487Z</time>
      </trkpt>
      <trkpt lat="44.47126" lon="5.9524">
        <ele>1260.4000244141</ele>
        <time>2021-10-21T07:20:57.247Z</time>
      </trkpt>
      <trkpt lat="44.47123" lon="5.95252">
        <ele>1257.1999511719</ele>
        <time>2021-10-21T07:21:04.010Z</time>
      </trkpt>
      <trkpt lat="44.47108" lon="5.95279">
        <ele>1257.1999511719</ele>
        <time>2021-10-21T07:21:10.780Z</time>
      </trkpt>
      <trkpt lat="44.47103" lon="5.95303">
        <ele>1257.1999511719</ele>
        <time>2021-10-21T07:21:17.556Z</time>
      </trkpt>
      <trkpt lat="44.47095" lon="5.95325">
        <ele>1248.4000244141</ele>
        <time>2021-10-21T07:21:24.338Z</time>
      </trkpt>
      <trkpt lat="44.47095" lon="5.95352">
        <ele>1248.4000244141</ele>
        <time>2021-10-21T07:21:31.125Z</time>
      </trkpt>
      <trkpt lat="44.47092" lon="5.95394">
        <ele>1248.4000244141</ele>
        <time>2021-10-21T07:21:37.922Z</time>
      </trkpt>
      <trkpt lat="44.47093" lon="5.95408">
        <ele>1248.4000244141</ele>
        <time>2021-10-21T07:21:44.722Z</time>
      </trkpt>
      <trkpt lat="44.47099" lon="5.95436">
        <ele>1230</ele>
        <time>2021-10-21T07:21:51.529Z</time>
      </trkpt>
      <trkpt lat="44.471" lon="5.95454">
        <ele>1230</ele>
        <time>2021-10-21T07:21:58.340Z</time>
      </trkpt>
      <trkpt lat="44.47106" lon="5.95487">
        <ele>1230</ele>
        <time>2021-10-21T07:22:05.158Z</time>
      </trkpt>
      <trkpt lat="44.47095" lon="5.95539">
        <ele>1230</ele>
        <time>2021-10-21T07:22:11.989Z</time>
      </trkpt>
      <trkpt lat="44.47092" lon="5.95563">
        <ele>1230</ele>
        <time>2021-10-21T07:22:18.825Z</time>
      </trkpt>
      <trkpt lat="44.4708" lon="5.95587">
        <ele>1195.4000244141</ele>
        <time>2021-10-21T07:22:25.668Z</time>
      </trkpt>
      <trkpt lat="44.47059" lon="5.9562">
        <ele>1187.5999755859</ele>
        <time>2021-10-21T07:22:32.520Z</time>
      </trkpt>
      <trkpt lat="44.47056" lon="5.95627">
        <ele>1187.5999755859</ele>
        <time>2021-10-21T07:22:39.374Z</time>
      </trkpt>
      <trkpt lat="44.47064" lon="5.95638">
        <ele>1187.5999755859</ele>
        <time>2021-10-21T07:22:46.232Z</time>
      </trkpt>
      <trkpt lat="44.47082" lon="5.95703">
        <ele>1182.1999511719</ele>
        <time>2021-10-21T07:22:53.105Z</time>
      </trkpt>
      <trkpt lat="44.47081" lon="5.95717">
        <ele>1182.1999511719</ele>
        <time>2021-10-21T07:22:59.981Z</time>
      </trkpt>
      <trkpt lat="44.47066" lon="5.9576">
        <ele>1178.8000488281</ele>
        <time>2021-10-21T07:23:06.868Z</time>
      </trkpt>
      <trkpt lat="44.47062" lon="5.95787">
        <ele>1177</ele>
        <time>2021-10-21T07:23:13.762Z</time>
      </trkpt>
      <trkpt lat="44.47063" lon="5.95827">
        <ele>1177</ele>
        <time>2021-10-21T07:23:20.664Z</time>
      </trkpt>
      <trkpt lat="44.47072" lon="5.95909">
        <ele>1167.4000244141</ele>
        <time>2021-10-21T07:23:27.585Z</time>
      </trkpt>
      <trkpt lat="44.47074" lon="5.95948">
        <ele>1164.4000244141</ele>
        <time>2021-10-21T07:23:34.515Z</time>
      </trkpt>
      <trkpt lat="44.47074" lon="5.95955">
        <ele>1164.4000244141</ele>
        <time>2021-10-21T07:23:41.446Z</time>
      </trkpt>
      <trkpt lat="44.4707" lon="5.95967">
        <ele>1162.1999511719</ele>
        <time>2021-10-21T07:23:48.380Z</time>
      </trkpt>
      <trkpt lat="44.47061" lon="5.9598">
        <ele>1162.1999511719</ele>
        <time>2021-10-21T07:23:55.318Z</time>
      </trkpt>
      <trkpt lat="44.47061" lon="5.95987">
        <ele>1159.4000244141</ele>
        <time>2021-10-21T07:24:02.258Z</time>
      </trkpt>
      <trkpt lat="44.4707" lon="5.95991">
        <ele>1158.1999511719</ele>
        <time>2021-10-21T07:24:09.201Z</time>
      </trkpt>
      <trkpt lat="44.47071" lon="5.95994">
        <ele>1158.1999511719</ele>
        <time>2021-10-21T07:24:16.144Z</time>
      </trkpt>
      <trkpt lat="44.47061" lon="5.9601">
        <ele>1156.4000244141</ele>
        <time>2021-10-21T07:24:23.092Z</time>
      </trkpt>
      <trkpt lat="44.47054" lon="5.96036">
        <ele>1156.4000244141</ele>
        <time>2021-10-21T07:24:30.046Z</time>
      </trkpt>
      <trkpt lat="44.47048" lon="5.9605">
        <ele>1156.4000244141</ele>
        <time>2021-10-21T07:24:37.004Z</time>
      </trkpt>
      <trkpt lat="44.47031" lon="5.96069">
        <ele>1148.8000488281</ele>
        <time>2021-10-21T07:24:43.969Z</time>
      </trkpt>
      <trkpt lat="44.47032" lon="5.96071">
        <ele>1148.8000488281</ele>
        <time>2021-10-21T07:24:50.934Z</time>
      </trkpt>
      <trkpt lat="44.47043" lon="5.96073">
        <ele>1147.4000244141</ele>
        <time>2021-10-21T07:24:57.903Z</time>
      </trkpt>
      <trkpt lat="44.47089" lon="5.96063">
        <ele>1147.4000244141</ele>
        <time>2021-10-21T07:25:04.886Z</time>
      </trkpt>
      <trkpt lat="44.47104" lon="5.96063">
        <ele>1147.4000244141</ele>
        <time>2021-10-21T07:25:11.874Z</time>
      </trkpt>
      <trkpt lat="44.47111" lon="5.96065">
        <ele>1138.8000488281</ele>
        <time>2021-10-21T07:25:18.864Z</time>
      </trkpt>
      <trkpt lat="44.47134" lon="5.96073">
        <ele>1135.8000488281</ele>
        <time>2021-10-21T07:25:25.862Z</time>
      </trkpt>
      <trkpt lat="44.47167" lon="5.96093">
        <ele>1135.8000488281</ele>
        <time>2021-10-21T07:25:32.871Z</time>
      </trkpt>
      <trkpt lat="44.47172" lon="5.96098">
        <ele>1131</ele>
        <time>2021-10-21T07:25:39.882Z</time>
      </trkpt>
      <trkpt lat="44.47174" lon="5.96104">
        <ele>1131</ele>
        <time>2021-10-21T07:25:46.894Z</time>
      </trkpt>
      <trkpt lat="44.47174" lon="5.96109">
        <ele>1129.1999511719</ele>
        <time>2021-10-21T07:25:53.908Z</time>
      </trkpt>
      <trkpt lat="44.4717" lon="5.96115">
        <ele>1129.1999511719</ele>
        <time>2021-10-21T07:26:00.923Z</time>
      </trkpt>
      <trkpt lat="44.47135" lon="5.96135">
        <ele>1129.1999511719</ele>
        <time>2021-10-21T07:26:07.950Z</time>
      </trkpt>
      <trkpt lat="44.47114" lon="5.9615">
        <ele>1119.5999755859</ele>
        <time>2021-10-21T07:26:14.984Z</time>
      </trkpt>
      <trkpt lat="44.4707" lon="5.96209">
        <ele>1111.5999755859</ele>
        <time>2021-10-21T07:26:22.037Z</time>
      </trkpt>
      <trkpt lat="44.4706" lon="5.96221">
        <ele>1111.5999755859</ele>
        <time>2021-10-21T07:26:29.095Z</time>
      </trkpt>
      <trkpt lat="44.47041" lon="5.96238">
        <ele>1111.5999755859</ele>
        <time>2021-10-21T07:26:36.160Z</time>
      </trkpt>
      <trkpt lat="44.47028" lon="5.96245">
        <ele>1111.5999755859</ele>
        <time>2021-10-21T07:26:43.229Z</time>
      </trkpt>
      <trkpt lat="44.46964" lon="5.96262">
        <ele>1111.5999755859</ele>
        <time>2021-10-21T07:26:50.318Z</time>
      </trkpt>
      <trkpt lat="44.46947" lon="5.96264">
        <ele>1111.5999755859</ele>
        <time>2021-10-21T07:26:57.413Z</time>
      </trkpt>
      <trkpt lat="44.46903" lon="5.96246">
        <ele>1081.4000244141</ele>
        <time>2021-10-21T07:27:04.522Z</time>
      </trkpt>
      <trkpt lat="44.46847" lon="5.9623">
        <ele>1072.4000244141</ele>
        <time>2021-10-21T07:27:11.649Z</time>
      </trkpt>
      <trkpt lat="44.4683" lon="5.9623">
        <ele>1071</ele>
        <time>2021-10-21T07:27:18.781Z</time>
      </trkpt>
      <trkpt lat="44.46777" lon="5.96242">
        <ele>1071</ele>
        <time>2021-10-21T07:27:25.930Z</time>
      </trkpt>
      <trkpt lat="44.46759" lon="5.96241">
        <ele>1071</ele>
        <time>2021-10-21T07:27:33.084Z</time>
      </trkpt>
      <trkpt lat="44.46742" lon="5.96233">
        <ele>1071</ele>
        <time>2021-10-21T07:27:40.244Z</time>
      </trkpt>
      <trkpt lat="44.46714" lon="5.96213">
        <ele>1071</ele>
        <time>2021-10-21T07:27:47.414Z</time>
      </trkpt>
      <trkpt lat="44.46709" lon="5.96214">
        <ele>1049.5999755859</ele>
        <time>2021-10-21T07:27:54.586Z</time>
      </trkpt>
      <trkpt lat="44.46705" lon="5.96219">
        <ele>1049.5999755859</ele>
        <time>2021-10-21T07:28:01.759Z</time>
      </trkpt>
      <trkpt lat="44.46696" lon="5.96249">
        <ele>1044.4000244141</ele>
        <time>2021-10-21T07:28:08.939Z</time>
      </trkpt>
      <trkpt lat="44.46675" lon="5.96282">
        <ele>1040</ele>
        <time>2021-10-21T07:28:16.129Z</time>
      </trkpt>
      <trkpt lat="44.46664" lon="5.96324">
        <ele>1034.8000488281</ele>
        <time>2021-10-21T07:28:23.330Z</time>
      </trkpt>
      <trkpt lat="44.4665" lon="5.96364">
        <ele>1031.1999511719</ele>
        <time>2021-10-21T07:28:30.540Z</time>
      </trkpt>
      <trkpt lat="44.46646" lon="5.96373">
        <ele>1031.1999511719</ele>
        <time>2021-10-21T07:28:37.753Z</time>
      </trkpt>
      <trkpt lat="44.46635" lon="5.9639">
        <ele>1031.1999511719</ele>
        <time>2021-10-21T07:28:44.971Z</time>
      </trkpt>
      <trkpt lat="44.46582" lon="5.96447">
        <ele>1031.1999511719</ele>
        <time>2021-10-21T07:28:52.210Z</time>
      </trkpt>
      <trkpt lat="44.46572" lon="5.96462">
        <ele>1031.1999511719</ele>
        <time>2021-10-21T07:28:59.454Z</time>
      </trkpt>
      <trkpt lat="44.4655" lon="5.96527">
        <ele>1009.799987793</ele>
        <time>2021-10-21T07:29:06.713Z</time>
      </trkpt>
      <trkpt lat="44.46537" lon="5.96586">
        <ele>1004</ele>
        <time>2021-10-21T07:29:13.986Z</time>
      </trkpt>
      <trkpt lat="44.46523" lon="5.96613">
        <ele>1000.799987793</ele>
        <time>2021-10-21T07:29:21.267Z</time>
      </trkpt>
      <trkpt lat="44.46518" lon="5.96631">
        <ele>1000.799987793</ele>
        <time>2021-10-21T07:29:28.552Z</time>
      </trkpt>
      <trkpt lat="44.46514" lon="5.96657">
        <ele>1000.799987793</ele>
        <time>2021-10-21T07:29:35.843Z</time>
      </trkpt>
      <trkpt lat="44.46513" lon="5.96659">
        <ele>996.20001220703</ele>
        <time>2021-10-21T07:29:43.135Z</time>
      </trkpt>
      <trkpt lat="44.465" lon="5.96664">
        <ele>996.20001220703</ele>
        <time>2021-10-21T07:29:50.431Z</time>
      </trkpt>
      <trkpt lat="44.46488" lon="5.96673">
        <ele>996.20001220703</ele>
        <time>2021-10-21T07:29:57.731Z</time>
      </trkpt>
      <trkpt lat="44.46455" lon="5.9672">
        <ele>995.59997558594</ele>
        <time>2021-10-21T07:30:05.046Z</time>
      </trkpt>
      <trkpt lat="44.46442" lon="5.96724">
        <ele>995.59997558594</ele>
        <time>2021-10-21T07:30:12.365Z</time>
      </trkpt>
      <trkpt lat="44.46411" lon="5.9671">
        <ele>998.59997558594</ele>
        <time>2021-10-21T07:30:19.694Z</time>
      </trkpt>
      <trkpt lat="44.46368" lon="5.96712">
        <ele>1003.200012207</ele>
        <time>2021-10-21T07:30:27.037Z</time>
      </trkpt>
      <trkpt lat="44.46336" lon="5.96709">
        <ele>1003.200012207</ele>
        <time>2021-10-21T07:30:34.390Z</time>
      </trkpt>
      <trkpt lat="44.46302" lon="5.96703">
        <ele>1003.200012207</ele>
        <time>2021-10-21T07:30:41.753Z</time>
      </trkpt>
      <trkpt lat="44.46287" lon="5.96703">
        <ele>1013</ele>
        <time>2021-10-21T07:30:49.121Z</time>
      </trkpt>
      <trkpt lat="44.46235" lon="5.96716">
        <ele>1013</ele>
        <time>2021-10-21T07:30:56.506Z</time>
      </trkpt>
      <trkpt lat="44.46207" lon="5.9674">
        <ele>1025.4000244141</ele>
        <time>2021-10-21T07:31:03.901Z</time>
      </trkpt>
      <trkpt lat="44.46197" lon="5.96746">
        <ele>1028.1999511719</ele>
        <time>2021-10-21T07:31:11.299Z</time>
      </trkpt>
      <trkpt lat="44.4619" lon="5.96748">
        <ele>1028.1999511719</ele>
        <time>2021-10-21T07:31:18.700Z</time>
      </trkpt>
      <trkpt lat="44.46184" lon="5.96744">
        <ele>1028.1999511719</ele>
        <time>2021-10-21T07:31:26.103Z</time>
      </trkpt>
      <trkpt lat="44.46182" lon="5.96738">
        <ele>1033</ele>
        <time>2021-10-21T07:31:33.507Z</time>
      </trkpt>
      <trkpt lat="44.46181" lon="5.96718">
        <ele>1035.4000244141</ele>
        <time>2021-10-21T07:31:40.916Z</time>
      </trkpt>
      <trkpt lat="44.46178" lon="5.96712">
        <ele>1035.4000244141</ele>
        <time>2021-10-21T07:31:48.326Z</time>
      </trkpt>
      <trkpt lat="44.46176" lon="5.9671">
        <ele>1036.5999755859</ele>
        <time>2021-10-21T07:31:55.737Z</time>
      </trkpt>
      <trkpt lat="44.46164" lon="5.96702">
        <ele>1038.8000488281</ele>
        <time>2021-10-21T07:32:03.152Z</time>
      </trkpt>
      <trkpt lat="44.46129" lon="5.96694">
        <ele>1047</ele>
        <time>2021-10-21T07:32:10.578Z</time>
      </trkpt>
      <trkpt lat="44.46115" lon="5.96697">
        <ele>1047</ele>
        <time>2021-10-21T07:32:18.009Z</time>
      </trkpt>
      <trkpt lat="44.46111" lon="5.96703">
        <ele>1047</ele>
        <time>2021-10-21T07:32:25.441Z</time>
      </trkpt>
      <trkpt lat="44.46107" lon="5.96704">
        <ele>1050.5999755859</ele>
        <time>2021-10-21T07:32:32.875Z</time>
      </trkpt>
      <trkpt lat="44.46086" lon="5.96707">
        <ele>1050.5999755859</ele>
        <time>2021-10-21T07:32:40.315Z</time>
      </trkpt>
      <trkpt lat="44.46085" lon="5.96706">
        <ele>1046.4000244141</ele>
        <time>2021-10-21T07:32:47.756Z</time>
      </trkpt>
      <trkpt lat="44.46084" lon="5.96695">
        <ele>1045.4000244141</ele>
        <time>2021-10-21T07:32:55.199Z</time>
      </trkpt>
      <trkpt lat="44.4608" lon="5.96691">
        <ele>1043.4000244141</ele>
        <time>2021-10-21T07:33:02.644Z</time>
      </trkpt>
      <trkpt lat="44.46065" lon="5.96692">
        <ele>1039</ele>
        <time>2021-10-21T07:33:10.093Z</time>
      </trkpt>
      <trkpt lat="44.46055" lon="5.96685">
        <ele>1034.5999755859</ele>
        <time>2021-10-21T07:33:17.546Z</time>
      </trkpt>
      <trkpt lat="44.46053" lon="5.96685">
        <ele>1034.5999755859</ele>
        <time>2021-10-21T07:33:24.999Z</time>
      </trkpt>
      <trkpt lat="44.4605" lon="5.96689">
        <ele>1034.5999755859</ele>
        <time>2021-10-21T07:33:32.454Z</time>
      </trkpt>
      <trkpt lat="44.46046" lon="5.96707">
        <ele>1034.5999755859</ele>
        <time>2021-10-21T07:33:39.913Z</time>
      </trkpt>
      <trkpt lat="44.46037" lon="5.96714">
        <ele>1034.5999755859</ele>
        <time>2021-10-21T07:33:47.375Z</time>
      </trkpt>
      <trkpt lat="44.46023" lon="5.96717">
        <ele>1034.5999755859</ele>
        <time>2021-10-21T07:33:54.841Z</time>
      </trkpt>
      <trkpt lat="44.46018" lon="5.96712">
        <ele>1034.5999755859</ele>
        <time>2021-10-21T07:34:02.309Z</time>
      </trkpt>
      <trkpt lat="44.46006" lon="5.96707">
        <ele>1019</ele>
        <time>2021-10-21T07:34:09.781Z</time>
      </trkpt>
      <trkpt lat="44.45994" lon="5.9671">
        <ele>1016.4000244141</ele>
        <time>2021-10-21T07:34:17.257Z</time>
      </trkpt>
      <trkpt lat="44.45985" lon="5.96718">
        <ele>1013.799987793</ele>
        <time>2021-10-21T07:34:24.736Z</time>
      </trkpt>
      <trkpt lat="44.45973" lon="5.96732">
        <ele>1013.799987793</ele>
        <time>2021-10-21T07:34:32.220Z</time>
      </trkpt>
      <trkpt lat="44.45965" lon="5.96749">
        <ele>1008.200012207</ele>
        <time>2021-10-21T07:34:39.709Z</time>
      </trkpt>
      <trkpt lat="44.4596" lon="5.96756">
        <ele>1006.200012207</ele>
        <time>2021-10-21T07:34:47.200Z</time>
      </trkpt>
      <trkpt lat="44.45952" lon="5.96761">
        <ele>1003.200012207</ele>
        <time>2021-10-21T07:34:54.694Z</time>
      </trkpt>
      <trkpt lat="44.45945" lon="5.96761">
        <ele>1000.200012207</ele>
        <time>2021-10-21T07:35:02.190Z</time>
      </trkpt>
      <trkpt lat="44.45933" lon="5.96754">
        <ele>1000.200012207</ele>
        <time>2021-10-21T07:35:09.690Z</time>
      </trkpt>
      <trkpt lat="44.4593" lon="5.96737">
        <ele>991.20001220703</ele>
        <time>2021-10-21T07:35:17.194Z</time>
      </trkpt>
      <trkpt lat="44.45926" lon="5.96735">
        <ele>991.20001220703</ele>
        <time>2021-10-21T07:35:24.699Z</time>
      </trkpt>
      <trkpt lat="44.45919" lon="5.96737">
        <ele>988.20001220703</ele>
        <time>2021-10-21T07:35:32.206Z</time>
      </trkpt>
      <trkpt lat="44.459" lon="5.96751">
        <ele>988.20001220703</ele>
        <time>2021-10-21T07:35:39.720Z</time>
      </trkpt>
      <trkpt lat="44.45896" lon="5.96758">
        <ele>988.20001220703</ele>
        <time>2021-10-21T07:35:47.236Z</time>
      </trkpt>
      <trkpt lat="44.45896" lon="5.96767">
        <ele>988.20001220703</ele>
        <time>2021-10-21T07:35:54.754Z</time>
      </trkpt>
      <trkpt lat="44.45891" lon="5.96774">
        <ele>980</ele>
        <time>2021-10-21T07:36:02.274Z</time>
      </trkpt>
      <trkpt lat="44.45886" lon="5.96776">
        <ele>980</ele>
        <time>2021-10-21T07:36:09.796Z</time>
      </trkpt>
      <trkpt lat="44.4588" lon="5.96789">
        <ele>980</ele>
        <time>2021-10-21T07:36:17.321Z</time>
      </trkpt>
      <trkpt lat="44.45864" lon="5.96774">
        <ele>980</ele>
        <time>2021-10-21T07:36:24.852Z</time>
      </trkpt>
      <trkpt lat="44.4586" lon="5.96775">
        <ele>974.20001220703</ele>
        <time>2021-10-21T07:36:32.384Z</time>
      </trkpt>
      <trkpt lat="44.4585" lon="5.96785">
        <ele>972.59997558594</ele>
        <time>2021-10-21T07:36:39.920Z</time>
      </trkpt>
      <trkpt lat="44.45846" lon="5.96786">
        <ele>972.59997558594</ele>
        <time>2021-10-21T07:36:47.457Z</time>
      </trkpt>
      <trkpt lat="44.45844" lon="5.96784">
        <ele>971</ele>
        <time>2021-10-21T07:36:54.995Z</time>
      </trkpt>
      <trkpt lat="44.4584" lon="5.96775">
        <ele>970.59997558594</ele>
        <time>2021-10-21T07:37:02.536Z</time>
      </trkpt>
      <trkpt lat="44.45836" lon="5.96769">
        <ele>970.40002441406</ele>
        <time>2021-10-21T07:37:10.079Z</time>
      </trkpt>
      <trkpt lat="44.45821" lon="5.96759">
        <ele>967.79998779297</ele>
        <time>2021-10-21T07:37:17.627Z</time>
      </trkpt>
      <trkpt lat="44.45802" lon="5.96752">
        <ele>967.79998779297</ele>
        <time>2021-10-21T07:37:25.181Z</time>
      </trkpt>
      <trkpt lat="44.45797" lon="5.96736">
        <ele>967.79998779297</ele>
        <time>2021-10-21T07:37:32.739Z</time>
      </trkpt>
      <trkpt lat="44.45786" lon="5.96717">
        <ele>967.79998779297</ele>
        <time>2021-10-21T07:37:40.302Z</time>
      </trkpt>
      <trkpt lat="44.4577" lon="5.96702">
        <ele>967.79998779297</ele>
        <time>2021-10-21T07:37:47.871Z</time>
      </trkpt>
      <trkpt lat="44.45761" lon="5.96702">
        <ele>945.59997558594</ele>
        <time>2021-10-21T07:37:55.443Z</time>
      </trkpt>
      <trkpt lat="44.45756" lon="5.96706">
        <ele>945.59997558594</ele>
        <time>2021-10-21T07:38:03.017Z</time>
      </trkpt>
      <trkpt lat="44.45746" lon="5.96717">
        <ele>941.79998779297</ele>
        <time>2021-10-21T07:38:10.595Z</time>
      </trkpt>
      <trkpt lat="44.45743" lon="5.96718">
        <ele>941.79998779297</ele>
        <time>2021-10-21T07:38:18.174Z</time>
      </trkpt>
      <trkpt lat="44.45742" lon="5.96716">
        <ele>940.79998779297</ele>
        <time>2021-10-21T07:38:25.753Z</time>
      </trkpt>
      <trkpt lat="44.45737" lon="5.96694">
        <ele>940.79998779297</ele>
        <time>2021-10-21T07:38:33.338Z</time>
      </trkpt>
      <trkpt lat="44.4572" lon="5.96646">
        <ele>940.79998779297</ele>
        <time>2021-10-21T07:38:40.935Z</time>
      </trkpt>
      <trkpt lat="44.45712" lon="5.96637">
        <ele>940.79998779297</ele>
        <time>2021-10-21T07:38:48.535Z</time>
      </trkpt>
      <trkpt lat="44.45708" lon="5.96624">
        <ele>940.79998779297</ele>
        <time>2021-10-21T07:38:56.138Z</time>
      </trkpt>
      <trkpt lat="44.457" lon="5.96612">
        <ele>930.20001220703</ele>
        <time>2021-10-21T07:39:03.744Z</time>
      </trkpt>
      <trkpt lat="44.45696" lon="5.96609">
        <ele>930.20001220703</ele>
        <time>2021-10-21T07:39:11.352Z</time>
      </trkpt>
      <trkpt lat="44.45691" lon="5.96585">
        <ele>930.20001220703</ele>
        <time>2021-10-21T07:39:18.966Z</time>
      </trkpt>
      <trkpt lat="44.45683" lon="5.9657">
        <ele>925.59997558594</ele>
        <time>2021-10-21T07:39:26.584Z</time>
      </trkpt>
      <trkpt lat="44.45678" lon="5.96533">
        <ele>925.59997558594</ele>
        <time>2021-10-21T07:39:34.210Z</time>
      </trkpt>
      <trkpt lat="44.45676" lon="5.96527">
        <ele>922.40002441406</ele>
        <time>2021-10-21T07:39:41.838Z</time>
      </trkpt>
      <trkpt lat="44.45667" lon="5.96517">
        <ele>922.40002441406</ele>
        <time>2021-10-21T07:39:49.469Z</time>
      </trkpt>
      <trkpt lat="44.45656" lon="5.96513">
        <ele>921.20001220703</ele>
        <time>2021-10-21T07:39:57.104Z</time>
      </trkpt>
      <trkpt lat="44.45644" lon="5.96504">
        <ele>919.79998779297</ele>
        <time>2021-10-21T07:40:04.743Z</time>
      </trkpt>
      <trkpt lat="44.45636" lon="5.96501">
        <ele>919.79998779297</ele>
        <time>2021-10-21T07:40:12.385Z</time>
      </trkpt>
      <trkpt lat="44.45627" lon="5.965">
        <ele>919.79998779297</ele>
        <time>2021-10-21T07:40:20.029Z</time>
      </trkpt>
      <trkpt lat="44.4562" lon="5.96501">
        <ele>919.79998779297</ele>
        <time>2021-10-21T07:40:27.676Z</time>
      </trkpt>
      <trkpt lat="44.45612" lon="5.96488">
        <ele>916.20001220703</ele>
        <time>2021-10-21T07:40:35.327Z</time>
      </trkpt>
      <trkpt lat="44.4559" lon="5.96471">
        <ele>916.79998779297</ele>
        <time>2021-10-21T07:40:42.985Z</time>
      </trkpt>
      <trkpt lat="44.45578" lon="5.96472">
        <ele>917.59997558594</ele>
        <time>2021-10-21T07:40:50.647Z</time>
      </trkpt>
      <trkpt lat="44.45571" lon="5.96465">
        <ele>918.59997558594</ele>
        <time>2021-10-21T07:40:58.312Z</time>
      </trkpt>
      <trkpt lat="44.4556" lon="5.96459">
        <ele>919.79998779297</ele>
        <time>2021-10-21T07:41:05.981Z</time>
      </trkpt>
      <trkpt lat="44.45539" lon="5.96457">
        <ele>921</ele>
        <time>2021-10-21T07:41:13.656Z</time>
      </trkpt>
      <trkpt lat="44.45531" lon="5.96449">
        <ele>921</ele>
        <time>2021-10-21T07:41:21.334Z</time>
      </trkpt>
      <trkpt lat="44.45503" lon="5.96431">
        <ele>921</ele>
        <time>2021-10-21T07:41:29.022Z</time>
      </trkpt>
      <trkpt lat="44.4549" lon="5.9642">
        <ele>921.59997558594</ele>
        <time>2021-10-21T07:41:36.715Z</time>
      </trkpt>
      <trkpt lat="44.45461" lon="5.96411">
        <ele>921.59997558594</ele>
        <time>2021-10-21T07:41:44.417Z</time>
      </trkpt>
      <trkpt lat="44.45434" lon="5.9642">
        <ele>919.59997558594</ele>
        <time>2021-10-21T07:41:52.128Z</time>
      </trkpt>
      <trkpt lat="44.4543" lon="5.96418">
        <ele>919.59997558594</ele>
        <time>2021-10-21T07:41:59.840Z</time>
      </trkpt>
      <trkpt lat="44.45393" lon="5.96388">
        <ele>917.79998779297</ele>
        <time>2021-10-21T07:42:07.565Z</time>
      </trkpt>
      <trkpt lat="44.45389" lon="5.96368">
        <ele>917.79998779297</ele>
        <time>2021-10-21T07:42:15.295Z</time>
      </trkpt>
      <trkpt lat="44.45396" lon="5.96326">
        <ele>917.79998779297</ele>
        <time>2021-10-21T07:42:23.035Z</time>
      </trkpt>
      <trkpt lat="44.45396" lon="5.96324">
        <ele>916.20001220703</ele>
        <time>2021-10-21T07:42:30.775Z</time>
      </trkpt>
      <trkpt lat="44.45391" lon="5.96322">
        <ele>916.20001220703</ele>
        <time>2021-10-21T07:42:38.517Z</time>
      </trkpt>
      <trkpt lat="44.45386" lon="5.96312">
        <ele>916.20001220703</ele>
        <time>2021-10-21T07:42:46.261Z</time>
      </trkpt>
      <trkpt lat="44.45374" lon="5.96303">
        <ele>907.79998779297</ele>
        <time>2021-10-21T07:42:54.010Z</time>
      </trkpt>
      <trkpt lat="44.45374" lon="5.96289">
        <ele>907.79998779297</ele>
        <time>2021-10-21T07:43:01.762Z</time>
      </trkpt>
      <trkpt lat="44.4537" lon="5.9628">
        <ele>907.79998779297</ele>
        <time>2021-10-21T07:43:09.516Z</time>
      </trkpt>
      <trkpt lat="44.4537" lon="5.96271">
        <ele>900.79998779297</ele>
        <time>2021-10-21T07:43:17.272Z</time>
      </trkpt>
      <trkpt lat="44.45376" lon="5.96263">
        <ele>900.79998779297</ele>
        <time>2021-10-21T07:43:25.031Z</time>
      </trkpt>
      <trkpt lat="44.45377" lon="5.96257">
        <ele>898.40002441406</ele>
        <time>2021-10-21T07:43:32.791Z</time>
      </trkpt>
      <trkpt lat="44.45369" lon="5.96243">
        <ele>898.40002441406</ele>
        <time>2021-10-21T07:43:40.555Z</time>
      </trkpt>
      <trkpt lat="44.45368" lon="5.96232">
        <ele>898.40002441406</ele>
        <time>2021-10-21T07:43:48.322Z</time>
      </trkpt>
      <trkpt lat="44.45377" lon="5.96218">
        <ele>898.40002441406</ele>
        <time>2021-10-21T07:43:56.093Z</time>
      </trkpt>
      <trkpt lat="44.45375" lon="5.96214">
        <ele>898.40002441406</ele>
        <time>2021-10-21T07:44:03.865Z</time>
      </trkpt>
      <trkpt lat="44.45369" lon="5.96208">
        <ele>890.59997558594</ele>
        <time>2021-10-21T07:44:11.639Z</time>
      </trkpt>
      <trkpt lat="44.45357" lon="5.96202">
        <ele>890.59997558594</ele>
        <time>2021-10-21T07:44:19.417Z</time>
      </trkpt>
      <trkpt lat="44.45348" lon="5.96201">
        <ele>890.59997558594</ele>
        <time>2021-10-21T07:44:27.198Z</time>
      </trkpt>
      <trkpt lat="44.45336" lon="5.96191">
        <ele>880.79998779297</ele>
        <time>2021-10-21T07:44:34.983Z</time>
      </trkpt>
      <trkpt lat="44.45328" lon="5.96195">
        <ele>878.59997558594</ele>
        <time>2021-10-21T07:44:42.771Z</time>
      </trkpt>
      <trkpt lat="44.4531" lon="5.96193">
        <ele>878.59997558594</ele>
        <time>2021-10-21T07:44:50.565Z</time>
      </trkpt>
      <trkpt lat="44.45306" lon="5.96189">
        <ele>878.59997558594</ele>
        <time>2021-10-21T07:44:58.360Z</time>
      </trkpt>
      <trkpt lat="44.45301" lon="5.96187">
        <ele>878.59997558594</ele>
        <time>2021-10-21T07:45:06.157Z</time>
      </trkpt>
      <trkpt lat="44.45292" lon="5.96175">
        <ele>866.20001220703</ele>
        <time>2021-10-21T07:45:13.958Z</time>
      </trkpt>
      <trkpt lat="44.4529" lon="5.96175">
        <ele>866.20001220703</ele>
        <time>2021-10-21T07:45:21.760Z</time>
      </trkpt>
      <trkpt lat="44.45285" lon="5.96177">
        <ele>866.20001220703</ele>
        <time>2021-10-21T07:45:29.563Z</time>
      </trkpt>
      <trkpt lat="44.45284" lon="5.96184">
        <ele>862.40002441406</ele>
        <time>2021-10-21T07:45:37.368Z</time>
      </trkpt>
      <trkpt lat="44.4527" lon="5.96193">
        <ele>863.59997558594</ele>
        <time>2021-10-21T07:45:45.178Z</time>
      </trkpt>
      <trkpt lat="44.45263" lon="5.96194">
        <ele>863.59997558594</ele>
        <time>2021-10-21T07:45:52.990Z</time>
      </trkpt>
      <trkpt lat="44.45259" lon="5.96189">
        <ele>867.79998779297</ele>
        <time>2021-10-21T07:46:00.803Z</time>
      </trkpt>
      <trkpt lat="44.45252" lon="5.96191">
        <ele>871.20001220703</ele>
        <time>2021-10-21T07:46:08.618Z</time>
      </trkpt>
      <trkpt lat="44.45242" lon="5.96187">
        <ele>871.20001220703</ele>
        <time>2021-10-21T07:46:16.437Z</time>
      </trkpt>
      <trkpt lat="44.45229" lon="5.96169">
        <ele>871.20001220703</ele>
        <time>2021-10-21T07:46:24.262Z</time>
      </trkpt>
      <trkpt lat="44.45206" lon="5.96153">
        <ele>866.40002441406</ele>
        <time>2021-10-21T07:46:32.095Z</time>
      </trkpt>
      <trkpt lat="44.45178" lon="5.96117">
        <ele>862.79998779297</ele>
        <time>2021-10-21T07:46:39.939Z</time>
      </trkpt>
      <trkpt lat="44.45098" lon="5.96042">
        <ele>855.20001220703</ele>
        <time>2021-10-21T07:46:47.813Z</time>
      </trkpt>
      <trkpt lat="44.45079" lon="5.96038">
        <ele>855.20001220703</ele>
        <time>2021-10-21T07:46:55.693Z</time>
      </trkpt>
      <trkpt lat="44.45068" lon="5.96053">
        <ele>846.40002441406</ele>
        <time>2021-10-21T07:47:03.578Z</time>
      </trkpt>
      <trkpt lat="44.45063" lon="5.96055">
        <ele>846.40002441406</ele>
        <time>2021-10-21T07:47:11.465Z</time>
      </trkpt>
      <trkpt lat="44.45059" lon="5.96054">
        <ele>845.59997558594</ele>
        <time>2021-10-21T07:47:19.353Z</time>
      </trkpt>
      <trkpt lat="44.45047" lon="5.96046">
        <ele>845.59997558594</ele>
        <time>2021-10-21T07:47:27.246Z</time>
      </trkpt>
      <trkpt lat="44.45031" lon="5.96038">
        <ele>847</ele>
        <time>2021-10-21T07:47:35.144Z</time>
      </trkpt>
      <trkpt lat="44.45015" lon="5.96027">
        <ele>848</ele>
        <time>2021-10-21T07:47:43.047Z</time>
      </trkpt>
      <trkpt lat="44.44986" lon="5.96012">
        <ele>848</ele>
        <time>2021-10-21T07:47:50.960Z</time>
      </trkpt>
      <trkpt lat="44.44975" lon="5.96001">
        <ele>848</ele>
        <time>2021-10-21T07:47:58.877Z</time>
      </trkpt>
      <trkpt lat="44.44943" lon="5.95996">
        <ele>848</ele>
        <time>2021-10-21T07:48:06.804Z</time>
      </trkpt>
      <trkpt lat="44.44937" lon="5.95997">
        <ele>855.40002441406</ele>
        <time>2021-10-21T07:48:14.733Z</time>
      </trkpt>
      <trkpt lat="44.4492" lon="5.96009">
        <ele>855.40002441406</ele>
        <time>2021-10-21T07:48:22.668Z</time>
      </trkpt>
      <trkpt lat="44.44904" lon="5.96031">
        <ele>854</ele>
        <time>2021-10-21T07:48:30.610Z</time>
      </trkpt>
      <trkpt lat="44.44891" lon="5.9604">
        <ele>852.59997558594</ele>
        <time>2021-10-21T07:48:38.557Z</time>
      </trkpt>
      <trkpt lat="44.44851" lon="5.96047">
        <ele>852.59997558594</ele>
        <time>2021-10-21T07:48:46.516Z</time>
      </trkpt>
      <trkpt lat="44.4483" lon="5.96057">
        <ele>852.59997558594</ele>
        <time>2021-10-21T07:48:54.482Z</time>
      </trkpt>
      <trkpt lat="44.44811" lon="5.96057">
        <ele>846.59997558594</ele>
        <time>2021-10-21T07:49:02.454Z</time>
      </trkpt>
      <trkpt lat="44.44766" lon="5.96052">
        <ele>846.59997558594</ele>
        <time>2021-10-21T07:49:10.440Z</time>
      </trkpt>
      <trkpt lat="44.44718" lon="5.96051">
        <ele>846.59997558594</ele>
        <time>2021-10-21T07:49:18.441Z</time>
      </trkpt>
      <trkpt lat="44.44651" lon="5.96046">
        <ele>837.59997558594</ele>
        <time>2021-10-21T07:49:26.463Z</time>
      </trkpt>
      <trkpt lat="44.44629" lon="5.96047">
        <ele>835.79998779297</ele>
        <time>2021-10-21T07:49:34.492Z</time>
      </trkpt>
      <trkpt lat="44.44614" lon="5.96053">
        <ele>835.79998779297</ele>
        <time>2021-10-21T07:49:42.526Z</time>
      </trkpt>
      <trkpt lat="44.446" lon="5.96061">
        <ele>834.40002441406</ele>
        <time>2021-10-21T07:49:50.565Z</time>
      </trkpt>
      <trkpt lat="44.44587" lon="5.96071">
        <ele>833.40002441406</ele>
        <time>2021-10-21T07:49:58.608Z</time>
      </trkpt>
      <trkpt lat="44.44577" lon="5.96086">
        <ele>833.40002441406</ele>
        <time>2021-10-21T07:50:06.656Z</time>
      </trkpt>
      <trkpt lat="44.44568" lon="5.96139">
        <ele>833.40002441406</ele>
        <time>2021-10-21T07:50:14.716Z</time>
      </trkpt>
      <trkpt lat="44.44566" lon="5.96145">
        <ele>832</ele>
        <time>2021-10-21T07:50:22.778Z</time>
      </trkpt>
      <trkpt lat="44.44556" lon="5.96159">
        <ele>832</ele>
        <time>2021-10-21T07:50:30.844Z</time>
      </trkpt>
      <trkpt lat="44.44542" lon="5.96159">
        <ele>832.79998779297</ele>
        <time>2021-10-21T07:50:38.914Z</time>
      </trkpt>
      <trkpt lat="44.44526" lon="5.96144">
        <ele>832.79998779297</ele>
        <time>2021-10-21T07:50:46.990Z</time>
      </trkpt>
      <trkpt lat="44.44516" lon="5.96137">
        <ele>835</ele>
        <time>2021-10-21T07:50:55.070Z</time>
      </trkpt>
      <trkpt lat="44.44509" lon="5.96134">
        <ele>835</ele>
        <time>2021-10-21T07:51:03.152Z</time>
      </trkpt>
      <trkpt lat="44.44482" lon="5.96136">
        <ele>837.40002441406</ele>
        <time>2021-10-21T07:51:11.243Z</time>
      </trkpt>
      <trkpt lat="44.4444" lon="5.96132">
        <ele>838.20001220703</ele>
        <time>2021-10-21T07:51:19.347Z</time>
      </trkpt>
      <trkpt lat="44.44421" lon="5.96142">
        <ele>838.20001220703</ele>
        <time>2021-10-21T07:51:27.457Z</time>
      </trkpt>
      <trkpt lat="44.44409" lon="5.9616">
        <ele>838.20001220703</ele>
        <time>2021-10-21T07:51:35.573Z</time>
      </trkpt>
      <trkpt lat="44.44403" lon="5.96189">
        <ele>835.20001220703</ele>
        <time>2021-10-21T07:51:43.696Z</time>
      </trkpt>
      <trkpt lat="44.44398" lon="5.96223">
        <ele>833.79998779297</ele>
        <time>2021-10-21T07:51:51.827Z</time>
      </trkpt>
      <trkpt lat="44.44393" lon="5.9624">
        <ele>833.79998779297</ele>
        <time>2021-10-21T07:51:59.962Z</time>
      </trkpt>
      <trkpt lat="44.44389" lon="5.96257">
        <ele>832.79998779297</ele>
        <time>2021-10-21T07:52:08.101Z</time>
      </trkpt>
      <trkpt lat="44.44373" lon="5.96293">
        <ele>832.79998779297</ele>
        <time>2021-10-21T07:52:16.249Z</time>
      </trkpt>
      <trkpt lat="44.44362" lon="5.96309">
        <ele>832</ele>
        <time>2021-10-21T07:52:24.402Z</time>
      </trkpt>
      <trkpt lat="44.44324" lon="5.96339">
        <ele>832</ele>
        <time>2021-10-21T07:52:32.569Z</time>
      </trkpt>
      <trkpt lat="44.44314" lon="5.96349">
        <ele>830.59997558594</ele>
        <time>2021-10-21T07:52:40.739Z</time>
      </trkpt>
      <trkpt lat="44.44295" lon="5.96375">
        <ele>830.59997558594</ele>
        <time>2021-10-21T07:52:48.918Z</time>
      </trkpt>
      <trkpt lat="44.44282" lon="5.96397">
        <ele>828.20001220703</ele>
        <time>2021-10-21T07:52:57.103Z</time>
      </trkpt>
      <trkpt lat="44.4427" lon="5.96425">
        <ele>828.20001220703</ele>
        <time>2021-10-21T07:53:05.295Z</time>
      </trkpt>
      <trkpt lat="44.44252" lon="5.96487">
        <ele>828.20001220703</ele>
        <time>2021-10-21T07:53:13.502Z</time>
      </trkpt>
      <trkpt lat="44.44226" lon="5.96556">
        <ele>821.40002441406</ele>
        <time>2021-10-21T07:53:21.727Z</time>
      </trkpt>
      <trkpt lat="44.44227" lon="5.96587">
        <ele>821.40002441406</ele>
        <time>2021-10-21T07:53:29.959Z</time>
      </trkpt>
      <trkpt lat="44.44238" lon="5.96614">
        <ele>819.59997558594</ele>
        <time>2021-10-21T07:53:38.198Z</time>
      </trkpt>
      <trkpt lat="44.44277" lon="5.96684">
        <ele>819.59997558594</ele>
        <time>2021-10-21T07:53:46.457Z</time>
      </trkpt>
      <trkpt lat="44.44289" lon="5.9671">
        <ele>816.79998779297</ele>
        <time>2021-10-21T07:53:54.723Z</time>
      </trkpt>
      <trkpt lat="44.44292" lon="5.96729">
        <ele>816.79998779297</ele>
        <time>2021-10-21T07:54:02.993Z</time>
      </trkpt>
      <trkpt lat="44.44286" lon="5.96753">
        <ele>816</ele>
        <time>2021-10-21T07:54:11.269Z</time>
      </trkpt>
      <trkpt lat="44.44248" lon="5.96785">
        <ele>816</ele>
        <time>2021-10-21T07:54:19.559Z</time>
      </trkpt>
      <trkpt lat="44.44067" lon="5.96968">
        <ele>816</ele>
        <time>2021-10-21T07:54:27.918Z</time>
      </trkpt>
      <trkpt lat="44.44047" lon="5.96986">
        <ele>816</ele>
        <time>2021-10-21T07:54:36.285Z</time>
      </trkpt>
      <trkpt lat="44.44024" lon="5.96994">
        <ele>800.79998779297</ele>
        <time>2021-10-21T07:54:44.659Z</time>
      </trkpt>
      <trkpt lat="44.43983" lon="5.96991">
        <ele>800.79998779297</ele>
        <time>2021-10-21T07:54:53.046Z</time>
      </trkpt>
      <trkpt lat="44.43954" lon="5.96986">
        <ele>800.79998779297</ele>
        <time>2021-10-21T07:55:01.442Z</time>
      </trkpt>
      <trkpt lat="44.43944" lon="5.96987">
        <ele>794.20001220703</ele>
        <time>2021-10-21T07:55:09.841Z</time>
      </trkpt>
      <trkpt lat="44.43941" lon="5.97">
        <ele>794.20001220703</ele>
        <time>2021-10-21T07:55:18.243Z</time>
      </trkpt>
      <trkpt lat="44.43943" lon="5.9701">
        <ele>793</ele>
        <time>2021-10-21T07:55:26.648Z</time>
      </trkpt>
      <trkpt lat="44.43949" lon="5.97026">
        <ele>793</ele>
        <time>2021-10-21T07:55:35.057Z</time>
      </trkpt>
      <trkpt lat="44.43981" lon="5.97073">
        <ele>793</ele>
        <time>2021-10-21T07:55:43.480Z</time>
      </trkpt>
      <trkpt lat="44.43986" lon="5.97087">
        <ele>791</ele>
        <time>2021-10-21T07:55:51.907Z</time>
      </trkpt>
      <trkpt lat="44.43986" lon="5.97111">
        <ele>791</ele>
        <time>2021-10-21T07:56:00.339Z</time>
      </trkpt>
      <trkpt lat="44.43974" lon="5.97136">
        <ele>790.79998779297</ele>
        <time>2021-10-21T07:56:08.778Z</time>
      </trkpt>
      <trkpt lat="44.43958" lon="5.9716">
        <ele>791.79998779297</ele>
        <time>2021-10-21T07:56:17.225Z</time>
      </trkpt>
      <trkpt lat="44.43948" lon="5.97185">
        <ele>791.79998779297</ele>
        <time>2021-10-21T07:56:25.678Z</time>
      </trkpt>
      <trkpt lat="44.43886" lon="5.97495">
        <ele>791.79998779297</ele>
        <time>2021-10-21T07:56:34.203Z</time>
      </trkpt>
      <trkpt lat="44.4387" lon="5.97555">
        <ele>791.79998779297</ele>
        <time>2021-10-21T07:56:42.742Z</time>
      </trkpt>
      <trkpt lat="44.43775" lon="5.97812">
        <ele>791.79998779297</ele>
        <time>2021-10-21T07:56:51.346Z</time>
      </trkpt>
      <trkpt lat="44.43768" lon="5.97842">
        <ele>811.40002441406</ele>
        <time>2021-10-21T07:56:59.957Z</time>
      </trkpt>
      <trkpt lat="44.43756" lon="5.97873">
        <ele>811.40002441406</ele>
        <time>2021-10-21T07:57:08.576Z</time>
      </trkpt>
      <trkpt lat="44.43742" lon="5.97935">
        <ele>812.20001220703</ele>
        <time>2021-10-21T07:57:17.210Z</time>
      </trkpt>
      <trkpt lat="44.43737" lon="5.97949">
        <ele>812.20001220703</ele>
        <time>2021-10-21T07:57:25.847Z</time>
      </trkpt>
      <trkpt lat="44.43722" lon="5.97955">
        <ele>807.20001220703</ele>
        <time>2021-10-21T07:57:34.489Z</time>
      </trkpt>
      <trkpt lat="44.43708" lon="5.97967">
        <ele>807.20001220703</ele>
        <time>2021-10-21T07:57:43.136Z</time>
      </trkpt>
      <trkpt lat="44.43677" lon="5.98013">
        <ele>817.20001220703</ele>
        <time>2021-10-21T07:57:51.797Z</time>
      </trkpt>
      <trkpt lat="44.43668" lon="5.98023">
        <ele>818.59997558594</ele>
        <time>2021-10-21T07:58:00.462Z</time>
      </trkpt>
      <trkpt lat="44.4364" lon="5.98037">
        <ele>818.59997558594</ele>
        <time>2021-10-21T07:58:09.136Z</time>
      </trkpt>
      <trkpt lat="44.43607" lon="5.98051">
        <ele>818.59997558594</ele>
        <time>2021-10-21T07:58:17.821Z</time>
      </trkpt>
      <trkpt lat="44.43573" lon="5.98061">
        <ele>832.40002441406</ele>
        <time>2021-10-21T07:58:26.517Z</time>
      </trkpt>
      <trkpt lat="44.4356" lon="5.98062">
        <ele>834.59997558594</ele>
        <time>2021-10-21T07:58:35.217Z</time>
      </trkpt>
      <trkpt lat="44.43527" lon="5.98093">
        <ele>839.20001220703</ele>
        <time>2021-10-21T07:58:43.929Z</time>
      </trkpt>
      <trkpt lat="44.43522" lon="5.981">
        <ele>839.20001220703</ele>
        <time>2021-10-21T07:58:52.644Z</time>
      </trkpt>
      <trkpt lat="44.43521" lon="5.98118">
        <ele>840</ele>
        <time>2021-10-21T07:59:01.363Z</time>
      </trkpt>
      <trkpt lat="44.43527" lon="5.98138">
        <ele>841.20001220703</ele>
        <time>2021-10-21T07:59:10.086Z</time>
      </trkpt>
      <trkpt lat="44.43531" lon="5.98141">
        <ele>841.59997558594</ele>
        <time>2021-10-21T07:59:18.811Z</time>
      </trkpt>
      <trkpt lat="44.43535" lon="5.98138">
        <ele>841.59997558594</ele>
        <time>2021-10-21T07:59:27.538Z</time>
      </trkpt>
      <trkpt lat="44.4354" lon="5.98138">
        <ele>842.20001220703</ele>
        <time>2021-10-21T07:59:36.266Z</time>
      </trkpt>
      <trkpt lat="44.43552" lon="5.98144">
        <ele>842.20001220703</ele>
        <time>2021-10-21T07:59:44.998Z</time>
      </trkpt>
      <trkpt lat="44.43559" lon="5.98151">
        <ele>842.20001220703</ele>
        <time>2021-10-21T07:59:53.733Z</time>
      </trkpt>
      <trkpt lat="44.4357" lon="5.98164">
        <ele>846</ele>
        <time>2021-10-21T08:00:02.472Z</time>
      </trkpt>
      <trkpt lat="44.43617" lon="5.98192">
        <ele>853.20001220703</ele>
        <time>2021-10-21T08:00:11.227Z</time>
      </trkpt>
      <trkpt lat="44.43625" lon="5.982">
        <ele>855.20001220703</ele>
        <time>2021-10-21T08:00:19.985Z</time>
      </trkpt>
      <trkpt lat="44.43634" lon="5.98218">
        <ele>855.20001220703</ele>
        <time>2021-10-21T08:00:28.748Z</time>
      </trkpt>
      <trkpt lat="44.43637" lon="5.98235">
        <ele>860.20001220703</ele>
        <time>2021-10-21T08:00:37.515Z</time>
      </trkpt>
      <trkpt lat="44.43629" lon="5.98278">
        <ele>865</ele>
        <time>2021-10-21T08:00:46.292Z</time>
      </trkpt>
      <trkpt lat="44.43624" lon="5.98324">
        <ele>867.20001220703</ele>
        <time>2021-10-21T08:00:55.079Z</time>
      </trkpt>
      <trkpt lat="44.43624" lon="5.98346">
        <ele>868.40002441406</ele>
        <time>2021-10-21T08:01:03.871Z</time>
      </trkpt>
      <trkpt lat="44.43629" lon="5.98371">
        <ele>871.40002441406</ele>
        <time>2021-10-21T08:01:12.669Z</time>
      </trkpt>
      <trkpt lat="44.43632" lon="5.98376">
        <ele>871.40002441406</ele>
        <time>2021-10-21T08:01:21.468Z</time>
      </trkpt>
      <trkpt lat="44.43637" lon="5.98378">
        <ele>874.59997558594</ele>
        <time>2021-10-21T08:01:30.269Z</time>
      </trkpt>
      <trkpt lat="44.4364" lon="5.98387">
        <ele>874.59997558594</ele>
        <time>2021-10-21T08:01:39.072Z</time>
      </trkpt>
      <trkpt lat="44.43641" lon="5.98409">
        <ele>874.59997558594</ele>
        <time>2021-10-21T08:01:47.880Z</time>
      </trkpt>
      <trkpt lat="44.43649" lon="5.98434">
        <ele>874.59997558594</ele>
        <time>2021-10-21T08:01:56.694Z</time>
      </trkpt>
      <trkpt lat="44.43656" lon="5.98461">
        <ele>874.59997558594</ele>
        <time>2021-10-21T08:02:05.515Z</time>
      </trkpt>
      <trkpt lat="44.43661" lon="5.98509">
        <ele>888.59997558594</ele>
        <time>2021-10-21T08:02:14.346Z</time>
      </trkpt>
      <trkpt lat="44.43661" lon="5.98533">
        <ele>888.59997558594</ele>
        <time>2021-10-21T08:02:23.183Z</time>
      </trkpt>
      <trkpt lat="44.43674" lon="5.98587">
        <ele>888.59997558594</ele>
        <time>2021-10-21T08:02:32.033Z</time>
      </trkpt>
      <trkpt lat="44.4368" lon="5.98608">
        <ele>888.59997558594</ele>
        <time>2021-10-21T08:02:40.888Z</time>
      </trkpt>
      <trkpt lat="44.43687" lon="5.98642">
        <ele>888.59997558594</ele>
        <time>2021-10-21T08:02:49.751Z</time>
      </trkpt>
      <trkpt lat="44.43694" lon="5.9866">
        <ele>888.59997558594</ele>
        <time>2021-10-21T08:02:58.618Z</time>
      </trkpt>
      <trkpt lat="44.43703" lon="5.98675">
        <ele>907.79998779297</ele>
        <time>2021-10-21T08:03:07.490Z</time>
      </trkpt>
      <trkpt lat="44.43709" lon="5.98682">
        <ele>907.79998779297</ele>
        <time>2021-10-21T08:03:16.364Z</time>
      </trkpt>
      <trkpt lat="44.43712" lon="5.98691">
        <ele>911</ele>
        <time>2021-10-21T08:03:25.240Z</time>
      </trkpt>
      <trkpt lat="44.43729" lon="5.98722">
        <ele>911</ele>
        <time>2021-10-21T08:03:34.125Z</time>
      </trkpt>
      <trkpt lat="44.43744" lon="5.98775">
        <ele>924</ele>
        <time>2021-10-21T08:03:43.023Z</time>
      </trkpt>
      <trkpt lat="44.43748" lon="5.98807">
        <ele>928</ele>
        <time>2021-10-21T08:03:51.928Z</time>
      </trkpt>
      <trkpt lat="44.43751" lon="5.98815">
        <ele>928</ele>
        <time>2021-10-21T08:04:00.835Z</time>
      </trkpt>
      <trkpt lat="44.43762" lon="5.98835">
        <ele>932.40002441406</ele>
        <time>2021-10-21T08:04:09.748Z</time>
      </trkpt>
      <trkpt lat="44.43762" lon="5.98843">
        <ele>932.40002441406</ele>
        <time>2021-10-21T08:04:18.663Z</time>
      </trkpt>
      <trkpt lat="44.43746" lon="5.98894">
        <ele>932.20001220703</ele>
        <time>2021-10-21T08:04:27.590Z</time>
      </trkpt>
      <trkpt lat="44.43744" lon="5.98921">
        <ele>929.79998779297</ele>
        <time>2021-10-21T08:04:36.523Z</time>
      </trkpt>
      <trkpt lat="44.43739" lon="5.98939">
        <ele>928.79998779297</ele>
        <time>2021-10-21T08:04:45.461Z</time>
      </trkpt>
      <trkpt lat="44.43735" lon="5.98973">
        <ele>929.79998779297</ele>
        <time>2021-10-21T08:04:54.406Z</time>
      </trkpt>
      <trkpt lat="44.43733" lon="5.98995">
        <ele>929.79998779297</ele>
        <time>2021-10-21T08:05:03.356Z</time>
      </trkpt>
      <trkpt lat="44.43734" lon="5.99024">
        <ele>929.79998779297</ele>
        <time>2021-10-21T08:05:12.313Z</time>
      </trkpt>
      <trkpt lat="44.43733" lon="5.9904">
        <ele>929.79998779297</ele>
        <time>2021-10-21T08:05:21.273Z</time>
      </trkpt>
      <trkpt lat="44.43729" lon="5.99051">
        <ele>929.79998779297</ele>
        <time>2021-10-21T08:05:30.236Z</time>
      </trkpt>
      <trkpt lat="44.43729" lon="5.99063">
        <ele>934.79998779297</ele>
        <time>2021-10-21T08:05:39.202Z</time>
      </trkpt>
      <trkpt lat="44.43733" lon="5.99086">
        <ele>935.40002441406</ele>
        <time>2021-10-21T08:05:48.173Z</time>
      </trkpt>
      <trkpt lat="44.43734" lon="5.99104">
        <ele>937.59997558594</ele>
        <time>2021-10-21T08:05:57.148Z</time>
      </trkpt>
      <trkpt lat="44.43732" lon="5.99138">
        <ele>937.59997558594</ele>
        <time>2021-10-21T08:06:06.131Z</time>
      </trkpt>
      <trkpt lat="44.43726" lon="5.99176">
        <ele>940.59997558594</ele>
        <time>2021-10-21T08:06:15.122Z</time>
      </trkpt>
      <trkpt lat="44.43721" lon="5.99216">
        <ele>940.59997558594</ele>
        <time>2021-10-21T08:06:24.123Z</time>
      </trkpt>
      <trkpt lat="44.43718" lon="5.99222">
        <ele>935.59997558594</ele>
        <time>2021-10-21T08:06:33.125Z</time>
      </trkpt>
      <trkpt lat="44.4371" lon="5.99226">
        <ele>935.59997558594</ele>
        <time>2021-10-21T08:06:42.130Z</time>
      </trkpt>
      <trkpt lat="44.43696" lon="5.9924">
        <ele>932</ele>
        <time>2021-10-21T08:06:51.140Z</time>
      </trkpt>
      <trkpt lat="44.43689" lon="5.99241">
        <ele>932</ele>
        <time>2021-10-21T08:07:00.152Z</time>
      </trkpt>
      <trkpt lat="44.43677" lon="5.99249">
        <ele>930</ele>
        <time>2021-10-21T08:07:09.169Z</time>
      </trkpt>
      <trkpt lat="44.43674" lon="5.99253">
        <ele>930</ele>
        <time>2021-10-21T08:07:18.187Z</time>
      </trkpt>
      <trkpt lat="44.43658" lon="5.99262">
        <ele>931</ele>
        <time>2021-10-21T08:07:27.210Z</time>
      </trkpt>
      <trkpt lat="44.43643" lon="5.99257">
        <ele>931</ele>
        <time>2021-10-21T08:07:36.238Z</time>
      </trkpt>
      <trkpt lat="44.43638" lon="5.99253">
        <ele>927.20001220703</ele>
        <time>2021-10-21T08:07:45.268Z</time>
      </trkpt>
      <trkpt lat="44.4363" lon="5.99243">
        <ele>925.59997558594</ele>
        <time>2021-10-21T08:07:54.301Z</time>
      </trkpt>
      <trkpt lat="44.436" lon="5.99172">
        <ele>919.79998779297</ele>
        <time>2021-10-21T08:08:03.353Z</time>
      </trkpt>
      <trkpt lat="44.43584" lon="5.99147">
        <ele>919.79998779297</ele>
        <time>2021-10-21T08:08:12.412Z</time>
      </trkpt>
      <trkpt lat="44.43577" lon="5.99142">
        <ele>915</ele>
        <time>2021-10-21T08:08:21.474Z</time>
      </trkpt>
      <trkpt lat="44.43556" lon="5.99132">
        <ele>915</ele>
        <time>2021-10-21T08:08:30.542Z</time>
      </trkpt>
      <trkpt lat="44.43528" lon="5.99105">
        <ele>912.40002441406</ele>
        <time>2021-10-21T08:08:39.621Z</time>
      </trkpt>
      <trkpt lat="44.43516" lon="5.991">
        <ele>912.40002441406</ele>
        <time>2021-10-21T08:08:48.704Z</time>
      </trkpt>
      <trkpt lat="44.43512" lon="5.991">
        <ele>911</ele>
        <time>2021-10-21T08:08:57.788Z</time>
      </trkpt>
      <trkpt lat="44.43506" lon="5.99104">
        <ele>911</ele>
        <time>2021-10-21T08:09:06.874Z</time>
      </trkpt>
      <trkpt lat="44.43499" lon="5.99099">
        <ele>911.79998779297</ele>
        <time>2021-10-21T08:09:15.963Z</time>
      </trkpt>
      <trkpt lat="44.4349" lon="5.99078">
        <ele>908.59997558594</ele>
        <time>2021-10-21T08:09:25.057Z</time>
      </trkpt>
      <trkpt lat="44.43484" lon="5.99068">
        <ele>906.20001220703</ele>
        <time>2021-10-21T08:09:34.154Z</time>
      </trkpt>
      <trkpt lat="44.43471" lon="5.99056">
        <ele>906.20001220703</ele>
        <time>2021-10-21T08:09:43.256Z</time>
      </trkpt>
      <trkpt lat="44.4345" lon="5.99046">
        <ele>906.20001220703</ele>
        <time>2021-10-21T08:09:52.365Z</time>
      </trkpt>
      <trkpt lat="44.43434" lon="5.99046">
        <ele>906.20001220703</ele>
        <time>2021-10-21T08:10:01.479Z</time>
      </trkpt>
      <trkpt lat="44.43423" lon="5.99042">
        <ele>906.20001220703</ele>
        <time>2021-10-21T08:10:10.597Z</time>
      </trkpt>
      <trkpt lat="44.43403" lon="5.9903">
        <ele>906.20001220703</ele>
        <time>2021-10-21T08:10:19.721Z</time>
      </trkpt>
      <trkpt lat="44.43382" lon="5.99018">
        <ele>879.79998779297</ele>
        <time>2021-10-21T08:10:28.852Z</time>
      </trkpt>
      <trkpt lat="44.43375" lon="5.99012">
        <ele>879.79998779297</ele>
        <time>2021-10-21T08:10:37.986Z</time>
      </trkpt>
      <trkpt lat="44.43371" lon="5.99004">
        <ele>879.79998779297</ele>
        <time>2021-10-21T08:10:47.122Z</time>
      </trkpt>
      <trkpt lat="44.43373" lon="5.98997">
        <ele>874.79998779297</ele>
        <time>2021-10-21T08:10:56.260Z</time>
      </trkpt>
      <trkpt lat="44.43381" lon="5.98984">
        <ele>874.79998779297</ele>
        <time>2021-10-21T08:11:05.402Z</time>
      </trkpt>
      <trkpt lat="44.43392" lon="5.98948">
        <ele>874.79998779297</ele>
        <time>2021-10-21T08:11:14.553Z</time>
      </trkpt>
      <trkpt lat="44.43422" lon="5.98911">
        <ele>854.40002441406</ele>
        <time>2021-10-21T08:11:23.716Z</time>
      </trkpt>
      <trkpt lat="44.4343" lon="5.98893">
        <ele>854.40002441406</ele>
        <time>2021-10-21T08:11:32.884Z</time>
      </trkpt>
      <trkpt lat="44.43435" lon="5.98867">
        <ele>845.20001220703</ele>
        <time>2021-10-21T08:11:42.058Z</time>
      </trkpt>
      <trkpt lat="44.43433" lon="5.98861">
        <ele>842.59997558594</ele>
        <time>2021-10-21T08:11:51.233Z</time>
      </trkpt>
      <trkpt lat="44.43427" lon="5.98855">
        <ele>842.59997558594</ele>
        <time>2021-10-21T08:12:00.410Z</time>
      </trkpt>
      <trkpt lat="44.43406" lon="5.98849">
        <ele>842.59997558594</ele>
        <time>2021-10-21T08:12:09.594Z</time>
      </trkpt>
      <trkpt lat="44.43368" lon="5.9885">
        <ele>842.59997558594</ele>
        <time>2021-10-21T08:12:18.790Z</time>
      </trkpt>
      <trkpt lat="44.4335" lon="5.98843">
        <ele>830</ele>
        <time>2021-10-21T08:12:27.992Z</time>
      </trkpt>
      <trkpt lat="44.43337" lon="5.98834">
        <ele>826.59997558594</ele>
        <time>2021-10-21T08:12:37.198Z</time>
      </trkpt>
      <trkpt lat="44.43323" lon="5.98828">
        <ele>826.59997558594</ele>
        <time>2021-10-21T08:12:46.409Z</time>
      </trkpt>
      <trkpt lat="44.43299" lon="5.98819">
        <ele>820.20001220703</ele>
        <time>2021-10-21T08:12:55.628Z</time>
      </trkpt>
      <trkpt lat="44.43293" lon="5.98819">
        <ele>820.20001220703</ele>
        <time>2021-10-21T08:13:04.849Z</time>
      </trkpt>
      <trkpt lat="44.43276" lon="5.98821">
        <ele>818.40002441406</ele>
        <time>2021-10-21T08:13:14.075Z</time>
      </trkpt>
      <trkpt lat="44.43262" lon="5.98828">
        <ele>818.40002441406</ele>
        <time>2021-10-21T08:13:23.305Z</time>
      </trkpt>
      <trkpt lat="44.43247" lon="5.98831">
        <ele>818.40002441406</ele>
        <time>2021-10-21T08:13:32.540Z</time>
      </trkpt>
      <trkpt lat="44.43235" lon="5.98835">
        <ele>818.40002441406</ele>
        <time>2021-10-21T08:13:41.779Z</time>
      </trkpt>
      <trkpt lat="44.43193" lon="5.98861">
        <ele>818.40002441406</ele>
        <time>2021-10-21T08:13:51.032Z</time>
      </trkpt>
      <trkpt lat="44.43161" lon="5.98865">
        <ele>803</ele>
        <time>2021-10-21T08:14:00.295Z</time>
      </trkpt>
      <trkpt lat="44.43131" lon="5.98874">
        <ele>797.40002441406</ele>
        <time>2021-10-21T08:14:09.568Z</time>
      </trkpt>
      <trkpt lat="44.43116" lon="5.98875">
        <ele>794.59997558594</ele>
        <time>2021-10-21T08:14:18.846Z</time>
      </trkpt>
      <trkpt lat="44.43101" lon="5.98871">
        <ele>794.59997558594</ele>
        <time>2021-10-21T08:14:28.128Z</time>
      </trkpt>
      <trkpt lat="44.43095" lon="5.98868">
        <ele>791.40002441406</ele>
        <time>2021-10-21T08:14:37.412Z</time>
      </trkpt>
      <trkpt lat="44.4308" lon="5.98855">
        <ele>788.59997558594</ele>
        <time>2021-10-21T08:14:46.702Z</time>
      </trkpt>
      <trkpt lat="44.4307" lon="5.98856">
        <ele>788.59997558594</ele>
        <time>2021-10-21T08:14:55.995Z</time>
      </trkpt>
      <trkpt lat="44.43059" lon="5.98861">
        <ele>785.40002441406</ele>
        <time>2021-10-21T08:15:05.292Z</time>
      </trkpt>
      <trkpt lat="44.4305" lon="5.9887">
        <ele>785.40002441406</ele>
        <time>2021-10-21T08:15:14.592Z</time>
      </trkpt>
      <trkpt lat="44.43043" lon="5.98897">
        <ele>781</ele>
        <time>2021-10-21T08:15:23.898Z</time>
      </trkpt>
      <trkpt lat="44.43035" lon="5.98941">
        <ele>781</ele>
        <time>2021-10-21T08:15:33.215Z</time>
      </trkpt>
      <trkpt lat="44.43033" lon="5.98949">
        <ele>776.59997558594</ele>
        <time>2021-10-21T08:15:42.534Z</time>
      </trkpt>
      <trkpt lat="44.43029" lon="5.98954">
        <ele>776.59997558594</ele>
        <time>2021-10-21T08:15:51.854Z</time>
      </trkpt>
      <trkpt lat="44.4302" lon="5.98954">
        <ele>774.59997558594</ele>
        <time>2021-10-21T08:16:01.177Z</time>
      </trkpt>
      <trkpt lat="44.4301" lon="5.9895">
        <ele>773.40002441406</ele>
        <time>2021-10-21T08:16:10.503Z</time>
      </trkpt>
      <trkpt lat="44.42999" lon="5.98938">
        <ele>771.40002441406</ele>
        <time>2021-10-21T08:16:19.834Z</time>
      </trkpt>
      <trkpt lat="44.42986" lon="5.98919">
        <ele>771.40002441406</ele>
        <time>2021-10-21T08:16:29.171Z</time>
      </trkpt>
      <trkpt lat="44.42982" lon="5.98918">
        <ele>766.59997558594</ele>
        <time>2021-10-21T08:16:38.509Z</time>
      </trkpt>
      <trkpt lat="44.4298" lon="5.98921">
        <ele>766.59997558594</ele>
        <time>2021-10-21T08:16:47.848Z</time>
      </trkpt>
      <trkpt lat="44.42981" lon="5.9894">
        <ele>766.59997558594</ele>
        <time>2021-10-21T08:16:57.191Z</time>
      </trkpt>
      <trkpt lat="44.42983" lon="5.99009">
        <ele>766.59997558594</ele>
        <time>2021-10-21T08:17:06.550Z</time>
      </trkpt>
      <trkpt lat="44.4299" lon="5.99054">
        <ele>766.59997558594</ele>
        <time>2021-10-21T08:17:15.919Z</time>
      </trkpt>
      <trkpt lat="44.43002" lon="5.9907">
        <ele>759.20001220703</ele>
        <time>2021-10-21T08:17:25.293Z</time>
      </trkpt>
      <trkpt lat="44.4303" lon="5.99114">
        <ele>755.40002441406</ele>
        <time>2021-10-21T08:17:34.680Z</time>
      </trkpt>
      <trkpt lat="44.43029" lon="5.99132">
        <ele>755.40002441406</ele>
        <time>2021-10-21T08:17:44.071Z</time>
      </trkpt>
      <trkpt lat="44.43026" lon="5.9914">
        <ele>754.40002441406</ele>
        <time>2021-10-21T08:17:53.464Z</time>
      </trkpt>
      <trkpt lat="44.4301" lon="5.99157">
        <ele>754.40002441406</ele>
        <time>2021-10-21T08:18:02.864Z</time>
      </trkpt>
      <trkpt lat="44.43005" lon="5.99164">
        <ele>751.20001220703</ele>
        <time>2021-10-21T08:18:12.266Z</time>
      </trkpt>
      <trkpt lat="44.43003" lon="5.99183">
        <ele>751.20001220703</ele>
        <time>2021-10-21T08:18:21.672Z</time>
      </trkpt>
      <trkpt lat="44.42996" lon="5.99189">
        <ele>750.40002441406</ele>
        <time>2021-10-21T08:18:31.081Z</time>
      </trkpt>
      <trkpt lat="44.42978" lon="5.9919">
        <ele>750.40002441406</ele>
        <time>2021-10-21T08:18:40.495Z</time>
      </trkpt>
      <trkpt lat="44.42969" lon="5.99183">
        <ele>750.40002441406</ele>
        <time>2021-10-21T08:18:49.913Z</time>
      </trkpt>
      <trkpt lat="44.42941" lon="5.99188">
        <ele>744</ele>
        <time>2021-10-21T08:18:59.339Z</time>
      </trkpt>
      <trkpt lat="44.42929" lon="5.99193">
        <ele>742.40002441406</ele>
        <time>2021-10-21T08:19:08.769Z</time>
      </trkpt>
      <trkpt lat="44.42898" lon="5.99217">
        <ele>742.40002441406</ele>
        <time>2021-10-21T08:19:18.210Z</time>
      </trkpt>
      <trkpt lat="44.4289" lon="5.99224">
        <ele>739</ele>
        <time>2021-10-21T08:19:27.654Z</time>
      </trkpt>
      <trkpt lat="44.42871" lon="5.99255">
        <ele>738</ele>
        <time>2021-10-21T08:19:37.107Z</time>
      </trkpt>
      <trkpt lat="44.42834" lon="5.99303">
        <ele>738</ele>
        <time>2021-10-21T08:19:46.576Z</time>
      </trkpt>
      <trkpt lat="44.42826" lon="5.99316">
        <ele>731.20001220703</ele>
        <time>2021-10-21T08:19:56.049Z</time>
      </trkpt>
      <trkpt lat="44.42817" lon="5.99337">
        <ele>728.59997558594</ele>
        <time>2021-10-21T08:20:05.528Z</time>
      </trkpt>
      <trkpt lat="44.42814" lon="5.99351">
        <ele>728.59997558594</ele>
        <time>2021-10-21T08:20:15.010Z</time>
      </trkpt>
      <trkpt lat="44.42808" lon="5.99386">
        <ele>725</ele>
        <time>2021-10-21T08:20:24.500Z</time>
      </trkpt>
      <trkpt lat="44.42801" lon="5.99483">
        <ele>725</ele>
        <time>2021-10-21T08:20:34.012Z</time>
      </trkpt>
      <trkpt lat="44.42805" lon="5.99523">
        <ele>715.40002441406</ele>
        <time>2021-10-21T08:20:43.533Z</time>
      </trkpt>
      <trkpt lat="44.42809" lon="5.99539">
        <ele>714.20001220703</ele>
        <time>2021-10-21T08:20:53.058Z</time>
      </trkpt>
      <trkpt lat="44.42838" lon="5.99604">
        <ele>705.79998779297</ele>
        <time>2021-10-21T08:21:02.600Z</time>
      </trkpt>
      <trkpt lat="44.42836" lon="5.99613">
        <ele>704.79998779297</ele>
        <time>2021-10-21T08:21:12.144Z</time>
      </trkpt>
      <trkpt lat="44.42824" lon="5.99633">
        <ele>704.79998779297</ele>
        <time>2021-10-21T08:21:21.694Z</time>
      </trkpt>
      <trkpt lat="44.42817" lon="5.99662">
        <ele>700.59997558594</ele>
        <time>2021-10-21T08:21:31.251Z</time>
      </trkpt>
      <trkpt lat="44.42817" lon="5.99675">
        <ele>699.40002441406</ele>
        <time>2021-10-21T08:21:40.811Z</time>
      </trkpt>
      <trkpt lat="44.42827" lon="5.99702">
        <ele>699.40002441406</ele>
        <time>2021-10-21T08:21:50.377Z</time>
      </trkpt>
      <trkpt lat="44.4283" lon="5.99715">
        <ele>695.40002441406</ele>
        <time>2021-10-21T08:21:59.946Z</time>
      </trkpt>
      <trkpt lat="44.4283" lon="5.99735">
        <ele>695.40002441406</ele>
        <time>2021-10-21T08:22:09.520Z</time>
      </trkpt>
      <trkpt lat="44.42824" lon="5.99759">
        <ele>689.20001220703</ele>
        <time>2021-10-21T08:22:19.100Z</time>
      </trkpt>
      <trkpt lat="44.42811" lon="5.99803">
        <ele>685</ele>
        <time>2021-10-21T08:22:28.690Z</time>
      </trkpt>
      <trkpt lat="44.42791" lon="5.99836">
        <ele>685</ele>
        <time>2021-10-21T08:22:38.290Z</time>
      </trkpt>
      <trkpt lat="44.42788" lon="5.99866">
        <ele>678.59997558594</ele>
        <time>2021-10-21T08:22:47.897Z</time>
      </trkpt>
      <trkpt lat="44.42789" lon="5.99889">
        <ele>676.40002441406</ele>
        <time>2021-10-21T08:22:57.509Z</time>
      </trkpt>
      <trkpt lat="44.42785" lon="5.99921">
        <ele>676.40002441406</ele>
        <time>2021-10-21T08:23:07.128Z</time>
      </trkpt>
      <trkpt lat="44.42785" lon="5.9995">
        <ele>669.79998779297</ele>
        <time>2021-10-21T08:23:16.754Z</time>
      </trkpt>
      <trkpt lat="44.42769" lon="6.00012">
        <ele>659.79998779297</ele>
        <time>2021-10-21T08:23:26.394Z</time>
      </trkpt>
      <trkpt lat="44.42752" lon="6.00061">
        <ele>652</ele>
        <time>2021-10-21T08:23:36.047Z</time>
      </trkpt>
      <trkpt lat="44.42747" lon="6.0008">
        <ele>652</ele>
        <time>2021-10-21T08:23:45.704Z</time>
      </trkpt>
      <trkpt lat="44.42747" lon="6.00094">
        <ele>652</ele>
        <time>2021-10-21T08:23:55.364Z</time>
      </trkpt>
      <trkpt lat="44.42744" lon="6.00107">
        <ele>647</ele>
        <time>2021-10-21T08:24:05.027Z</time>
      </trkpt>
      <trkpt lat="44.4273" lon="6.0014">
        <ele>647</ele>
        <time>2021-10-21T08:24:14.699Z</time>
      </trkpt>
      <trkpt lat="44.42726" lon="6.00161">
        <ele>647</ele>
        <time>2021-10-21T08:24:24.376Z</time>
      </trkpt>
      <trkpt lat="44.42724" lon="6.00184">
        <ele>634.40002441406</ele>
        <time>2021-10-21T08:24:34.058Z</time>
      </trkpt>
      <trkpt lat="44.42719" lon="6.00193">
        <ele>634.40002441406</ele>
        <time>2021-10-21T08:24:43.743Z</time>
      </trkpt>
      <trkpt lat="44.42707" lon="6.00207">
        <ele>634.40002441406</ele>
        <time>2021-10-21T08:24:53.433Z</time>
      </trkpt>
      <trkpt lat="44.42696" lon="6.00225">
        <ele>634.40002441406</ele>
        <time>2021-10-21T08:25:03.128Z</time>
      </trkpt>
      <trkpt lat="44.42679" lon="6.00245">
        <ele>634.40002441406</ele>
        <time>2021-10-21T08:25:12.830Z</time>
      </trkpt>
      <trkpt lat="44.42681" lon="6.00254">
        <ele>626.79998779297</ele>
        <time>2021-10-21T08:25:22.534Z</time>
      </trkpt>
      <trkpt lat="44.42672" lon="6.00267">
        <ele>625.59997558594</ele>
        <time>2021-10-21T08:25:32.242Z</time>
      </trkpt>
      <trkpt lat="44.42665" lon="6.00286">
        <ele>625.59997558594</ele>
        <time>2021-10-21T08:25:41.955Z</time>
      </trkpt>
      <trkpt lat="44.42655" lon="6.00303">
        <ele>625.59997558594</ele>
        <time>2021-10-21T08:25:51.672Z</time>
      </trkpt>
      <trkpt lat="44.42644" lon="6.00315">
        <ele>625.59997558594</ele>
        <time>2021-10-21T08:26:01.394Z</time>
      </trkpt>
      <trkpt lat="44.42639" lon="6.00318">
        <ele>619.79998779297</ele>
        <time>2021-10-21T08:26:11.117Z</time>
      </trkpt>
      <trkpt lat="44.42624" lon="6.0032">
        <ele>619.79998779297</ele>
        <time>2021-10-21T08:26:20.845Z</time>
      </trkpt>
      <trkpt lat="44.42612" lon="6.00335">
        <ele>619.79998779297</ele>
        <time>2021-10-21T08:26:30.578Z</time>
      </trkpt>
      <trkpt lat="44.42617" lon="6.00348">
        <ele>619.40002441406</ele>
        <time>2021-10-21T08:26:40.314Z</time>
      </trkpt>
      <trkpt lat="44.42635" lon="6.00379">
        <ele>619.20001220703</ele>
        <time>2021-10-21T08:26:50.059Z</time>
      </trkpt>
      <trkpt lat="44.42637" lon="6.00398">
        <ele>619.20001220703</ele>
        <time>2021-10-21T08:26:59.809Z</time>
      </trkpt>
      <trkpt lat="44.42609" lon="6.00468">
        <ele>619.20001220703</ele>
        <time>2021-10-21T08:27:09.577Z</time>
      </trkpt>
      <trkpt lat="44.42603" lon="6.00489">
        <ele>619.20001220703</ele>
        <time>2021-10-21T08:27:19.350Z</time>
      </trkpt>
      <trkpt lat="44.42604" lon="6.00521">
        <ele>619.40002441406</ele>
        <time>2021-10-21T08:27:29.130Z</time>
      </trkpt>
      <trkpt lat="44.42609" lon="6.00573">
        <ele>619.40002441406</ele>
        <time>2021-10-21T08:27:38.922Z</time>
      </trkpt>
      <trkpt lat="44.42605" lon="6.00623">
        <ele>619.79998779297</ele>
        <time>2021-10-21T08:27:48.725Z</time>
      </trkpt>
      <trkpt lat="44.42614" lon="6.00647">
        <ele>619.79998779297</ele>
        <time>2021-10-21T08:27:58.534Z</time>
      </trkpt>
      <trkpt lat="44.4262" lon="6.00651">
        <ele>619.59997558594</ele>
        <time>2021-10-21T08:28:08.345Z</time>
      </trkpt>
      <trkpt lat="44.42618" lon="6.00668">
        <ele>619.59997558594</ele>
        <time>2021-10-21T08:28:18.160Z</time>
      </trkpt>
      <trkpt lat="44.42602" lon="6.00685">
        <ele>619.59997558594</ele>
        <time>2021-10-21T08:28:27.981Z</time>
      </trkpt>
      <trkpt lat="44.42586" lon="6.00707">
        <ele>617.59997558594</ele>
        <time>2021-10-21T08:28:37.809Z</time>
      </trkpt>
      <trkpt lat="44.42573" lon="6.00717">
        <ele>617.59997558594</ele>
        <time>2021-10-21T08:28:47.642Z</time>
      </trkpt>
      <trkpt lat="44.42572" lon="6.00721">
        <ele>613.40002441406</ele>
        <time>2021-10-21T08:28:57.476Z</time>
      </trkpt>
      <trkpt lat="44.42579" lon="6.00752">
        <ele>613.40002441406</ele>
        <time>2021-10-21T08:29:07.317Z</time>
      </trkpt>
      <trkpt lat="44.42588" lon="6.00784">
        <ele>613.40002441406</ele>
        <time>2021-10-21T08:29:17.166Z</time>
      </trkpt>
      <trkpt lat="44.4259" lon="6.00817">
        <ele>615.20001220703</ele>
        <time>2021-10-21T08:29:27.022Z</time>
      </trkpt>
      <trkpt lat="44.42602" lon="6.0087">
        <ele>611.79998779297</ele>
        <time>2021-10-21T08:29:36.891Z</time>
      </trkpt>
      <trkpt lat="44.42607" lon="6.00883">
        <ele>611.79998779297</ele>
        <time>2021-10-21T08:29:46.763Z</time>
      </trkpt>
      <trkpt lat="44.42637" lon="6.00923">
        <ele>607</ele>
        <time>2021-10-21T08:29:56.648Z</time>
      </trkpt>
      <trkpt lat="44.42653" lon="6.00947">
        <ele>605.59997558594</ele>
        <time>2021-10-21T08:30:06.540Z</time>
      </trkpt>
      <trkpt lat="44.4268" lon="6.00981">
        <ele>605.59997558594</ele>
        <time>2021-10-21T08:30:16.444Z</time>
      </trkpt>
      <trkpt lat="44.42688" lon="6.00995">
        <ele>605.59997558594</ele>
        <time>2021-10-21T08:30:26.352Z</time>
      </trkpt>
      <trkpt lat="44.427" lon="6.01044">
        <ele>599.79998779297</ele>
        <time>2021-10-21T08:30:36.271Z</time>
      </trkpt>
      <trkpt lat="44.42719" lon="6.01094">
        <ele>596.79998779297</ele>
        <time>2021-10-21T08:30:46.203Z</time>
      </trkpt>
      <trkpt lat="44.42732" lon="6.01131">
        <ele>595.20001220703</ele>
        <time>2021-10-21T08:30:56.144Z</time>
      </trkpt>
      <trkpt lat="44.42737" lon="6.01153">
        <ele>595.20001220703</ele>
        <time>2021-10-21T08:31:06.090Z</time>
      </trkpt>
      <trkpt lat="44.42737" lon="6.01169">
        <ele>593</ele>
        <time>2021-10-21T08:31:16.040Z</time>
      </trkpt>
      <trkpt lat="44.4274" lon="6.01182">
        <ele>593</ele>
        <time>2021-10-21T08:31:25.993Z</time>
      </trkpt>
      <trkpt lat="44.42754" lon="6.01226">
        <ele>594.20001220703</ele>
        <time>2021-10-21T08:31:35.957Z</time>
      </trkpt>
      <trkpt lat="44.42801" lon="6.01355">
        <ele>598</ele>
        <time>2021-10-21T08:31:45.953Z</time>
      </trkpt>
      <trkpt lat="44.42827" lon="6.01413">
        <ele>598</ele>
        <time>2021-10-21T08:31:55.964Z</time>
      </trkpt>
      <trkpt lat="44.4286" lon="6.01461">
        <ele>598.40002441406</ele>
        <time>2021-10-21T08:32:05.990Z</time>
      </trkpt>
      <trkpt lat="44.42938" lon="6.01559">
        <ele>598.40002441406</ele>
        <time>2021-10-21T08:32:16.049Z</time>
      </trkpt>
      <trkpt lat="44.43004" lon="6.01639">
        <ele>598.40002441406</ele>
        <time>2021-10-21T08:32:26.135Z</time>
      </trkpt>
      <trkpt lat="44.43032" lon="6.01675">
        <ele>600.40002441406</ele>
        <time>2021-10-21T08:32:36.233Z</time>
      </trkpt>
      <trkpt lat="44.43076" lon="6.01729">
        <ele>600.40002441406</ele>
        <time>2021-10-21T08:32:46.350Z</time>
      </trkpt>
      <trkpt lat="44.43114" lon="6.01783">
        <ele>599.40002441406</ele>
        <time>2021-10-21T08:32:56.484Z</time>
      </trkpt>
      <trkpt lat="44.43158" lon="6.01853">
        <ele>599.20001220703</ele>
        <time>2021-10-21T08:33:06.638Z</time>
      </trkpt>
      <trkpt lat="44.43166" lon="6.01867">
        <ele>599.20001220703</ele>
        <time>2021-10-21T08:33:16.796Z</time>
      </trkpt>
      <trkpt lat="44.43182" lon="6.01905">
        <ele>598.79998779297</ele>
        <time>2021-10-21T08:33:26.964Z</time>
      </trkpt>
      <trkpt lat="44.43236" lon="6.02061">
        <ele>598.79998779297</ele>
        <time>2021-10-21T08:33:37.171Z</time>
      </trkpt>
      <trkpt lat="44.43273" lon="6.02154">
        <ele>600.20001220703</ele>
        <time>2021-10-21T08:33:47.402Z</time>
      </trkpt>
      <trkpt lat="44.4328" lon="6.02187">
        <ele>600.20001220703</ele>
        <time>2021-10-21T08:33:57.641Z</time>
      </trkpt>
      <trkpt lat="44.43277" lon="6.02202">
        <ele>600.20001220703</ele>
        <time>2021-10-21T08:34:07.883Z</time>
      </trkpt>
      <trkpt lat="44.43279" lon="6.02216">
        <ele>601</ele>
        <time>2021-10-21T08:34:18.128Z</time>
      </trkpt>
      <trkpt lat="44.43284" lon="6.02229">
        <ele>601</ele>
        <time>2021-10-21T08:34:28.376Z</time>
      </trkpt>
      <trkpt lat="44.43338" lon="6.023">
        <ele>600.79998779297</ele>
        <time>2021-10-21T08:34:38.648Z</time>
      </trkpt>
      <trkpt lat="44.43357" lon="6.02321">
        <ele>600.79998779297</ele>
        <time>2021-10-21T08:34:48.927Z</time>
      </trkpt>
      <trkpt lat="44.43381" lon="6.02344">
        <ele>600.59997558594</ele>
        <time>2021-10-21T08:34:59.215Z</time>
      </trkpt>
      <trkpt lat="44.43433" lon="6.02375">
        <ele>600.59997558594</ele>
        <time>2021-10-21T08:35:09.521Z</time>
      </trkpt>
      <trkpt lat="44.43475" lon="6.02393">
        <ele>601</ele>
        <time>2021-10-21T08:35:19.841Z</time>
      </trkpt>
      <trkpt lat="44.43486" lon="6.024">
        <ele>601</ele>
        <time>2021-10-21T08:35:30.164Z</time>
      </trkpt>
      <trkpt lat="44.43518" lon="6.02416">
        <ele>601</ele>
        <time>2021-10-21T08:35:40.498Z</time>
      </trkpt>
      <trkpt lat="44.4353" lon="6.02419">
        <ele>601</ele>
        <time>2021-10-21T08:35:50.836Z</time>
      </trkpt>
      <trkpt lat="44.43542" lon="6.0242">
        <ele>600.79998779297</ele>
        <time>2021-10-21T08:36:01.178Z</time>
      </trkpt>
      <trkpt lat="44.43553" lon="6.02419">
        <ele>600.79998779297</ele>
        <time>2021-10-21T08:36:11.523Z</time>
      </trkpt>
      <trkpt lat="44.436" lon="6.02405">
        <ele>600.40002441406</ele>
        <time>2021-10-21T08:36:21.883Z</time>
      </trkpt>
      <trkpt lat="44.43609" lon="6.02398">
        <ele>600.20001220703</ele>
        <time>2021-10-21T08:36:32.246Z</time>
      </trkpt>
      <trkpt lat="44.43645" lon="6.02389">
        <ele>600.20001220703</ele>
        <time>2021-10-21T08:36:42.621Z</time>
      </trkpt>
      <trkpt lat="44.4366" lon="6.02387">
        <ele>599.40002441406</ele>
        <time>2021-10-21T08:36:53.000Z</time>
      </trkpt>
      <trkpt lat="44.43678" lon="6.02387">
        <ele>599.40002441406</ele>
        <time>2021-10-21T08:37:03.385Z</time>
      </trkpt>
      <trkpt lat="44.437" lon="6.02391">
        <ele>598.79998779297</ele>
        <time>2021-10-21T08:37:13.777Z</time>
      </trkpt>
      <trkpt lat="44.43716" lon="6.02399">
        <ele>598.79998779297</ele>
        <time>2021-10-21T08:37:24.174Z</time>
      </trkpt>
      <trkpt lat="44.43726" lon="6.02406">
        <ele>598.40002441406</ele>
        <time>2021-10-21T08:37:34.575Z</time>
      </trkpt>
      <trkpt lat="44.43763" lon="6.02441">
        <ele>598</ele>
        <time>2021-10-21T08:37:44.990Z</time>
      </trkpt>
      <trkpt lat="44.43822" lon="6.0249">
        <ele>598.59997558594</ele>
        <time>2021-10-21T08:37:55.426Z</time>
      </trkpt>
      <trkpt lat="44.43842" lon="6.02502">
        <ele>599.40002441406</ele>
        <time>2021-10-21T08:38:05.869Z</time>
      </trkpt>
      <trkpt lat="44.43863" lon="6.02509">
        <ele>599.79998779297</ele>
        <time>2021-10-21T08:38:16.319Z</time>
      </trkpt>
      <trkpt lat="44.43973" lon="6.02533">
        <ele>599.79998779297</ele>
        <time>2021-10-21T08:38:26.804Z</time>
      </trkpt>
      <trkpt lat="44.44" lon="6.02534">
        <ele>599.79998779297</ele>
        <time>2021-10-21T08:38:37.297Z</time>
      </trkpt>
      <trkpt lat="44.44024" lon="6.02528">
        <ele>599.79998779297</ele>
        <time>2021-10-21T08:38:47.798Z</time>
      </trkpt>
      <trkpt lat="44.44118" lon="6.02527">
        <ele>599.79998779297</ele>
        <time>2021-10-21T08:38:58.328Z</time>
      </trkpt>
      <trkpt lat="44.44145" lon="6.02532">
        <ele>599.79998779297</ele>
        <time>2021-10-21T08:39:08.867Z</time>
      </trkpt>
      <trkpt lat="44.44226" lon="6.02538">
        <ele>605</ele>
        <time>2021-10-21T08:39:19.431Z</time>
      </trkpt>
      <trkpt lat="44.44267" lon="6.0255">
        <ele>605</ele>
        <time>2021-10-21T08:39:30.008Z</time>
      </trkpt>
      <trkpt lat="44.44271" lon="6.02562">
        <ele>606</ele>
        <time>2021-10-21T08:39:40.588Z</time>
      </trkpt>
      <trkpt lat="44.44271" lon="6.02575">
        <ele>606.20001220703</ele>
        <time>2021-10-21T08:39:51.171Z</time>
      </trkpt>
      <trkpt lat="44.44265" lon="6.02603">
        <ele>606.79998779297</ele>
        <time>2021-10-21T08:40:01.760Z</time>
      </trkpt>
      <trkpt lat="44.44264" lon="6.02617">
        <ele>606.79998779297</ele>
        <time>2021-10-21T08:40:12.353Z</time>
      </trkpt>
      <trkpt lat="44.44265" lon="6.02646">
        <ele>606.40002441406</ele>
        <time>2021-10-21T08:40:22.952Z</time>
      </trkpt>
      <trkpt lat="44.44263" lon="6.0266">
        <ele>606.40002441406</ele>
        <time>2021-10-21T08:40:33.554Z</time>
      </trkpt>
      <trkpt lat="44.44252" lon="6.027">
        <ele>606</ele>
        <time>2021-10-21T08:40:44.166Z</time>
      </trkpt>
      <trkpt lat="44.44247" lon="6.02796">
        <ele>606</ele>
        <time>2021-10-21T08:40:54.799Z</time>
      </trkpt>
      <trkpt lat="44.44251" lon="6.02809">
        <ele>606</ele>
        <time>2021-10-21T08:41:05.436Z</time>
      </trkpt>
      <trkpt lat="44.44274" lon="6.02843">
        <ele>606</ele>
        <time>2021-10-21T08:41:16.083Z</time>
      </trkpt>
      <trkpt lat="44.44277" lon="6.02845">
        <ele>605.79998779297</ele>
        <time>2021-10-21T08:41:26.731Z</time>
      </trkpt>
      <trkpt lat="44.44289" lon="6.02844">
        <ele>605.79998779297</ele>
        <time>2021-10-21T08:41:37.383Z</time>
      </trkpt>
      <trkpt lat="44.44294" lon="6.02849">
        <ele>606</ele>
        <time>2021-10-21T08:41:48.037Z</time>
      </trkpt>
      <trkpt lat="44.44294" lon="6.02855">
        <ele>605.40002441406</ele>
        <time>2021-10-21T08:41:58.692Z</time>
      </trkpt>
      <trkpt lat="44.44283" lon="6.02864">
        <ele>605.40002441406</ele>
        <time>2021-10-21T08:42:09.351Z</time>
      </trkpt>
      <trkpt lat="44.44279" lon="6.02865">
        <ele>606</ele>
        <time>2021-10-21T08:42:20.011Z</time>
      </trkpt>
      <trkpt lat="44.44271" lon="6.02843">
        <ele>605.59997558594</ele>
        <time>2021-10-21T08:42:30.677Z</time>
      </trkpt>
      <trkpt lat="44.44263" lon="6.02831">
        <ele>605.59997558594</ele>
        <time>2021-10-21T08:42:41.347Z</time>
      </trkpt>
      <trkpt lat="44.4426" lon="6.02821">
        <ele>606.20001220703</ele>
        <time>2021-10-21T08:42:52.019Z</time>
      </trkpt>
      <trkpt lat="44.44257" lon="6.02819">
        <ele>606.20001220703</ele>
        <time>2021-10-21T08:43:02.692Z</time>
      </trkpt>
      <trkpt lat="44.44256" lon="6.02815">
        <ele>606.20001220703</ele>
        <time>2021-10-21T08:43:13.366Z</time>
      </trkpt>
      <trkpt lat="44.44247" lon="6.02808">
        <ele>606.40002441406</ele>
        <time>2021-10-21T08:43:24.043Z</time>
      </trkpt>
      <trkpt lat="44.44246" lon="6.02801">
        <ele>606.40002441406</ele>
        <time>2021-10-21T08:43:34.722Z</time>
      </trkpt>
      <trkpt lat="44.44242" lon="6.02793">
        <ele>606.40002441406</ele>
        <time>2021-10-21T08:43:45.403Z</time>
      </trkpt>
      <trkpt lat="44.44234" lon="6.02761">
        <ele>606.40002441406</ele>
        <time>2021-10-21T08:43:56.092Z</time>
      </trkpt>
      <trkpt lat="44.44239" lon="6.02735">
        <ele>606.20001220703</ele>
        <time>2021-10-21T08:44:06.787Z</time>
      </trkpt>
      <trkpt lat="44.44254" lon="6.027">
        <ele>606.20001220703</ele>
        <time>2021-10-21T08:44:17.491Z</time>
      </trkpt>
      <trkpt lat="44.44262" lon="6.02673">
        <ele>606.79998779297</ele>
        <time>2021-10-21T08:44:28.202Z</time>
      </trkpt>
      <trkpt lat="44.44266" lon="6.02628">
        <ele>606.79998779297</ele>
        <time>2021-10-21T08:44:38.923Z</time>
      </trkpt>
      <trkpt lat="44.44264" lon="6.0261">
        <ele>607.20001220703</ele>
        <time>2021-10-21T08:44:49.648Z</time>
      </trkpt>
      <trkpt lat="44.44272" lon="6.02567">
        <ele>607.59997558594</ele>
        <time>2021-10-21T08:45:00.383Z</time>
      </trkpt>
      <trkpt lat="44.44269" lon="6.02536">
        <ele>607.59997558594</ele>
        <time>2021-10-21T08:45:11.125Z</time>
      </trkpt>
      <trkpt lat="44.44266" lon="6.02532">
        <ele>607.20001220703</ele>
        <time>2021-10-21T08:45:21.868Z</time>
      </trkpt>
      <trkpt lat="44.44248" lon="6.02525">
        <ele>607.20001220703</ele>
        <time>2021-10-21T08:45:32.617Z</time>
      </trkpt>
      <trkpt lat="44.44113" lon="6.02519">
        <ele>604</ele>
        <time>2021-10-21T08:45:43.408Z</time>
      </trkpt>
      <trkpt lat="44.4402" lon="6.02521">
        <ele>604</ele>
        <time>2021-10-21T08:45:54.228Z</time>
      </trkpt>
      <trkpt lat="44.43995" lon="6.02529">
        <ele>602.20001220703</ele>
        <time>2021-10-21T08:46:05.056Z</time>
      </trkpt>
      <trkpt lat="44.4399" lon="6.02529">
        <ele>602.20001220703</ele>
        <time>2021-10-21T08:46:15.886Z</time>
      </trkpt>
      <trkpt lat="44.43853" lon="6.02501">
        <ele>600.40002441406</ele>
        <time>2021-10-21T08:46:26.759Z</time>
      </trkpt>
      <trkpt lat="44.4382" lon="6.02484">
        <ele>600.40002441406</ele>
        <time>2021-10-21T08:46:37.643Z</time>
      </trkpt>
      <trkpt lat="44.43735" lon="6.02411">
        <ele>598.59997558594</ele>
        <time>2021-10-21T08:46:48.558Z</time>
      </trkpt>
      <trkpt lat="44.43707" lon="6.02388">
        <ele>598.59997558594</ele>
        <time>2021-10-21T08:46:59.483Z</time>
      </trkpt>
      <trkpt lat="44.43694" lon="6.02383">
        <ele>598.59997558594</ele>
        <time>2021-10-21T08:47:10.413Z</time>
      </trkpt>
      <trkpt lat="44.43676" lon="6.0238">
        <ele>599.20001220703</ele>
        <time>2021-10-21T08:47:21.348Z</time>
      </trkpt>
      <trkpt lat="44.43658" lon="6.02381">
        <ele>599.20001220703</ele>
        <time>2021-10-21T08:47:32.289Z</time>
      </trkpt>
      <trkpt lat="44.43617" lon="6.02394">
        <ele>599.20001220703</ele>
        <time>2021-10-21T08:47:43.243Z</time>
      </trkpt>
      <trkpt lat="44.43592" lon="6.02407">
        <ele>599.20001220703</ele>
        <time>2021-10-21T08:47:54.205Z</time>
      </trkpt>
      <trkpt lat="44.43564" lon="6.02412">
        <ele>599.20001220703</ele>
        <time>2021-10-21T08:48:05.176Z</time>
      </trkpt>
      <trkpt lat="44.43547" lon="6.02417">
        <ele>599.20001220703</ele>
        <time>2021-10-21T08:48:16.152Z</time>
      </trkpt>
      <trkpt lat="44.43526" lon="6.02416">
        <ele>601.20001220703</ele>
        <time>2021-10-21T08:48:27.135Z</time>
      </trkpt>
      <trkpt lat="44.4349" lon="6.02401">
        <ele>601.20001220703</ele>
        <time>2021-10-21T08:48:38.130Z</time>
      </trkpt>
      <trkpt lat="44.43468" lon="6.02387">
        <ele>601.20001220703</ele>
        <time>2021-10-21T08:48:49.132Z</time>
      </trkpt>
      <trkpt lat="44.43435" lon="6.02374">
        <ele>601.20001220703</ele>
        <time>2021-10-21T08:49:00.145Z</time>
      </trkpt>
      <trkpt lat="44.43386" lon="6.02344">
        <ele>601.20001220703</ele>
        <time>2021-10-21T08:49:11.175Z</time>
      </trkpt>
      <trkpt lat="44.43356" lon="6.02318">
        <ele>601</ele>
        <time>2021-10-21T08:49:22.216Z</time>
      </trkpt>
      <trkpt lat="44.43283" lon="6.02222">
        <ele>601.20001220703</ele>
        <time>2021-10-21T08:49:33.288Z</time>
      </trkpt>
      <trkpt lat="44.43277" lon="6.02196">
        <ele>601.20001220703</ele>
        <time>2021-10-21T08:49:44.367Z</time>
      </trkpt>
      <trkpt lat="44.43279" lon="6.02171">
        <ele>601.40002441406</ele>
        <time>2021-10-21T08:49:55.451Z</time>
      </trkpt>
      <trkpt lat="44.43272" lon="6.02153">
        <ele>601.20001220703</ele>
        <time>2021-10-21T08:50:06.540Z</time>
      </trkpt>
      <trkpt lat="44.43269" lon="6.02136">
        <ele>601</ele>
        <time>2021-10-21T08:50:17.633Z</time>
      </trkpt>
      <trkpt lat="44.43186" lon="6.01897">
        <ele>599.20001220703</ele>
        <time>2021-10-21T08:50:28.785Z</time>
      </trkpt>
      <trkpt lat="44.43158" lon="6.01838">
        <ele>599.20001220703</ele>
        <time>2021-10-21T08:50:39.953Z</time>
      </trkpt>
      <trkpt lat="44.43118" lon="6.01774">
        <ele>599.20001220703</ele>
        <time>2021-10-21T08:50:51.140Z</time>
      </trkpt>
      <trkpt lat="44.43084" lon="6.01726">
        <ele>600</ele>
        <time>2021-10-21T08:51:02.342Z</time>
      </trkpt>
      <trkpt lat="44.42968" lon="6.01586">
        <ele>600.79998779297</ele>
        <time>2021-10-21T08:51:13.592Z</time>
      </trkpt>
      <trkpt lat="44.42871" lon="6.01461">
        <ele>599.20001220703</ele>
        <time>2021-10-21T08:51:24.883Z</time>
      </trkpt>
      <trkpt lat="44.42832" lon="6.01407">
        <ele>599.20001220703</ele>
        <time>2021-10-21T08:51:36.192Z</time>
      </trkpt>
      <trkpt lat="44.42795" lon="6.01328">
        <ele>599.20001220703</ele>
        <time>2021-10-21T08:51:47.522Z</time>
      </trkpt>
      <trkpt lat="44.42711" lon="6.01114">
        <ele>599.20001220703</ele>
        <time>2021-10-21T08:51:58.907Z</time>
      </trkpt>
      <trkpt lat="44.42693" lon="6.01075">
        <ele>593.20001220703</ele>
        <time>2021-10-21T08:52:10.302Z</time>
      </trkpt>
      <trkpt lat="44.42677" lon="6.01032">
        <ele>593.59997558594</ele>
        <time>2021-10-21T08:52:21.708Z</time>
      </trkpt>
      <trkpt lat="44.42662" lon="6.00998">
        <ele>593.59997558594</ele>
        <time>2021-10-21T08:52:33.123Z</time>
      </trkpt>
      <trkpt lat="44.42652" lon="6.00982">
        <ele>593.59997558594</ele>
        <time>2021-10-21T08:52:44.542Z</time>
      </trkpt>
      <trkpt lat="44.42633" lon="6.00955">
        <ele>596</ele>
        <time>2021-10-21T08:52:55.970Z</time>
      </trkpt>
      <trkpt lat="44.42603" lon="6.00915">
        <ele>596</ele>
        <time>2021-10-21T08:53:07.411Z</time>
      </trkpt>
      <trkpt lat="44.42569" lon="6.00844">
        <ele>601.59997558594</ele>
        <time>2021-10-21T08:53:18.871Z</time>
      </trkpt>
      <trkpt lat="44.42549" lon="6.00792">
        <ele>601.59997558594</ele>
        <time>2021-10-21T08:53:30.344Z</time>
      </trkpt>
      <trkpt lat="44.42548" lon="6.00782">
        <ele>604.59997558594</ele>
        <time>2021-10-21T08:53:41.819Z</time>
      </trkpt>
      <trkpt lat="44.42562" lon="6.00756">
        <ele>607.20001220703</ele>
        <time>2021-10-21T08:53:53.302Z</time>
      </trkpt>
      <trkpt lat="44.42569" lon="6.00736">
        <ele>609.20001220703</ele>
        <time>2021-10-21T08:54:04.790Z</time>
      </trkpt>
      <trkpt lat="44.42572" lon="6.00724">
        <ele>610.79998779297</ele>
        <time>2021-10-21T08:54:16.280Z</time>
      </trkpt>
      <trkpt lat="44.42577" lon="6.00719">
        <ele>610.79998779297</ele>
        <time>2021-10-21T08:54:27.772Z</time>
      </trkpt>
      <trkpt lat="44.4257" lon="6.00633">
        <ele>610.79998779297</ele>
        <time>2021-10-21T08:54:39.284Z</time>
      </trkpt>
      <trkpt lat="44.42569" lon="6.00583">
        <ele>613.79998779297</ele>
        <time>2021-10-21T08:54:50.807Z</time>
      </trkpt>
      <trkpt lat="44.4257" lon="6.00565">
        <ele>613.79998779297</ele>
        <time>2021-10-21T08:55:02.334Z</time>
      </trkpt>
      <trkpt lat="44.42577" lon="6.00513">
        <ele>613.79998779297</ele>
        <time>2021-10-21T08:55:13.873Z</time>
      </trkpt>
      <trkpt lat="44.42582" lon="6.00464">
        <ele>613.79998779297</ele>
        <time>2021-10-21T08:55:25.423Z</time>
      </trkpt>
      <trkpt lat="44.42585" lon="6.00448">
        <ele>615.59997558594</ele>
        <time>2021-10-21T08:55:36.976Z</time>
      </trkpt>
      <trkpt lat="44.42613" lon="6.00374">
        <ele>613.59997558594</ele>
        <time>2021-10-21T08:55:48.548Z</time>
      </trkpt>
      <trkpt lat="44.42631" lon="6.00348">
        <ele>614.79998779297</ele>
        <time>2021-10-21T08:56:00.128Z</time>
      </trkpt>
      <trkpt lat="44.42637" lon="6.00331">
        <ele>614.79998779297</ele>
        <time>2021-10-21T08:56:11.713Z</time>
      </trkpt>
      <trkpt lat="44.42632" lon="6.00323">
        <ele>617.20001220703</ele>
        <time>2021-10-21T08:56:23.300Z</time>
      </trkpt>
      <trkpt lat="44.42612" lon="6.00305">
        <ele>617.20001220703</ele>
        <time>2021-10-21T08:56:34.894Z</time>
      </trkpt>
      <trkpt lat="44.42585" lon="6.00287">
        <ele>621</ele>
        <time>2021-10-21T08:56:46.498Z</time>
      </trkpt>
      <trkpt lat="44.42574" lon="6.00266">
        <ele>621</ele>
        <time>2021-10-21T08:56:58.108Z</time>
      </trkpt>
      <trkpt lat="44.42573" lon="6.0026">
        <ele>620.79998779297</ele>
        <time>2021-10-21T08:57:09.719Z</time>
      </trkpt>
      <trkpt lat="44.42567" lon="6.00217">
        <ele>620.20001220703</ele>
        <time>2021-10-21T08:57:21.340Z</time>
      </trkpt>
      <trkpt lat="44.42575" lon="6.00087">
        <ele>618.79998779297</ele>
        <time>2021-10-21T08:57:32.990Z</time>
      </trkpt>
      <trkpt lat="44.42579" lon="6.00074">
        <ele>618.79998779297</ele>
        <time>2021-10-21T08:57:44.643Z</time>
      </trkpt>
      <trkpt lat="44.4259" lon="6.00053">
        <ele>618.79998779297</ele>
        <time>2021-10-21T08:57:56.302Z</time>
      </trkpt>
      <trkpt lat="44.42593" lon="6.00014">
        <ele>620</ele>
        <time>2021-10-21T08:58:07.970Z</time>
      </trkpt>
      <trkpt lat="44.42598" lon="5.99982">
        <ele>619.79998779297</ele>
        <time>2021-10-21T08:58:19.645Z</time>
      </trkpt>
      <trkpt lat="44.42601" lon="5.99939">
        <ele>619.79998779297</ele>
        <time>2021-10-21T08:58:31.330Z</time>
      </trkpt>
      <trkpt lat="44.42598" lon="5.99898">
        <ele>619.79998779297</ele>
        <time>2021-10-21T08:58:43.024Z</time>
      </trkpt>
      <trkpt lat="44.42592" lon="5.99848">
        <ele>619.79998779297</ele>
        <time>2021-10-21T08:58:54.729Z</time>
      </trkpt>
      <trkpt lat="44.42585" lon="5.99821">
        <ele>618.79998779297</ele>
        <time>2021-10-21T08:59:06.441Z</time>
      </trkpt>
      <trkpt lat="44.42582" lon="5.99816">
        <ele>618.79998779297</ele>
        <time>2021-10-21T08:59:18.154Z</time>
      </trkpt>
      <trkpt lat="44.42572" lon="5.99818">
        <ele>616.59997558594</ele>
        <time>2021-10-21T08:59:29.870Z</time>
      </trkpt>
      <trkpt lat="44.42562" lon="5.99823">
        <ele>616.59997558594</ele>
        <time>2021-10-21T08:59:41.590Z</time>
      </trkpt>
      <trkpt lat="44.42557" lon="5.99823">
        <ele>614</ele>
        <time>2021-10-21T08:59:53.311Z</time>
      </trkpt>
      <trkpt lat="44.4255" lon="5.99813">
        <ele>614</ele>
        <time>2021-10-21T09:00:05.035Z</time>
      </trkpt>
      <trkpt lat="44.42544" lon="5.99758">
        <ele>611.79998779297</ele>
        <time>2021-10-21T09:00:16.772Z</time>
      </trkpt>
      <trkpt lat="44.42539" lon="5.99734">
        <ele>611.79998779297</ele>
        <time>2021-10-21T09:00:28.514Z</time>
      </trkpt>
      <trkpt lat="44.42529" lon="5.99707">
        <ele>611.79998779297</ele>
        <time>2021-10-21T09:00:40.263Z</time>
      </trkpt>
      <trkpt lat="44.42522" lon="5.99702">
        <ele>611.79998779297</ele>
        <time>2021-10-21T09:00:52.015Z</time>
      </trkpt>
      <trkpt lat="44.42507" lon="5.99707">
        <ele>611.79998779297</ele>
        <time>2021-10-21T09:01:03.771Z</time>
      </trkpt>
      <trkpt lat="44.42499" lon="5.99703">
        <ele>608.79998779297</ele>
        <time>2021-10-21T09:01:15.530Z</time>
      </trkpt>
      <trkpt lat="44.42492" lon="5.99681">
        <ele>608.40002441406</ele>
        <time>2021-10-21T09:01:27.294Z</time>
      </trkpt>
      <trkpt lat="44.4249" lon="5.99661">
        <ele>608.20001220703</ele>
        <time>2021-10-21T09:01:39.063Z</time>
      </trkpt>
      <trkpt lat="44.42504" lon="5.9965">
        <ele>608.40002441406</ele>
        <time>2021-10-21T09:01:50.837Z</time>
      </trkpt>
    </trkseg>
  </trk>
</gpx>